<?xml version="1.0" encoding="utf-8"?>
<gpx xmlns:xsi="http://www.w3.org/2001/XMLSchema-instance" xmlns:xsd="http://www.w3.org/2001/XMLSchema" version="1.1" creator="Shapelink.com" xmlns="http://www.topografix.com/GPX/1/1" xmlns:gpxtpx="http://www.garmin.com/xmlschemas/TrackPointExtension/v1">
  <metadata>
    <name>Kører 8.66 km, 2011-06-22</name>
    <desc></desc>
    <author><name>Jojje Borssén</name></author> 
    <time>2011-06-22T10:38:13Z</time>
  </metadata>
  <trk>
    <name>Kører 8.66 km, 2011-06-22</name>
    <trkseg>
      <trkpt lat="60.8781196515" lon="15.1212862288">
        <ele>0</ele>
        <time>2011-06-22T10:38:13Z</time>
      </trkpt>
      <trkpt lat="60.8783533389" lon="15.1209325126">
        <ele>30.2</ele>
        <time>2011-06-22T10:38:19Z</time>
      </trkpt>
      <trkpt lat="60.8783763891" lon="15.1208303372">
        <ele>56.8</ele>
        <time>2011-06-22T10:38:23Z</time>
      </trkpt>
      <trkpt lat="60.8783474716" lon="15.1207427464">
        <ele>88.6</ele>
        <time>2011-06-22T10:38:28Z</time>
      </trkpt>
      <trkpt lat="60.8782732079" lon="15.1206125755">
        <ele>126.4</ele>
        <time>2011-06-22T10:38:35Z</time>
      </trkpt>
      <trkpt lat="60.8781396843" lon="15.1204445184">
        <ele>170.2</ele>
        <time>2011-06-22T10:38:48Z</time>
      </trkpt>
      <trkpt lat="60.8781035583" lon="15.1203856774">
        <ele>182.6</ele>
        <time>2011-06-22T10:38:54Z</time>
      </trkpt>
      <trkpt lat="60.8780732996" lon="15.1203488809">
        <ele>190</ele>
        <time>2011-06-22T10:38:59Z</time>
      </trkpt>
      <trkpt lat="60.8780215833" lon="15.1202836697">
        <ele>194.8</ele>
        <time>2011-06-22T10:39:03Z</time>
      </trkpt>
      <trkpt lat="60.8779553663" lon="15.1202116692">
        <ele>198.4</ele>
        <time>2011-06-22T10:39:07Z</time>
      </trkpt>
      <trkpt lat="60.8779157199" lon="15.1201870264">
        <ele>200.2</ele>
        <time>2011-06-22T10:39:09Z</time>
      </trkpt>
      <trkpt lat="60.8778758221" lon="15.1201494755">
        <ele>202.8</ele>
        <time>2011-06-22T10:39:13Z</time>
      </trkpt>
      <trkpt lat="60.8778583877" lon="15.1201289398">
        <ele>203.6</ele>
        <time>2011-06-22T10:39:15Z</time>
      </trkpt>
      <trkpt lat="60.8778352537" lon="15.1201013634">
        <ele>204.8</ele>
        <time>2011-06-22T10:39:17Z</time>
      </trkpt>
      <trkpt lat="60.8778012231" lon="15.120090886">
        <ele>205.8</ele>
        <time>2011-06-22T10:39:19Z</time>
      </trkpt>
      <trkpt lat="60.8776930128" lon="15.120047803">
        <ele>207.4</ele>
        <time>2011-06-22T10:39:24Z</time>
      </trkpt>
      <trkpt lat="60.8775949446" lon="15.1200958313">
        <ele>209.2</ele>
        <time>2011-06-22T10:39:30Z</time>
      </trkpt>
      <trkpt lat="60.8775914242" lon="15.1202392456">
        <ele>210</ele>
        <time>2011-06-22T10:39:34Z</time>
      </trkpt>
      <trkpt lat="60.8776802723" lon="15.120421552">
        <ele>211.8</ele>
        <time>2011-06-22T10:39:40Z</time>
      </trkpt>
      <trkpt lat="60.8777370178" lon="15.120509059">
        <ele>212.4</ele>
        <time>2011-06-22T10:39:43Z</time>
      </trkpt>
      <trkpt lat="60.8778478265" lon="15.1207606836">
        <ele>214.2</ele>
        <time>2011-06-22T10:39:50Z</time>
      </trkpt>
      <trkpt lat="60.8778768279" lon="15.1208362045">
        <ele>214.6</ele>
        <time>2011-06-22T10:39:52Z</time>
      </trkpt>
      <trkpt lat="60.8778773308" lon="15.1208782817">
        <ele>216.4</ele>
        <time>2011-06-22T10:40:01Z</time>
      </trkpt>
      <trkpt lat="60.877928628" lon="15.1210662039">
        <ele>217</ele>
        <time>2011-06-22T10:40:06Z</time>
      </trkpt>
      <trkpt lat="60.8779872175" lon="15.1213144758">
        <ele>217.6</ele>
        <time>2011-06-22T10:40:12Z</time>
      </trkpt>
      <trkpt lat="60.8780390176" lon="15.1215903241">
        <ele>217.8</ele>
        <time>2011-06-22T10:40:18Z</time>
      </trkpt>
      <trkpt lat="60.878073132" lon="15.1218465588">
        <ele>218</ele>
        <time>2011-06-22T10:40:23Z</time>
      </trkpt>
      <trkpt lat="60.878087465" lon="15.1219637377">
        <ele>218</ele>
        <time>2011-06-22T10:40:26Z</time>
      </trkpt>
      <trkpt lat="60.8781190648" lon="15.1220792403">
        <ele>218</ele>
        <time>2011-06-22T10:40:32Z</time>
      </trkpt>
      <trkpt lat="60.8781608067" lon="15.1223027856">
        <ele>218</ele>
        <time>2011-06-22T10:40:39Z</time>
      </trkpt>
      <trkpt lat="60.8782359085" lon="15.1225732695">
        <ele>218</ele>
        <time>2011-06-22T10:40:45Z</time>
      </trkpt>
      <trkpt lat="60.8783091663" lon="15.1228863335">
        <ele>218</ele>
        <time>2011-06-22T10:40:51Z</time>
      </trkpt>
      <trkpt lat="60.8783134411" lon="15.1231961285">
        <ele>218</ele>
        <time>2011-06-22T10:40:57Z</time>
      </trkpt>
      <trkpt lat="60.8782888821" lon="15.1234489266">
        <ele>218</ele>
        <time>2011-06-22T10:41:03Z</time>
      </trkpt>
      <trkpt lat="60.8782656642" lon="15.1236910797">
        <ele>219</ele>
        <time>2011-06-22T10:41:09Z</time>
      </trkpt>
      <trkpt lat="60.8782254311" lon="15.1240406887">
        <ele>219.6</ele>
        <time>2011-06-22T10:41:17Z</time>
      </trkpt>
      <trkpt lat="60.8781926579" lon="15.1243316245">
        <ele>220.6</ele>
        <time>2011-06-22T10:41:23Z</time>
      </trkpt>
      <trkpt lat="60.8781328111" lon="15.1246988355">
        <ele>221.4</ele>
        <time>2011-06-22T10:41:30Z</time>
      </trkpt>
      <trkpt lat="60.8780624032" lon="15.1249919506">
        <ele>222.2</ele>
        <time>2011-06-22T10:41:36Z</time>
      </trkpt>
      <trkpt lat="60.8779764887" lon="15.1251993188">
        <ele>223</ele>
        <time>2011-06-22T10:41:42Z</time>
      </trkpt>
      <trkpt lat="60.8778737266" lon="15.1254333414">
        <ele>224.2</ele>
        <time>2011-06-22T10:41:49Z</time>
        <extensions><gpxtpx:TrackPointExtension><gpxtpx:hr>130</gpxtpx:hr></gpxtpx:TrackPointExtension></extensions>
      </trkpt>
      <trkpt lat="60.8776587308" lon="15.1259032307">
        <ele>226.6</ele>
        <time>2011-06-22T10:42:02Z</time>
        <extensions><gpxtpx:TrackPointExtension><gpxtpx:hr>131</gpxtpx:hr></gpxtpx:TrackPointExtension></extensions>
      </trkpt>
      <trkpt lat="60.8775483412" lon="15.1261398518">
        <ele>228.4</ele>
        <time>2011-06-22T10:42:09Z</time>
        <extensions><gpxtpx:TrackPointExtension><gpxtpx:hr>132</gpxtpx:hr></gpxtpx:TrackPointExtension></extensions>
      </trkpt>
      <trkpt lat="60.8774406338" lon="15.1264175441">
        <ele>230.6</ele>
        <time>2011-06-22T10:42:16Z</time>
        <extensions><gpxtpx:TrackPointExtension><gpxtpx:hr>134</gpxtpx:hr></gpxtpx:TrackPointExtension></extensions>
      </trkpt>
      <trkpt lat="60.8773387099" lon="15.1266584399">
        <ele>232.4</ele>
        <time>2011-06-22T10:42:22Z</time>
        <extensions><gpxtpx:TrackPointExtension><gpxtpx:hr>134</gpxtpx:hr></gpxtpx:TrackPointExtension></extensions>
      </trkpt>
      <trkpt lat="60.8772496941" lon="15.1268909538">
        <ele>234.4</ele>
        <time>2011-06-22T10:42:28Z</time>
        <extensions><gpxtpx:TrackPointExtension><gpxtpx:hr>134</gpxtpx:hr></gpxtpx:TrackPointExtension></extensions>
      </trkpt>
      <trkpt lat="60.8771850697" lon="15.1271291674">
        <ele>236.6</ele>
        <time>2011-06-22T10:42:34Z</time>
        <extensions><gpxtpx:TrackPointExtension><gpxtpx:hr>134</gpxtpx:hr></gpxtpx:TrackPointExtension></extensions>
      </trkpt>
      <trkpt lat="60.877205773" lon="15.1273901798">
        <ele>239</ele>
        <time>2011-06-22T10:42:40Z</time>
        <extensions><gpxtpx:TrackPointExtension><gpxtpx:hr>133</gpxtpx:hr></gpxtpx:TrackPointExtension></extensions>
      </trkpt>
      <trkpt lat="60.877268721" lon="15.1275807004">
        <ele>240</ele>
        <time>2011-06-22T10:42:45Z</time>
        <extensions><gpxtpx:TrackPointExtension><gpxtpx:hr>131</gpxtpx:hr></gpxtpx:TrackPointExtension></extensions>
      </trkpt>
      <trkpt lat="60.8773027516" lon="15.1276682912">
        <ele>241</ele>
        <time>2011-06-22T10:42:49Z</time>
        <extensions><gpxtpx:TrackPointExtension><gpxtpx:hr>130</gpxtpx:hr></gpxtpx:TrackPointExtension></extensions>
      </trkpt>
      <trkpt lat="60.8773095409" lon="15.1277242823">
        <ele>242</ele>
        <time>2011-06-22T10:42:53Z</time>
        <extensions><gpxtpx:TrackPointExtension><gpxtpx:hr>126</gpxtpx:hr></gpxtpx:TrackPointExtension></extensions>
      </trkpt>
      <trkpt lat="60.8773517857" lon="15.1278435568">
        <ele>242.6</ele>
        <time>2011-06-22T10:42:57Z</time>
        <extensions><gpxtpx:TrackPointExtension><gpxtpx:hr>124</gpxtpx:hr></gpxtpx:TrackPointExtension></extensions>
      </trkpt>
      <trkpt lat="60.8774492672" lon="15.12807825">
        <ele>243.2</ele>
        <time>2011-06-22T10:43:03Z</time>
        <extensions><gpxtpx:TrackPointExtension><gpxtpx:hr>122</gpxtpx:hr></gpxtpx:TrackPointExtension></extensions>
      </trkpt>
      <trkpt lat="60.877528057" lon="15.1283888832">
        <ele>243.6</ele>
        <time>2011-06-22T10:43:09Z</time>
        <extensions><gpxtpx:TrackPointExtension><gpxtpx:hr>122</gpxtpx:hr></gpxtpx:TrackPointExtension></extensions>
      </trkpt>
      <trkpt lat="60.8775819526" lon="15.1286545056">
        <ele>244.6</ele>
        <time>2011-06-22T10:43:15Z</time>
        <extensions><gpxtpx:TrackPointExtension><gpxtpx:hr>123</gpxtpx:hr></gpxtpx:TrackPointExtension></extensions>
      </trkpt>
      <trkpt lat="60.8776375246" lon="15.1290287574">
        <ele>245.2</ele>
        <time>2011-06-22T10:43:21Z</time>
        <extensions><gpxtpx:TrackPointExtension><gpxtpx:hr>122</gpxtpx:hr></gpxtpx:TrackPointExtension></extensions>
      </trkpt>
      <trkpt lat="60.8776570545" lon="15.1293800429">
        <ele>245.4</ele>
        <time>2011-06-22T10:43:27Z</time>
        <extensions><gpxtpx:TrackPointExtension><gpxtpx:hr>123</gpxtpx:hr></gpxtpx:TrackPointExtension></extensions>
      </trkpt>
      <trkpt lat="60.8776663584" lon="15.1297204318">
        <ele>246.2</ele>
        <time>2011-06-22T10:43:33Z</time>
        <extensions><gpxtpx:TrackPointExtension><gpxtpx:hr>124</gpxtpx:hr></gpxtpx:TrackPointExtension></extensions>
      </trkpt>
      <trkpt lat="60.8776777578" lon="15.1300244433">
        <ele>247</ele>
        <time>2011-06-22T10:43:39Z</time>
        <extensions><gpxtpx:TrackPointExtension><gpxtpx:hr>124</gpxtpx:hr></gpxtpx:TrackPointExtension></extensions>
      </trkpt>
      <trkpt lat="60.8777112854" lon="15.1304231703">
        <ele>247.4</ele>
        <time>2011-06-22T10:43:47Z</time>
        <extensions><gpxtpx:TrackPointExtension><gpxtpx:hr>125</gpxtpx:hr></gpxtpx:TrackPointExtension></extensions>
      </trkpt>
      <trkpt lat="60.877768869" lon="15.1308155271">
        <ele>248.6</ele>
        <time>2011-06-22T10:43:55Z</time>
        <extensions><gpxtpx:TrackPointExtension><gpxtpx:hr>128</gpxtpx:hr></gpxtpx:TrackPointExtension></extensions>
      </trkpt>
      <trkpt lat="60.8778155562" lon="15.1310594403">
        <ele>249.2</ele>
        <time>2011-06-22T10:44:00Z</time>
        <extensions><gpxtpx:TrackPointExtension><gpxtpx:hr>128</gpxtpx:hr></gpxtpx:TrackPointExtension></extensions>
      </trkpt>
      <trkpt lat="60.8778666858" lon="15.1313089695">
        <ele>249.4</ele>
        <time>2011-06-22T10:44:05Z</time>
        <extensions><gpxtpx:TrackPointExtension><gpxtpx:hr>129</gpxtpx:hr></gpxtpx:TrackPointExtension></extensions>
      </trkpt>
      <trkpt lat="60.8779157199" lon="15.131629661">
        <ele>249.8</ele>
        <time>2011-06-22T10:44:11Z</time>
        <extensions><gpxtpx:TrackPointExtension><gpxtpx:hr>131</gpxtpx:hr></gpxtpx:TrackPointExtension></extensions>
      </trkpt>
      <trkpt lat="60.8779629938" lon="15.1318562238">
        <ele>250.8</ele>
        <time>2011-06-22T10:44:15Z</time>
        <extensions><gpxtpx:TrackPointExtension><gpxtpx:hr>132</gpxtpx:hr></gpxtpx:TrackPointExtension></extensions>
      </trkpt>
      <trkpt lat="60.8780013829" lon="15.1321764962">
        <ele>251.4</ele>
        <time>2011-06-22T10:44:23Z</time>
        <extensions><gpxtpx:TrackPointExtension><gpxtpx:hr>131</gpxtpx:hr></gpxtpx:TrackPointExtension></extensions>
      </trkpt>
      <trkpt lat="60.8780244331" lon="15.1322391928">
        <ele>251.6</ele>
        <time>2011-06-22T10:44:27Z</time>
        <extensions><gpxtpx:TrackPointExtension><gpxtpx:hr>129</gpxtpx:hr></gpxtpx:TrackPointExtension></extensions>
      </trkpt>
      <trkpt lat="60.8780390176" lon="15.1324577089">
        <ele>252.2</ele>
        <time>2011-06-22T10:44:31Z</time>
        <extensions><gpxtpx:TrackPointExtension><gpxtpx:hr>128</gpxtpx:hr></gpxtpx:TrackPointExtension></extensions>
      </trkpt>
      <trkpt lat="60.8780701145" lon="15.1328672485">
        <ele>253.2</ele>
        <time>2011-06-22T10:44:39Z</time>
        <extensions><gpxtpx:TrackPointExtension><gpxtpx:hr>127</gpxtpx:hr></gpxtpx:TrackPointExtension></extensions>
      </trkpt>
      <trkpt lat="60.8780866268" lon="15.133112">
        <ele>253.6</ele>
        <time>2011-06-22T10:44:43Z</time>
        <extensions><gpxtpx:TrackPointExtension><gpxtpx:hr>128</gpxtpx:hr></gpxtpx:TrackPointExtension></extensions>
      </trkpt>
      <trkpt lat="60.8780986968" lon="15.1334294226">
        <ele>254.6</ele>
        <time>2011-06-22T10:44:50Z</time>
        <extensions><gpxtpx:TrackPointExtension><gpxtpx:hr>129</gpxtpx:hr></gpxtpx:TrackPointExtension></extensions>
      </trkpt>
      <trkpt lat="60.8781071625" lon="15.1337480186">
        <ele>255.4</ele>
        <time>2011-06-22T10:44:56Z</time>
        <extensions><gpxtpx:TrackPointExtension><gpxtpx:hr>130</gpxtpx:hr></gpxtpx:TrackPointExtension></extensions>
      </trkpt>
      <trkpt lat="60.8781093418" lon="15.1339109627">
        <ele>256</ele>
        <time>2011-06-22T10:44:59Z</time>
        <extensions><gpxtpx:TrackPointExtension><gpxtpx:hr>134</gpxtpx:hr></gpxtpx:TrackPointExtension></extensions>
      </trkpt>
      <trkpt lat="60.878136583" lon="15.134225284">
        <ele>257</ele>
        <time>2011-06-22T10:45:05Z</time>
        <extensions><gpxtpx:TrackPointExtension><gpxtpx:hr>139</gpxtpx:hr></gpxtpx:TrackPointExtension></extensions>
      </trkpt>
      <trkpt lat="60.8781420312" lon="15.134277587">
        <ele>257.2</ele>
        <time>2011-06-22T10:45:06Z</time>
        <extensions><gpxtpx:TrackPointExtension><gpxtpx:hr>139</gpxtpx:hr></gpxtpx:TrackPointExtension></extensions>
      </trkpt>
      <trkpt lat="60.8781772352" lon="15.134601296">
        <ele>258</ele>
        <time>2011-06-22T10:45:12Z</time>
        <extensions><gpxtpx:TrackPointExtension><gpxtpx:hr>138</gpxtpx:hr></gpxtpx:TrackPointExtension></extensions>
      </trkpt>
      <trkpt lat="60.8781996149" lon="15.1347477278">
        <ele>258.6</ele>
        <time>2011-06-22T10:45:15Z</time>
        <extensions><gpxtpx:TrackPointExtension><gpxtpx:hr>137</gpxtpx:hr></gpxtpx:TrackPointExtension></extensions>
      </trkpt>
      <trkpt lat="60.8782292868" lon="15.1348638171">
        <ele>259</ele>
        <time>2011-06-22T10:45:17Z</time>
        <extensions><gpxtpx:TrackPointExtension><gpxtpx:hr>136</gpxtpx:hr></gpxtpx:TrackPointExtension></extensions>
      </trkpt>
      <trkpt lat="60.8783129381" lon="15.1350614623">
        <ele>259.6</ele>
        <time>2011-06-22T10:45:23Z</time>
        <extensions><gpxtpx:TrackPointExtension><gpxtpx:hr>133</gpxtpx:hr></gpxtpx:TrackPointExtension></extensions>
      </trkpt>
      <trkpt lat="60.8783397602" lon="15.1351034556">
        <ele>259.8</ele>
        <time>2011-06-22T10:45:27Z</time>
        <extensions><gpxtpx:TrackPointExtension><gpxtpx:hr>131</gpxtpx:hr></gpxtpx:TrackPointExtension></extensions>
      </trkpt>
      <trkpt lat="60.8783932367" lon="15.1351911303">
        <ele>260</ele>
        <time>2011-06-22T10:45:33Z</time>
        <extensions><gpxtpx:TrackPointExtension><gpxtpx:hr>130</gpxtpx:hr></gpxtpx:TrackPointExtension></extensions>
      </trkpt>
      <trkpt lat="60.8784965018" lon="15.1353272524">
        <ele>260.2</ele>
        <time>2011-06-22T10:45:38Z</time>
        <extensions><gpxtpx:TrackPointExtension><gpxtpx:hr>131</gpxtpx:hr></gpxtpx:TrackPointExtension></extensions>
      </trkpt>
      <trkpt lat="60.8786481303" lon="15.1355297591">
        <ele>260.2</ele>
        <time>2011-06-22T10:45:44Z</time>
        <extensions><gpxtpx:TrackPointExtension><gpxtpx:hr>132</gpxtpx:hr></gpxtpx:TrackPointExtension></extensions>
      </trkpt>
      <trkpt lat="60.8787891139" lon="15.135751628">
        <ele>260.2</ele>
        <time>2011-06-22T10:45:50Z</time>
        <extensions><gpxtpx:TrackPointExtension><gpxtpx:hr>133</gpxtpx:hr></gpxtpx:TrackPointExtension></extensions>
      </trkpt>
      <trkpt lat="60.8790126592" lon="15.1361722317">
        <ele>261.4</ele>
        <time>2011-06-22T10:46:01Z</time>
        <extensions><gpxtpx:TrackPointExtension><gpxtpx:hr>134</gpxtpx:hr></gpxtpx:TrackPointExtension></extensions>
      </trkpt>
      <trkpt lat="60.879119696" lon="15.1364192463">
        <ele>261.8</ele>
        <time>2011-06-22T10:46:07Z</time>
        <extensions><gpxtpx:TrackPointExtension><gpxtpx:hr>135</gpxtpx:hr></gpxtpx:TrackPointExtension></extensions>
      </trkpt>
      <trkpt lat="60.8791374656" lon="15.1364427994">
        <ele>261.8</ele>
        <time>2011-06-22T10:46:08Z</time>
        <extensions><gpxtpx:TrackPointExtension><gpxtpx:hr>135</gpxtpx:hr></gpxtpx:TrackPointExtension></extensions>
      </trkpt>
      <trkpt lat="60.8793095461" lon="15.1365005507">
        <ele>262</ele>
        <time>2011-06-22T10:46:13Z</time>
        <extensions><gpxtpx:TrackPointExtension><gpxtpx:hr>134</gpxtpx:hr></gpxtpx:TrackPointExtension></extensions>
      </trkpt>
      <trkpt lat="60.8794329276" lon="15.1366028099">
        <ele>262.6</ele>
        <time>2011-06-22T10:46:18Z</time>
        <extensions><gpxtpx:TrackPointExtension><gpxtpx:hr>132</gpxtpx:hr></gpxtpx:TrackPointExtension></extensions>
      </trkpt>
      <trkpt lat="60.87945405" lon="15.1366183164">
        <ele>262.8</ele>
        <time>2011-06-22T10:46:20Z</time>
        <extensions><gpxtpx:TrackPointExtension><gpxtpx:hr>131</gpxtpx:hr></gpxtpx:TrackPointExtension></extensions>
      </trkpt>
      <trkpt lat="60.8794772679" lon="15.1366465634">
        <ele>263.4</ele>
        <time>2011-06-22T10:46:26Z</time>
        <extensions><gpxtpx:TrackPointExtension><gpxtpx:hr>124</gpxtpx:hr></gpxtpx:TrackPointExtension></extensions>
      </trkpt>
      <trkpt lat="60.8794827161" lon="15.1366434621">
        <ele>263.8</ele>
        <time>2011-06-22T10:46:32Z</time>
        <extensions><gpxtpx:TrackPointExtension><gpxtpx:hr>119</gpxtpx:hr></gpxtpx:TrackPointExtension></extensions>
      </trkpt>
      <trkpt lat="60.8795088676" lon="15.1366632434">
        <ele>264</ele>
        <time>2011-06-22T10:46:38Z</time>
        <extensions><gpxtpx:TrackPointExtension><gpxtpx:hr>118</gpxtpx:hr></gpxtpx:TrackPointExtension></extensions>
      </trkpt>
      <trkpt lat="60.8795964585" lon="15.1368474776">
        <ele>264.8</ele>
        <time>2011-06-22T10:46:43Z</time>
        <extensions><gpxtpx:TrackPointExtension><gpxtpx:hr>118</gpxtpx:hr></gpxtpx:TrackPointExtension></extensions>
      </trkpt>
      <trkpt lat="60.8796284773" lon="15.1369323862">
        <ele>265.2</ele>
        <time>2011-06-22T10:46:45Z</time>
        <extensions><gpxtpx:TrackPointExtension><gpxtpx:hr>124</gpxtpx:hr></gpxtpx:TrackPointExtension></extensions>
      </trkpt>
      <trkpt lat="60.8797211812" lon="15.137236733">
        <ele>265.8</ele>
        <time>2011-06-22T10:46:52Z</time>
        <extensions><gpxtpx:TrackPointExtension><gpxtpx:hr>124</gpxtpx:hr></gpxtpx:TrackPointExtension></extensions>
      </trkpt>
      <trkpt lat="60.8798081853" lon="15.1375687401">
        <ele>267</ele>
        <time>2011-06-22T10:46:58Z</time>
        <extensions><gpxtpx:TrackPointExtension><gpxtpx:hr>127</gpxtpx:hr></gpxtpx:TrackPointExtension></extensions>
      </trkpt>
      <trkpt lat="60.8798808564" lon="15.137856826">
        <ele>267.6</ele>
        <time>2011-06-22T10:47:05Z</time>
        <extensions><gpxtpx:TrackPointExtension><gpxtpx:hr>128</gpxtpx:hr></gpxtpx:TrackPointExtension></extensions>
      </trkpt>
      <trkpt lat="60.8799681958" lon="15.138180954">
        <ele>269</ele>
        <time>2011-06-22T10:47:12Z</time>
        <extensions><gpxtpx:TrackPointExtension><gpxtpx:hr>128</gpxtpx:hr></gpxtpx:TrackPointExtension></extensions>
      </trkpt>
      <trkpt lat="60.880053272" lon="15.1385153918">
        <ele>269.8</ele>
        <time>2011-06-22T10:47:19Z</time>
        <extensions><gpxtpx:TrackPointExtension><gpxtpx:hr>129</gpxtpx:hr></gpxtpx:TrackPointExtension></extensions>
      </trkpt>
      <trkpt lat="60.8800816029" lon="15.1386444731">
        <ele>270.6</ele>
        <time>2011-06-22T10:47:22Z</time>
        <extensions><gpxtpx:TrackPointExtension><gpxtpx:hr>129</gpxtpx:hr></gpxtpx:TrackPointExtension></extensions>
      </trkpt>
      <trkpt lat="60.8801407791" lon="15.1388670964">
        <ele>271.4</ele>
        <time>2011-06-22T10:47:27Z</time>
        <extensions><gpxtpx:TrackPointExtension><gpxtpx:hr>130</gpxtpx:hr></gpxtpx:TrackPointExtension></extensions>
      </trkpt>
      <trkpt lat="60.8801580458" lon="15.1389075809">
        <ele>271.6</ele>
        <time>2011-06-22T10:47:28Z</time>
        <extensions><gpxtpx:TrackPointExtension><gpxtpx:hr>130</gpxtpx:hr></gpxtpx:TrackPointExtension></extensions>
      </trkpt>
      <trkpt lat="60.8802478159" lon="15.1392000254">
        <ele>272.8</ele>
        <time>2011-06-22T10:47:33Z</time>
        <extensions><gpxtpx:TrackPointExtension><gpxtpx:hr>130</gpxtpx:hr></gpxtpx:TrackPointExtension></extensions>
      </trkpt>
      <trkpt lat="60.8803225825" lon="15.1397515545">
        <ele>275</ele>
        <time>2011-06-22T10:47:44Z</time>
        <extensions><gpxtpx:TrackPointExtension><gpxtpx:hr>138</gpxtpx:hr></gpxtpx:TrackPointExtension></extensions>
      </trkpt>
      <trkpt lat="60.8803605525" lon="15.1399062005">
        <ele>276.2</ele>
        <time>2011-06-22T10:47:48Z</time>
        <extensions><gpxtpx:TrackPointExtension><gpxtpx:hr>140</gpxtpx:hr></gpxtpx:TrackPointExtension></extensions>
      </trkpt>
      <trkpt lat="60.8804036355" lon="15.1400356171">
        <ele>277.2</ele>
        <time>2011-06-22T10:47:52Z</time>
        <extensions><gpxtpx:TrackPointExtension><gpxtpx:hr>139</gpxtpx:hr></gpxtpx:TrackPointExtension></extensions>
      </trkpt>
      <trkpt lat="60.8804110953" lon="15.1400609304">
        <ele>277.4</ele>
        <time>2011-06-22T10:47:53Z</time>
        <extensions><gpxtpx:TrackPointExtension><gpxtpx:hr>139</gpxtpx:hr></gpxtpx:TrackPointExtension></extensions>
      </trkpt>
      <trkpt lat="60.8804600456" lon="15.1401853178">
        <ele>278.4</ele>
        <time>2011-06-22T10:47:57Z</time>
        <extensions><gpxtpx:TrackPointExtension><gpxtpx:hr>142</gpxtpx:hr></gpxtpx:TrackPointExtension></extensions>
      </trkpt>
      <trkpt lat="60.8805037992" lon="15.1402677119">
        <ele>279.2</ele>
        <time>2011-06-22T10:48:00Z</time>
        <extensions><gpxtpx:TrackPointExtension><gpxtpx:hr>141</gpxtpx:hr></gpxtpx:TrackPointExtension></extensions>
      </trkpt>
      <trkpt lat="60.8805856065" lon="15.1404638483">
        <ele>280</ele>
        <time>2011-06-22T10:48:05Z</time>
        <extensions><gpxtpx:TrackPointExtension><gpxtpx:hr>138</gpxtpx:hr></gpxtpx:TrackPointExtension></extensions>
      </trkpt>
      <trkpt lat="60.8805977603" lon="15.1405015669">
        <ele>280.2</ele>
        <time>2011-06-22T10:48:06Z</time>
        <extensions><gpxtpx:TrackPointExtension><gpxtpx:hr>138</gpxtpx:hr></gpxtpx:TrackPointExtension></extensions>
      </trkpt>
      <trkpt lat="60.8806470458" lon="15.1407500902">
        <ele>281.2</ele>
        <time>2011-06-22T10:48:12Z</time>
        <extensions><gpxtpx:TrackPointExtension><gpxtpx:hr>138</gpxtpx:hr></gpxtpx:TrackPointExtension></extensions>
      </trkpt>
      <trkpt lat="60.8806732812" lon="15.1407971127">
        <ele>281.6</ele>
        <time>2011-06-22T10:48:14Z</time>
        <extensions><gpxtpx:TrackPointExtension><gpxtpx:hr>139</gpxtpx:hr></gpxtpx:TrackPointExtension></extensions>
      </trkpt>
      <trkpt lat="60.8807375704" lon="15.1409855378">
        <ele>282.4</ele>
        <time>2011-06-22T10:48:19Z</time>
        <extensions><gpxtpx:TrackPointExtension><gpxtpx:hr>147</gpxtpx:hr></gpxtpx:TrackPointExtension></extensions>
      </trkpt>
      <trkpt lat="60.8808024463" lon="15.1412027128">
        <ele>282.6</ele>
        <time>2011-06-22T10:48:23Z</time>
        <extensions><gpxtpx:TrackPointExtension><gpxtpx:hr>144</gpxtpx:hr></gpxtpx:TrackPointExtension></extensions>
      </trkpt>
      <trkpt lat="60.8808818229" lon="15.1414830035">
        <ele>283.8</ele>
        <time>2011-06-22T10:48:29Z</time>
        <extensions><gpxtpx:TrackPointExtension><gpxtpx:hr>144</gpxtpx:hr></gpxtpx:TrackPointExtension></extensions>
      </trkpt>
      <trkpt lat="60.8809485428" lon="15.1417395735">
        <ele>284.4</ele>
        <time>2011-06-22T10:48:34Z</time>
        <extensions><gpxtpx:TrackPointExtension><gpxtpx:hr>141</gpxtpx:hr></gpxtpx:TrackPointExtension></extensions>
      </trkpt>
      <trkpt lat="60.8810249857" lon="15.1420170144">
        <ele>285</ele>
        <time>2011-06-22T10:48:40Z</time>
        <extensions><gpxtpx:TrackPointExtension><gpxtpx:hr>140</gpxtpx:hr></gpxtpx:TrackPointExtension></extensions>
      </trkpt>
      <trkpt lat="60.8810837428" lon="15.1422131509">
        <ele>285.2</ele>
        <time>2011-06-22T10:48:44Z</time>
        <extensions><gpxtpx:TrackPointExtension><gpxtpx:hr>140</gpxtpx:hr></gpxtpx:TrackPointExtension></extensions>
      </trkpt>
      <trkpt lat="60.8811634547" lon="15.1423516198">
        <ele>285.2</ele>
        <time>2011-06-22T10:48:48Z</time>
        <extensions><gpxtpx:TrackPointExtension><gpxtpx:hr>141</gpxtpx:hr></gpxtpx:TrackPointExtension></extensions>
      </trkpt>
      <trkpt lat="60.8812616906" lon="15.1426411307">
        <ele>285.4</ele>
        <time>2011-06-22T10:48:54Z</time>
        <extensions><gpxtpx:TrackPointExtension><gpxtpx:hr>143</gpxtpx:hr></gpxtpx:TrackPointExtension></extensions>
      </trkpt>
      <trkpt lat="60.8813014208" lon="15.1427334992">
        <ele>285.4</ele>
        <time>2011-06-22T10:48:56Z</time>
        <extensions><gpxtpx:TrackPointExtension><gpxtpx:hr>143</gpxtpx:hr></gpxtpx:TrackPointExtension></extensions>
      </trkpt>
      <trkpt lat="60.8813460963" lon="15.1428022308">
        <ele>285.4</ele>
        <time>2011-06-22T10:48:58Z</time>
        <extensions><gpxtpx:TrackPointExtension><gpxtpx:hr>142</gpxtpx:hr></gpxtpx:TrackPointExtension></extensions>
      </trkpt>
      <trkpt lat="60.881497641" lon="15.1430950106">
        <ele>285.4</ele>
        <time>2011-06-22T10:49:05Z</time>
        <extensions><gpxtpx:TrackPointExtension><gpxtpx:hr>141</gpxtpx:hr></gpxtpx:TrackPointExtension></extensions>
      </trkpt>
      <trkpt lat="60.8816443243" lon="15.1433736249">
        <ele>285.4</ele>
        <time>2011-06-22T10:49:12Z</time>
        <extensions><gpxtpx:TrackPointExtension><gpxtpx:hr>140</gpxtpx:hr></gpxtpx:TrackPointExtension></extensions>
      </trkpt>
      <trkpt lat="60.8816582383" lon="15.1434224914">
        <ele>285.6</ele>
        <time>2011-06-22T10:49:13Z</time>
        <extensions><gpxtpx:TrackPointExtension><gpxtpx:hr>139</gpxtpx:hr></gpxtpx:TrackPointExtension></extensions>
      </trkpt>
      <trkpt lat="60.8817058474" lon="15.1436605373">
        <ele>285.6</ele>
        <time>2011-06-22T10:49:18Z</time>
        <extensions><gpxtpx:TrackPointExtension><gpxtpx:hr>137</gpxtpx:hr></gpxtpx:TrackPointExtension></extensions>
      </trkpt>
      <trkpt lat="60.8817692984" lon="15.1438785506">
        <ele>286.6</ele>
        <time>2011-06-22T10:49:23Z</time>
        <extensions><gpxtpx:TrackPointExtension><gpxtpx:hr>135</gpxtpx:hr></gpxtpx:TrackPointExtension></extensions>
      </trkpt>
      <trkpt lat="60.8818307378" lon="15.1441212066">
        <ele>287.2</ele>
        <time>2011-06-22T10:49:28Z</time>
        <extensions><gpxtpx:TrackPointExtension><gpxtpx:hr>135</gpxtpx:hr></gpxtpx:TrackPointExtension></extensions>
      </trkpt>
      <trkpt lat="60.8818824541" lon="15.144296975">
        <ele>288</ele>
        <time>2011-06-22T10:49:33Z</time>
        <extensions><gpxtpx:TrackPointExtension><gpxtpx:hr>137</gpxtpx:hr></gpxtpx:TrackPointExtension></extensions>
      </trkpt>
      <trkpt lat="60.8819107849" lon="15.1444465919">
        <ele>288.6</ele>
        <time>2011-06-22T10:49:36Z</time>
        <extensions><gpxtpx:TrackPointExtension><gpxtpx:hr>137</gpxtpx:hr></gpxtpx:TrackPointExtension></extensions>
      </trkpt>
      <trkpt lat="60.8819521915" lon="15.1448195865">
        <ele>289.2</ele>
        <time>2011-06-22T10:49:42Z</time>
        <extensions><gpxtpx:TrackPointExtension><gpxtpx:hr>139</gpxtpx:hr></gpxtpx:TrackPointExtension></extensions>
      </trkpt>
      <trkpt lat="60.8820030696" lon="15.1451193232">
        <ele>290.4</ele>
        <time>2011-06-22T10:49:49Z</time>
        <extensions><gpxtpx:TrackPointExtension><gpxtpx:hr>136</gpxtpx:hr></gpxtpx:TrackPointExtension></extensions>
      </trkpt>
      <trkpt lat="60.8820383574" lon="15.1452119432">
        <ele>290.8</ele>
        <time>2011-06-22T10:49:52Z</time>
        <extensions><gpxtpx:TrackPointExtension><gpxtpx:hr>138</gpxtpx:hr></gpxtpx:TrackPointExtension></extensions>
      </trkpt>
      <trkpt lat="60.8821132916" lon="15.1454119353">
        <ele>291.2</ele>
        <time>2011-06-22T10:49:57Z</time>
        <extensions><gpxtpx:TrackPointExtension><gpxtpx:hr>143</gpxtpx:hr></gpxtpx:TrackPointExtension></extensions>
      </trkpt>
      <trkpt lat="60.8821217573" lon="15.1454359914">
        <ele>291.2</ele>
        <time>2011-06-22T10:49:58Z</time>
        <extensions><gpxtpx:TrackPointExtension><gpxtpx:hr>143</gpxtpx:hr></gpxtpx:TrackPointExtension></extensions>
      </trkpt>
      <trkpt lat="60.8821344978" lon="15.1454680103">
        <ele>291.4</ele>
        <time>2011-06-22T10:49:59Z</time>
        <extensions><gpxtpx:TrackPointExtension><gpxtpx:hr>140</gpxtpx:hr></gpxtpx:TrackPointExtension></extensions>
      </trkpt>
      <trkpt lat="60.8822001281" lon="15.1456416832">
        <ele>291.6</ele>
        <time>2011-06-22T10:50:05Z</time>
        <extensions><gpxtpx:TrackPointExtension><gpxtpx:hr>139</gpxtpx:hr></gpxtpx:TrackPointExtension></extensions>
      </trkpt>
      <trkpt lat="60.8822391039" lon="15.1458264203">
        <ele>291.6</ele>
        <time>2011-06-22T10:50:10Z</time>
        <extensions><gpxtpx:TrackPointExtension><gpxtpx:hr>139</gpxtpx:hr></gpxtpx:TrackPointExtension></extensions>
      </trkpt>
      <trkpt lat="60.8822757328" lon="15.1459563398">
        <ele>291.6</ele>
        <time>2011-06-22T10:50:14Z</time>
        <extensions><gpxtpx:TrackPointExtension><gpxtpx:hr>141</gpxtpx:hr></gpxtpx:TrackPointExtension></extensions>
      </trkpt>
      <trkpt lat="60.8823013814" lon="15.1461547393">
        <ele>291.8</ele>
        <time>2011-06-22T10:50:20Z</time>
        <extensions><gpxtpx:TrackPointExtension><gpxtpx:hr>141</gpxtpx:hr></gpxtpx:TrackPointExtension></extensions>
      </trkpt>
      <trkpt lat="60.8823256051" lon="15.1464362035">
        <ele>291.8</ele>
        <time>2011-06-22T10:50:29Z</time>
        <extensions><gpxtpx:TrackPointExtension><gpxtpx:hr>142</gpxtpx:hr></gpxtpx:TrackPointExtension></extensions>
      </trkpt>
      <trkpt lat="60.8823240964" lon="15.1464658755">
        <ele>291.8</ele>
        <time>2011-06-22T10:50:30Z</time>
        <extensions><gpxtpx:TrackPointExtension><gpxtpx:hr>142</gpxtpx:hr></gpxtpx:TrackPointExtension></extensions>
      </trkpt>
      <trkpt lat="60.8823165527" lon="15.1465207769">
        <ele>291.8</ele>
        <time>2011-06-22T10:50:33Z</time>
        <extensions><gpxtpx:TrackPointExtension><gpxtpx:hr>144</gpxtpx:hr></gpxtpx:TrackPointExtension></extensions>
      </trkpt>
      <trkpt lat="60.8823220009" lon="15.1466728246">
        <ele>291.8</ele>
        <time>2011-06-22T10:50:38Z</time>
        <extensions><gpxtpx:TrackPointExtension><gpxtpx:hr>145</gpxtpx:hr></gpxtpx:TrackPointExtension></extensions>
      </trkpt>
      <trkpt lat="60.8823215818" lon="15.1466856489">
        <ele>291.8</ele>
        <time>2011-06-22T10:50:39Z</time>
        <extensions><gpxtpx:TrackPointExtension><gpxtpx:hr>146</gpxtpx:hr></gpxtpx:TrackPointExtension></extensions>
      </trkpt>
      <trkpt lat="60.88232242" lon="15.1467527041">
        <ele>291.8</ele>
        <time>2011-06-22T10:50:41Z</time>
        <extensions><gpxtpx:TrackPointExtension><gpxtpx:hr>146</gpxtpx:hr></gpxtpx:TrackPointExtension></extensions>
      </trkpt>
      <trkpt lat="60.8823232582" lon="15.1469478347">
        <ele>291.8</ele>
        <time>2011-06-22T10:50:46Z</time>
        <extensions><gpxtpx:TrackPointExtension><gpxtpx:hr>148</gpxtpx:hr></gpxtpx:TrackPointExtension></extensions>
      </trkpt>
      <trkpt lat="60.8823221685" lon="15.147087561">
        <ele>291.8</ele>
        <time>2011-06-22T10:50:50Z</time>
        <extensions><gpxtpx:TrackPointExtension><gpxtpx:hr>149</gpxtpx:hr></gpxtpx:TrackPointExtension></extensions>
      </trkpt>
      <trkpt lat="60.8823376751" lon="15.1472520139">
        <ele>291.8</ele>
        <time>2011-06-22T10:50:54Z</time>
        <extensions><gpxtpx:TrackPointExtension><gpxtpx:hr>148</gpxtpx:hr></gpxtpx:TrackPointExtension></extensions>
      </trkpt>
      <trkpt lat="60.8823449673" lon="15.1474163829">
        <ele>291.8</ele>
        <time>2011-06-22T10:50:57Z</time>
        <extensions><gpxtpx:TrackPointExtension><gpxtpx:hr>148</gpxtpx:hr></gpxtpx:TrackPointExtension></extensions>
      </trkpt>
      <trkpt lat="60.8823370045" lon="15.1476121841">
        <ele>292</ele>
        <time>2011-06-22T10:51:02Z</time>
        <extensions><gpxtpx:TrackPointExtension><gpxtpx:hr>146</gpxtpx:hr></gpxtpx:TrackPointExtension></extensions>
      </trkpt>
      <trkpt lat="60.8823232582" lon="15.1478258387">
        <ele>292.8</ele>
        <time>2011-06-22T10:51:07Z</time>
        <extensions><gpxtpx:TrackPointExtension><gpxtpx:hr>145</gpxtpx:hr></gpxtpx:TrackPointExtension></extensions>
      </trkpt>
      <trkpt lat="60.8823164689" lon="15.1481041178">
        <ele>293.2</ele>
        <time>2011-06-22T10:51:14Z</time>
        <extensions><gpxtpx:TrackPointExtension><gpxtpx:hr>144</gpxtpx:hr></gpxtpx:TrackPointExtension></extensions>
      </trkpt>
      <trkpt lat="60.8823143734" lon="15.1482979912">
        <ele>293.6</ele>
        <time>2011-06-22T10:51:19Z</time>
        <extensions><gpxtpx:TrackPointExtension><gpxtpx:hr>145</gpxtpx:hr></gpxtpx:TrackPointExtension></extensions>
      </trkpt>
      <trkpt lat="60.8823064106" lon="15.1485222908">
        <ele>294.4</ele>
        <time>2011-06-22T10:51:24Z</time>
        <extensions><gpxtpx:TrackPointExtension><gpxtpx:hr>144</gpxtpx:hr></gpxtpx:TrackPointExtension></extensions>
      </trkpt>
      <trkpt lat="60.8823095957" lon="15.148585658">
        <ele>294.6</ele>
        <time>2011-06-22T10:51:25Z</time>
        <extensions><gpxtpx:TrackPointExtension><gpxtpx:hr>144</gpxtpx:hr></gpxtpx:TrackPointExtension></extensions>
      </trkpt>
      <trkpt lat="60.8823305504" lon="15.1487631028">
        <ele>295.2</ele>
        <time>2011-06-22T10:51:30Z</time>
        <extensions><gpxtpx:TrackPointExtension><gpxtpx:hr>145</gpxtpx:hr></gpxtpx:TrackPointExtension></extensions>
      </trkpt>
      <trkpt lat="60.8823147087" lon="15.1488513642">
        <ele>295.4</ele>
        <time>2011-06-22T10:51:33Z</time>
        <extensions><gpxtpx:TrackPointExtension><gpxtpx:hr>145</gpxtpx:hr></gpxtpx:TrackPointExtension></extensions>
      </trkpt>
      <trkpt lat="60.8823371722" lon="15.1490447346">
        <ele>296</ele>
        <time>2011-06-22T10:51:38Z</time>
        <extensions><gpxtpx:TrackPointExtension><gpxtpx:hr>145</gpxtpx:hr></gpxtpx:TrackPointExtension></extensions>
      </trkpt>
      <trkpt lat="60.8823357472" lon="15.1490645159">
        <ele>296.2</ele>
        <time>2011-06-22T10:51:39Z</time>
        <extensions><gpxtpx:TrackPointExtension><gpxtpx:hr>145</gpxtpx:hr></gpxtpx:TrackPointExtension></extensions>
      </trkpt>
      <trkpt lat="60.8823760642" lon="15.1492726385">
        <ele>297</ele>
        <time>2011-06-22T10:51:44Z</time>
        <extensions><gpxtpx:TrackPointExtension><gpxtpx:hr>145</gpxtpx:hr></gpxtpx:TrackPointExtension></extensions>
      </trkpt>
      <trkpt lat="60.8823663412" lon="15.1495460561">
        <ele>298.4</ele>
        <time>2011-06-22T10:51:51Z</time>
        <extensions><gpxtpx:TrackPointExtension><gpxtpx:hr>146</gpxtpx:hr></gpxtpx:TrackPointExtension></extensions>
      </trkpt>
      <trkpt lat="60.882365503" lon="15.1495833555">
        <ele>298.6</ele>
        <time>2011-06-22T10:51:52Z</time>
        <extensions><gpxtpx:TrackPointExtension><gpxtpx:hr>145</gpxtpx:hr></gpxtpx:TrackPointExtension></extensions>
      </trkpt>
      <trkpt lat="60.8823952587" lon="15.1496519195">
        <ele>298.8</ele>
        <time>2011-06-22T10:51:54Z</time>
        <extensions><gpxtpx:TrackPointExtension><gpxtpx:hr>144</gpxtpx:hr></gpxtpx:TrackPointExtension></extensions>
      </trkpt>
      <trkpt lat="60.8824129445" lon="15.1498777279">
        <ele>300.2</ele>
        <time>2011-06-22T10:52:00Z</time>
        <extensions><gpxtpx:TrackPointExtension><gpxtpx:hr>144</gpxtpx:hr></gpxtpx:TrackPointExtension></extensions>
      </trkpt>
      <trkpt lat="60.8824183928" lon="15.1499048014">
        <ele>300.4</ele>
        <time>2011-06-22T10:52:01Z</time>
        <extensions><gpxtpx:TrackPointExtension><gpxtpx:hr>144</gpxtpx:hr></gpxtpx:TrackPointExtension></extensions>
      </trkpt>
      <trkpt lat="60.8824312171" lon="15.1499944877">
        <ele>301</ele>
        <time>2011-06-22T10:52:03Z</time>
        <extensions><gpxtpx:TrackPointExtension><gpxtpx:hr>144</gpxtpx:hr></gpxtpx:TrackPointExtension></extensions>
      </trkpt>
      <trkpt lat="60.8824674269" lon="15.1501926358">
        <ele>302.4</ele>
        <time>2011-06-22T10:52:09Z</time>
        <extensions><gpxtpx:TrackPointExtension><gpxtpx:hr>152</gpxtpx:hr></gpxtpx:TrackPointExtension></extensions>
      </trkpt>
      <trkpt lat="60.8824756411" lon="15.150224068">
        <ele>302.6</ele>
        <time>2011-06-22T10:52:10Z</time>
        <extensions><gpxtpx:TrackPointExtension><gpxtpx:hr>151</gpxtpx:hr></gpxtpx:TrackPointExtension></extensions>
      </trkpt>
      <trkpt lat="60.8824805026" lon="15.1503587651">
        <ele>303.4</ele>
        <time>2011-06-22T10:52:13Z</time>
        <extensions><gpxtpx:TrackPointExtension><gpxtpx:hr>148</gpxtpx:hr></gpxtpx:TrackPointExtension></extensions>
      </trkpt>
      <trkpt lat="60.8824869567" lon="15.1506102221">
        <ele>304.8</ele>
        <time>2011-06-22T10:52:19Z</time>
        <extensions><gpxtpx:TrackPointExtension><gpxtpx:hr>145</gpxtpx:hr></gpxtpx:TrackPointExtension></extensions>
      </trkpt>
      <trkpt lat="60.882479413" lon="15.1506526345">
        <ele>305</ele>
        <time>2011-06-22T10:52:20Z</time>
        <extensions><gpxtpx:TrackPointExtension><gpxtpx:hr>145</gpxtpx:hr></gpxtpx:TrackPointExtension></extensions>
      </trkpt>
      <trkpt lat="60.8824879625" lon="15.1507815481">
        <ele>306</ele>
        <time>2011-06-22T10:52:23Z</time>
        <extensions><gpxtpx:TrackPointExtension><gpxtpx:hr>144</gpxtpx:hr></gpxtpx:TrackPointExtension></extensions>
      </trkpt>
      <trkpt lat="60.8824918182" lon="15.1508595836">
        <ele>306.6</ele>
        <time>2011-06-22T10:52:25Z</time>
        <extensions><gpxtpx:TrackPointExtension><gpxtpx:hr>143</gpxtpx:hr></gpxtpx:TrackPointExtension></extensions>
      </trkpt>
      <trkpt lat="60.8825237532" lon="15.1510291495">
        <ele>307.4</ele>
        <time>2011-06-22T10:52:30Z</time>
        <extensions><gpxtpx:TrackPointExtension><gpxtpx:hr>143</gpxtpx:hr></gpxtpx:TrackPointExtension></extensions>
      </trkpt>
      <trkpt lat="60.8825721168" lon="15.1513137988">
        <ele>309</ele>
        <time>2011-06-22T10:52:36Z</time>
        <extensions><gpxtpx:TrackPointExtension><gpxtpx:hr>142</gpxtpx:hr></gpxtpx:TrackPointExtension></extensions>
      </trkpt>
      <trkpt lat="60.8825889644" lon="15.1513810216">
        <ele>309.2</ele>
        <time>2011-06-22T10:52:37Z</time>
        <extensions><gpxtpx:TrackPointExtension><gpxtpx:hr>142</gpxtpx:hr></gpxtpx:TrackPointExtension></extensions>
      </trkpt>
      <trkpt lat="60.8826167923" lon="15.1515722128">
        <ele>309.8</ele>
        <time>2011-06-22T10:52:42Z</time>
        <extensions><gpxtpx:TrackPointExtension><gpxtpx:hr>141</gpxtpx:hr></gpxtpx:TrackPointExtension></extensions>
      </trkpt>
      <trkpt lat="60.8826514934" lon="15.1517415271">
        <ele>310.8</ele>
        <time>2011-06-22T10:52:46Z</time>
        <extensions><gpxtpx:TrackPointExtension><gpxtpx:hr>143</gpxtpx:hr></gpxtpx:TrackPointExtension></extensions>
      </trkpt>
      <trkpt lat="60.8826949955" lon="15.1518718657">
        <ele>311.4</ele>
        <time>2011-06-22T10:52:49Z</time>
        <extensions><gpxtpx:TrackPointExtension><gpxtpx:hr>142</gpxtpx:hr></gpxtpx:TrackPointExtension></extensions>
      </trkpt>
      <trkpt lat="60.8827301994" lon="15.1522073931">
        <ele>312.2</ele>
        <time>2011-06-22T10:52:57Z</time>
        <extensions><gpxtpx:TrackPointExtension><gpxtpx:hr>143</gpxtpx:hr></gpxtpx:TrackPointExtension></extensions>
      </trkpt>
      <trkpt lat="60.8828367334" lon="15.1525776217">
        <ele>313.4</ele>
        <time>2011-06-22T10:53:05Z</time>
        <extensions><gpxtpx:TrackPointExtension><gpxtpx:hr>141</gpxtpx:hr></gpxtpx:TrackPointExtension></extensions>
      </trkpt>
      <trkpt lat="60.8829192951" lon="15.1528543082">
        <ele>314.2</ele>
        <time>2011-06-22T10:53:11Z</time>
        <extensions><gpxtpx:TrackPointExtension><gpxtpx:hr>141</gpxtpx:hr></gpxtpx:TrackPointExtension></extensions>
      </trkpt>
      <trkpt lat="60.8829829975" lon="15.153095204">
        <ele>314.4</ele>
        <time>2011-06-22T10:53:16Z</time>
        <extensions><gpxtpx:TrackPointExtension><gpxtpx:hr>141</gpxtpx:hr></gpxtpx:TrackPointExtension></extensions>
      </trkpt>
      <trkpt lat="60.8830725162" lon="15.1534408735">
        <ele>314.8</ele>
        <time>2011-06-22T10:53:23Z</time>
        <extensions><gpxtpx:TrackPointExtension><gpxtpx:hr>141</gpxtpx:hr></gpxtpx:TrackPointExtension></extensions>
      </trkpt>
      <trkpt lat="60.8830777968" lon="15.1534631694">
        <ele>315</ele>
        <time>2011-06-22T10:53:24Z</time>
        <extensions><gpxtpx:TrackPointExtension><gpxtpx:hr>141</gpxtpx:hr></gpxtpx:TrackPointExtension></extensions>
      </trkpt>
      <trkpt lat="60.8831187843" lon="15.1536225093">
        <ele>315.6</ele>
        <time>2011-06-22T10:53:28Z</time>
        <extensions><gpxtpx:TrackPointExtension><gpxtpx:hr>140</gpxtpx:hr></gpxtpx:TrackPointExtension></extensions>
      </trkpt>
      <trkpt lat="60.8831281721" lon="15.1536553664">
        <ele>315.8</ele>
        <time>2011-06-22T10:53:29Z</time>
        <extensions><gpxtpx:TrackPointExtension><gpxtpx:hr>140</gpxtpx:hr></gpxtpx:TrackPointExtension></extensions>
      </trkpt>
      <trkpt lat="60.883245351" lon="15.1539158758">
        <ele>316.4</ele>
        <time>2011-06-22T10:53:36Z</time>
        <extensions><gpxtpx:TrackPointExtension><gpxtpx:hr>141</gpxtpx:hr></gpxtpx:TrackPointExtension></extensions>
      </trkpt>
      <trkpt lat="60.8832827343" lon="15.153961641">
        <ele>316.6</ele>
        <time>2011-06-22T10:53:38Z</time>
        <extensions><gpxtpx:TrackPointExtension><gpxtpx:hr>142</gpxtpx:hr></gpxtpx:TrackPointExtension></extensions>
      </trkpt>
      <trkpt lat="60.8833474426" lon="15.1540809992">
        <ele>316.6</ele>
        <time>2011-06-22T10:53:42Z</time>
        <extensions><gpxtpx:TrackPointExtension><gpxtpx:hr>142</gpxtpx:hr></gpxtpx:TrackPointExtension></extensions>
      </trkpt>
      <trkpt lat="60.8833955547" lon="15.1542057219">
        <ele>316.8</ele>
        <time>2011-06-22T10:53:45Z</time>
        <extensions><gpxtpx:TrackPointExtension><gpxtpx:hr>142</gpxtpx:hr></gpxtpx:TrackPointExtension></extensions>
      </trkpt>
      <trkpt lat="60.8834527192" lon="15.154372857">
        <ele>316.8</ele>
        <time>2011-06-22T10:53:51Z</time>
        <extensions><gpxtpx:TrackPointExtension><gpxtpx:hr>141</gpxtpx:hr></gpxtpx:TrackPointExtension></extensions>
      </trkpt>
      <trkpt lat="60.8834557367" lon="15.1544131739">
        <ele>317.2</ele>
        <time>2011-06-22T10:53:52Z</time>
        <extensions><gpxtpx:TrackPointExtension><gpxtpx:hr>141</gpxtpx:hr></gpxtpx:TrackPointExtension></extensions>
      </trkpt>
      <trkpt lat="60.8834849895" lon="15.1545062968">
        <ele>317.6</ele>
        <time>2011-06-22T10:53:55Z</time>
        <extensions><gpxtpx:TrackPointExtension><gpxtpx:hr>139</gpxtpx:hr></gpxtpx:TrackPointExtension></extensions>
      </trkpt>
      <trkpt lat="60.8834952155" lon="15.154527084">
        <ele>317.8</ele>
        <time>2011-06-22T10:53:56Z</time>
        <extensions><gpxtpx:TrackPointExtension><gpxtpx:hr>139</gpxtpx:hr></gpxtpx:TrackPointExtension></extensions>
      </trkpt>
      <trkpt lat="60.8835837283" lon="15.1547991604">
        <ele>318.4</ele>
        <time>2011-06-22T10:54:03Z</time>
        <extensions><gpxtpx:TrackPointExtension><gpxtpx:hr>139</gpxtpx:hr></gpxtpx:TrackPointExtension></extensions>
      </trkpt>
      <trkpt lat="60.8836746719" lon="15.1550865758">
        <ele>319</ele>
        <time>2011-06-22T10:54:09Z</time>
        <extensions><gpxtpx:TrackPointExtension><gpxtpx:hr>139</gpxtpx:hr></gpxtpx:TrackPointExtension></extensions>
      </trkpt>
      <trkpt lat="60.8836957105" lon="15.1551571514">
        <ele>319.4</ele>
        <time>2011-06-22T10:54:11Z</time>
        <extensions><gpxtpx:TrackPointExtension><gpxtpx:hr>139</gpxtpx:hr></gpxtpx:TrackPointExtension></extensions>
      </trkpt>
      <trkpt lat="60.8837263883" lon="15.1555202553">
        <ele>320.6</ele>
        <time>2011-06-22T10:54:18Z</time>
        <extensions><gpxtpx:TrackPointExtension><gpxtpx:hr>136</gpxtpx:hr></gpxtpx:TrackPointExtension></extensions>
      </trkpt>
      <trkpt lat="60.8837276455" lon="15.1557289646">
        <ele>321.6</ele>
        <time>2011-06-22T10:54:23Z</time>
        <extensions><gpxtpx:TrackPointExtension><gpxtpx:hr>135</gpxtpx:hr></gpxtpx:TrackPointExtension></extensions>
      </trkpt>
      <trkpt lat="60.883764945" lon="15.1559782423">
        <ele>323.4</ele>
        <time>2011-06-22T10:54:30Z</time>
        <extensions><gpxtpx:TrackPointExtension><gpxtpx:hr>136</gpxtpx:hr></gpxtpx:TrackPointExtension></extensions>
      </trkpt>
      <trkpt lat="60.883776512" lon="15.1560108479">
        <ele>323.6</ele>
        <time>2011-06-22T10:54:31Z</time>
        <extensions><gpxtpx:TrackPointExtension><gpxtpx:hr>136</gpxtpx:hr></gpxtpx:TrackPointExtension></extensions>
      </trkpt>
      <trkpt lat="60.8838307429" lon="15.1561688467">
        <ele>325</ele>
        <time>2011-06-22T10:54:36Z</time>
        <extensions><gpxtpx:TrackPointExtension><gpxtpx:hr>137</gpxtpx:hr></gpxtpx:TrackPointExtension></extensions>
      </trkpt>
      <trkpt lat="60.8838947806" lon="15.1564192979">
        <ele>326.4</ele>
        <time>2011-06-22T10:54:43Z</time>
        <extensions><gpxtpx:TrackPointExtension><gpxtpx:hr>136</gpxtpx:hr></gpxtpx:TrackPointExtension></extensions>
      </trkpt>
      <trkpt lat="60.8839284759" lon="15.1565891152">
        <ele>327.8</ele>
        <time>2011-06-22T10:54:48Z</time>
        <extensions><gpxtpx:TrackPointExtension><gpxtpx:hr>138</gpxtpx:hr></gpxtpx:TrackPointExtension></extensions>
      </trkpt>
      <trkpt lat="60.8839549627" lon="15.1566569248">
        <ele>328</ele>
        <time>2011-06-22T10:54:50Z</time>
        <extensions><gpxtpx:TrackPointExtension><gpxtpx:hr>138</gpxtpx:hr></gpxtpx:TrackPointExtension></extensions>
      </trkpt>
      <trkpt lat="60.8840062599" lon="15.1567943879">
        <ele>328.8</ele>
        <time>2011-06-22T10:54:54Z</time>
        <extensions><gpxtpx:TrackPointExtension><gpxtpx:hr>137</gpxtpx:hr></gpxtpx:TrackPointExtension></extensions>
      </trkpt>
      <trkpt lat="60.8841288033" lon="15.1570243872">
        <ele>330.6</ele>
        <time>2011-06-22T10:55:02Z</time>
        <extensions><gpxtpx:TrackPointExtension><gpxtpx:hr>138</gpxtpx:hr></gpxtpx:TrackPointExtension></extensions>
      </trkpt>
      <trkpt lat="60.8842433" lon="15.1572235412">
        <ele>331.2</ele>
        <time>2011-06-22T10:55:09Z</time>
        <extensions><gpxtpx:TrackPointExtension><gpxtpx:hr>137</gpxtpx:hr></gpxtpx:TrackPointExtension></extensions>
      </trkpt>
      <trkpt lat="60.8843347466" lon="15.1573000679">
        <ele>331.4</ele>
        <time>2011-06-22T10:55:12Z</time>
        <extensions><gpxtpx:TrackPointExtension><gpxtpx:hr>137</gpxtpx:hr></gpxtpx:TrackPointExtension></extensions>
      </trkpt>
      <trkpt lat="60.8844325633" lon="15.1574618386">
        <ele>331.6</ele>
        <time>2011-06-22T10:55:17Z</time>
        <extensions><gpxtpx:TrackPointExtension><gpxtpx:hr>136</gpxtpx:hr></gpxtpx:TrackPointExtension></extensions>
      </trkpt>
      <trkpt lat="60.8844858722" lon="15.1576718052">
        <ele>332.4</ele>
        <time>2011-06-22T10:55:22Z</time>
        <extensions><gpxtpx:TrackPointExtension><gpxtpx:hr>138</gpxtpx:hr></gpxtpx:TrackPointExtension></extensions>
      </trkpt>
      <trkpt lat="60.8844924101" lon="15.1579298839">
        <ele>332.8</ele>
        <time>2011-06-22T10:55:26Z</time>
        <extensions><gpxtpx:TrackPointExtension><gpxtpx:hr>137</gpxtpx:hr></gpxtpx:TrackPointExtension></extensions>
      </trkpt>
      <trkpt lat="60.8844722935" lon="15.158030802">
        <ele>333</ele>
        <time>2011-06-22T10:55:28Z</time>
        <extensions><gpxtpx:TrackPointExtension><gpxtpx:hr>135</gpxtpx:hr></gpxtpx:TrackPointExtension></extensions>
      </trkpt>
      <trkpt lat="60.8844553621" lon="15.1583629767">
        <ele>333.6</ele>
        <time>2011-06-22T10:55:33Z</time>
        <extensions><gpxtpx:TrackPointExtension><gpxtpx:hr>133</gpxtpx:hr></gpxtpx:TrackPointExtension></extensions>
      </trkpt>
      <trkpt lat="60.8844422863" lon="15.1585639746">
        <ele>334.4</ele>
        <time>2011-06-22T10:55:38Z</time>
        <extensions><gpxtpx:TrackPointExtension><gpxtpx:hr>135</gpxtpx:hr></gpxtpx:TrackPointExtension></extensions>
      </trkpt>
      <trkpt lat="60.8844412805" lon="15.1585827501">
        <ele>334.6</ele>
        <time>2011-06-22T10:55:39Z</time>
        <extensions><gpxtpx:TrackPointExtension><gpxtpx:hr>135</gpxtpx:hr></gpxtpx:TrackPointExtension></extensions>
      </trkpt>
      <trkpt lat="60.8845480659" lon="15.1588368055">
        <ele>335.2</ele>
        <time>2011-06-22T10:55:45Z</time>
        <extensions><gpxtpx:TrackPointExtension><gpxtpx:hr>133</gpxtpx:hr></gpxtpx:TrackPointExtension></extensions>
      </trkpt>
      <trkpt lat="60.8845820964" lon="15.1588947244">
        <ele>335.4</ele>
        <time>2011-06-22T10:55:47Z</time>
        <extensions><gpxtpx:TrackPointExtension><gpxtpx:hr>130</gpxtpx:hr></gpxtpx:TrackPointExtension></extensions>
      </trkpt>
      <trkpt lat="60.8846001175" lon="15.1589311857">
        <ele>335.4</ele>
        <time>2011-06-22T10:55:49Z</time>
        <extensions><gpxtpx:TrackPointExtension><gpxtpx:hr>129</gpxtpx:hr></gpxtpx:TrackPointExtension></extensions>
      </trkpt>
      <trkpt lat="60.8846980181" lon="15.1589918706">
        <ele>335.8</ele>
        <time>2011-06-22T10:55:53Z</time>
        <extensions><gpxtpx:TrackPointExtension><gpxtpx:hr>127</gpxtpx:hr></gpxtpx:TrackPointExtension></extensions>
      </trkpt>
      <trkpt lat="60.8847455435" lon="15.159039396">
        <ele>336.2</ele>
        <time>2011-06-22T10:55:55Z</time>
        <extensions><gpxtpx:TrackPointExtension><gpxtpx:hr>127</gpxtpx:hr></gpxtpx:TrackPointExtension></extensions>
      </trkpt>
      <trkpt lat="60.8848579448" lon="15.1592742568">
        <ele>337</ele>
        <time>2011-06-22T10:56:02Z</time>
        <extensions><gpxtpx:TrackPointExtension><gpxtpx:hr>127</gpxtpx:hr></gpxtpx:TrackPointExtension></extensions>
      </trkpt>
      <trkpt lat="60.8849144388" lon="15.1594050145">
        <ele>337.4</ele>
        <time>2011-06-22T10:56:06Z</time>
        <extensions><gpxtpx:TrackPointExtension><gpxtpx:hr>125</gpxtpx:hr></gpxtpx:TrackPointExtension></extensions>
      </trkpt>
      <trkpt lat="60.8849458709" lon="15.1594718182">
        <ele>337.4</ele>
        <time>2011-06-22T10:56:08Z</time>
        <extensions><gpxtpx:TrackPointExtension><gpxtpx:hr>125</gpxtpx:hr></gpxtpx:TrackPointExtension></extensions>
      </trkpt>
      <trkpt lat="60.885045867" lon="15.1596360196">
        <ele>337.6</ele>
        <time>2011-06-22T10:56:13Z</time>
        <extensions><gpxtpx:TrackPointExtension><gpxtpx:hr>124</gpxtpx:hr></gpxtpx:TrackPointExtension></extensions>
      </trkpt>
      <trkpt lat="60.8850956554" lon="15.1597125464">
        <ele>337.8</ele>
        <time>2011-06-22T10:56:16Z</time>
        <extensions><gpxtpx:TrackPointExtension><gpxtpx:hr>133</gpxtpx:hr></gpxtpx:TrackPointExtension></extensions>
      </trkpt>
      <trkpt lat="60.8851137603" lon="15.1597353452">
        <ele>337.8</ele>
        <time>2011-06-22T10:56:17Z</time>
        <extensions><gpxtpx:TrackPointExtension><gpxtpx:hr>133</gpxtpx:hr></gpxtpx:TrackPointExtension></extensions>
      </trkpt>
      <trkpt lat="60.885166231" lon="15.1597635922">
        <ele>337.8</ele>
        <time>2011-06-22T10:56:20Z</time>
        <extensions><gpxtpx:TrackPointExtension><gpxtpx:hr>128</gpxtpx:hr></gpxtpx:TrackPointExtension></extensions>
      </trkpt>
      <trkpt lat="60.8851876887" lon="15.1597739019">
        <ele>337.8</ele>
        <time>2011-06-22T10:56:21Z</time>
        <extensions><gpxtpx:TrackPointExtension><gpxtpx:hr>128</gpxtpx:hr></gpxtpx:TrackPointExtension></extensions>
      </trkpt>
      <trkpt lat="60.8852275027" lon="15.1599784203">
        <ele>337.8</ele>
        <time>2011-06-22T10:56:26Z</time>
        <extensions><gpxtpx:TrackPointExtension><gpxtpx:hr>124</gpxtpx:hr></gpxtpx:TrackPointExtension></extensions>
      </trkpt>
      <trkpt lat="60.885229682" lon="15.1600195754">
        <ele>337.8</ele>
        <time>2011-06-22T10:56:27Z</time>
        <extensions><gpxtpx:TrackPointExtension><gpxtpx:hr>121</gpxtpx:hr></gpxtpx:TrackPointExtension></extensions>
      </trkpt>
      <trkpt lat="60.8852301011" lon="15.1600459784">
        <ele>337.8</ele>
        <time>2011-06-22T10:56:28Z</time>
        <extensions><gpxtpx:TrackPointExtension><gpxtpx:hr>119</gpxtpx:hr></gpxtpx:TrackPointExtension></extensions>
      </trkpt>
      <trkpt lat="60.8852108227" lon="15.1601380955">
        <ele>337.8</ele>
        <time>2011-06-22T10:56:32Z</time>
        <extensions><gpxtpx:TrackPointExtension><gpxtpx:hr>120</gpxtpx:hr></gpxtpx:TrackPointExtension></extensions>
      </trkpt>
      <trkpt lat="60.8851585197" lon="15.160297603">
        <ele>337.8</ele>
        <time>2011-06-22T10:56:38Z</time>
        <extensions><gpxtpx:TrackPointExtension><gpxtpx:hr>124</gpxtpx:hr></gpxtpx:TrackPointExtension></extensions>
      </trkpt>
      <trkpt lat="60.885128261" lon="15.1603950845">
        <ele>337.8</ele>
        <time>2011-06-22T10:56:42Z</time>
        <extensions><gpxtpx:TrackPointExtension><gpxtpx:hr>124</gpxtpx:hr></gpxtpx:TrackPointExtension></extensions>
      </trkpt>
      <trkpt lat="60.8850553385" lon="15.1604985172">
        <ele>337.2</ele>
        <time>2011-06-22T10:56:47Z</time>
        <extensions><gpxtpx:TrackPointExtension><gpxtpx:hr>126</gpxtpx:hr></gpxtpx:TrackPointExtension></extensions>
      </trkpt>
      <trkpt lat="60.8850413407" lon="15.1604938233">
        <ele>337</ele>
        <time>2011-06-22T10:56:48Z</time>
        <extensions><gpxtpx:TrackPointExtension><gpxtpx:hr>127</gpxtpx:hr></gpxtpx:TrackPointExtension></extensions>
      </trkpt>
      <trkpt lat="60.8850306119" lon="15.1605427736">
        <ele>337</ele>
        <time>2011-06-22T10:56:49Z</time>
        <extensions><gpxtpx:TrackPointExtension><gpxtpx:hr>128</gpxtpx:hr></gpxtpx:TrackPointExtension></extensions>
      </trkpt>
      <trkpt lat="60.8850085675" lon="15.1606659875">
        <ele>336.6</ele>
        <time>2011-06-22T10:56:53Z</time>
        <extensions><gpxtpx:TrackPointExtension><gpxtpx:hr>133</gpxtpx:hr></gpxtpx:TrackPointExtension></extensions>
      </trkpt>
      <trkpt lat="60.8850016105" lon="15.1606928934">
        <ele>336.6</ele>
        <time>2011-06-22T10:56:54Z</time>
        <extensions><gpxtpx:TrackPointExtension><gpxtpx:hr>133</gpxtpx:hr></gpxtpx:TrackPointExtension></extensions>
      </trkpt>
      <trkpt lat="60.8849765486" lon="15.1607586913">
        <ele>336.4</ele>
        <time>2011-06-22T10:56:56Z</time>
        <extensions><gpxtpx:TrackPointExtension><gpxtpx:hr>133</gpxtpx:hr></gpxtpx:TrackPointExtension></extensions>
      </trkpt>
      <trkpt lat="60.8849048834" lon="15.1608618725">
        <ele>336.2</ele>
        <time>2011-06-22T10:57:01Z</time>
        <extensions><gpxtpx:TrackPointExtension><gpxtpx:hr>135</gpxtpx:hr></gpxtpx:TrackPointExtension></extensions>
      </trkpt>
      <trkpt lat="60.8848696794" lon="15.1609289277">
        <ele>336</ele>
        <time>2011-06-22T10:57:05Z</time>
        <extensions><gpxtpx:TrackPointExtension><gpxtpx:hr>135</gpxtpx:hr></gpxtpx:TrackPointExtension></extensions>
      </trkpt>
      <trkpt lat="60.8848354813" lon="15.1610085558">
        <ele>336</ele>
        <time>2011-06-22T10:57:08Z</time>
        <extensions><gpxtpx:TrackPointExtension><gpxtpx:hr>136</gpxtpx:hr></gpxtpx:TrackPointExtension></extensions>
      </trkpt>
      <trkpt lat="60.8847818371" lon="15.1612093861">
        <ele>336</ele>
        <time>2011-06-22T10:57:15Z</time>
        <extensions><gpxtpx:TrackPointExtension><gpxtpx:hr>138</gpxtpx:hr></gpxtpx:TrackPointExtension></extensions>
      </trkpt>
      <trkpt lat="60.8847748801" lon="15.1612386389">
        <ele>336</ele>
        <time>2011-06-22T10:57:16Z</time>
        <extensions><gpxtpx:TrackPointExtension><gpxtpx:hr>138</gpxtpx:hr></gpxtpx:TrackPointExtension></extensions>
      </trkpt>
      <trkpt lat="60.8847422745" lon="15.1613143275">
        <ele>336.4</ele>
        <time>2011-06-22T10:57:19Z</time>
        <extensions><gpxtpx:TrackPointExtension><gpxtpx:hr>139</gpxtpx:hr></gpxtpx:TrackPointExtension></extensions>
      </trkpt>
      <trkpt lat="60.884715201" lon="15.1613631101">
        <ele>336.6</ele>
        <time>2011-06-22T10:57:21Z</time>
        <extensions><gpxtpx:TrackPointExtension><gpxtpx:hr>138</gpxtpx:hr></gpxtpx:TrackPointExtension></extensions>
      </trkpt>
      <trkpt lat="60.8846836851" lon="15.1615304967">
        <ele>337.2</ele>
        <time>2011-06-22T10:57:26Z</time>
        <extensions><gpxtpx:TrackPointExtension><gpxtpx:hr>139</gpxtpx:hr></gpxtpx:TrackPointExtension></extensions>
      </trkpt>
      <trkpt lat="60.8846667536" lon="15.1616813709">
        <ele>338.4</ele>
        <time>2011-06-22T10:57:31Z</time>
        <extensions><gpxtpx:TrackPointExtension><gpxtpx:hr>141</gpxtpx:hr></gpxtpx:TrackPointExtension></extensions>
      </trkpt>
      <trkpt lat="60.884656863" lon="15.1617367752">
        <ele>338.6</ele>
        <time>2011-06-22T10:57:33Z</time>
        <extensions><gpxtpx:TrackPointExtension><gpxtpx:hr>142</gpxtpx:hr></gpxtpx:TrackPointExtension></extensions>
      </trkpt>
      <trkpt lat="60.8846224972" lon="15.1618516073">
        <ele>340</ele>
        <time>2011-06-22T10:57:38Z</time>
        <extensions><gpxtpx:TrackPointExtension><gpxtpx:hr>144</gpxtpx:hr></gpxtpx:TrackPointExtension></extensions>
      </trkpt>
      <trkpt lat="60.8845727087" lon="15.1620037388">
        <ele>341</ele>
        <time>2011-06-22T10:57:44Z</time>
        <extensions><gpxtpx:TrackPointExtension><gpxtpx:hr>145</gpxtpx:hr></gpxtpx:TrackPointExtension></extensions>
      </trkpt>
      <trkpt lat="60.8845442941" lon="15.1621282938">
        <ele>341.4</ele>
        <time>2011-06-22T10:57:48Z</time>
        <extensions><gpxtpx:TrackPointExtension><gpxtpx:hr>146</gpxtpx:hr></gpxtpx:TrackPointExtension></extensions>
      </trkpt>
      <trkpt lat="60.8845292066" lon="15.1622121128">
        <ele>342</ele>
        <time>2011-06-22T10:57:51Z</time>
        <extensions><gpxtpx:TrackPointExtension><gpxtpx:hr>147</gpxtpx:hr></gpxtpx:TrackPointExtension></extensions>
      </trkpt>
      <trkpt lat="60.8845111017" lon="15.1623593828">
        <ele>343</ele>
        <time>2011-06-22T10:57:56Z</time>
        <extensions><gpxtpx:TrackPointExtension><gpxtpx:hr>147</gpxtpx:hr></gpxtpx:TrackPointExtension></extensions>
      </trkpt>
      <trkpt lat="60.8844439627" lon="15.1625395936">
        <ele>343.6</ele>
        <time>2011-06-22T10:58:03Z</time>
        <extensions><gpxtpx:TrackPointExtension><gpxtpx:hr>147</gpxtpx:hr></gpxtpx:TrackPointExtension></extensions>
      </trkpt>
      <trkpt lat="60.8843555337" lon="15.1626733688">
        <ele>343.8</ele>
        <time>2011-06-22T10:58:08Z</time>
        <extensions><gpxtpx:TrackPointExtension><gpxtpx:hr>146</gpxtpx:hr></gpxtpx:TrackPointExtension></extensions>
      </trkpt>
      <trkpt lat="60.8843422064" lon="15.1627040465">
        <ele>344</ele>
        <time>2011-06-22T10:58:09Z</time>
        <extensions><gpxtpx:TrackPointExtension><gpxtpx:hr>146</gpxtpx:hr></gpxtpx:TrackPointExtension></extensions>
      </trkpt>
      <trkpt lat="60.8843161387" lon="15.1627633065">
        <ele>344</ele>
        <time>2011-06-22T10:58:11Z</time>
        <extensions><gpxtpx:TrackPointExtension><gpxtpx:hr>146</gpxtpx:hr></gpxtpx:TrackPointExtension></extensions>
      </trkpt>
      <trkpt lat="60.8843079245" lon="15.1628648952">
        <ele>344</ele>
        <time>2011-06-22T10:58:14Z</time>
        <extensions><gpxtpx:TrackPointExtension><gpxtpx:hr>146</gpxtpx:hr></gpxtpx:TrackPointExtension></extensions>
      </trkpt>
      <trkpt lat="60.8842667693" lon="15.1630884404">
        <ele>344.2</ele>
        <time>2011-06-22T10:58:21Z</time>
        <extensions><gpxtpx:TrackPointExtension><gpxtpx:hr>143</gpxtpx:hr></gpxtpx:TrackPointExtension></extensions>
      </trkpt>
      <trkpt lat="60.8842781687" lon="15.163120124">
        <ele>344.6</ele>
        <time>2011-06-22T10:58:23Z</time>
        <extensions><gpxtpx:TrackPointExtension><gpxtpx:hr>143</gpxtpx:hr></gpxtpx:TrackPointExtension></extensions>
      </trkpt>
      <trkpt lat="60.8843158873" lon="15.1631391509">
        <ele>345</ele>
        <time>2011-06-22T10:58:26Z</time>
        <extensions><gpxtpx:TrackPointExtension><gpxtpx:hr>142</gpxtpx:hr></gpxtpx:TrackPointExtension></extensions>
      </trkpt>
      <trkpt lat="60.8843677712" lon="15.1632234728">
        <ele>345.6</ele>
        <time>2011-06-22T10:58:32Z</time>
        <extensions><gpxtpx:TrackPointExtension><gpxtpx:hr>141</gpxtpx:hr></gpxtpx:TrackPointExtension></extensions>
      </trkpt>
      <trkpt lat="60.8844085073" lon="15.1633237204">
        <ele>345.8</ele>
        <time>2011-06-22T10:58:37Z</time>
        <extensions><gpxtpx:TrackPointExtension><gpxtpx:hr>142</gpxtpx:hr></gpxtpx:TrackPointExtension></extensions>
      </trkpt>
      <trkpt lat="60.8844008797" lon="15.1633767778">
        <ele>346</ele>
        <time>2011-06-22T10:58:39Z</time>
        <extensions><gpxtpx:TrackPointExtension><gpxtpx:hr>143</gpxtpx:hr></gpxtpx:TrackPointExtension></extensions>
      </trkpt>
      <trkpt lat="60.8843961859" lon="15.1634043543">
        <ele>346</ele>
        <time>2011-06-22T10:58:40Z</time>
        <extensions><gpxtpx:TrackPointExtension><gpxtpx:hr>143</gpxtpx:hr></gpxtpx:TrackPointExtension></extensions>
      </trkpt>
      <trkpt lat="60.8843524324" lon="15.1634726667">
        <ele>346.2</ele>
        <time>2011-06-22T10:58:45Z</time>
        <extensions><gpxtpx:TrackPointExtension><gpxtpx:hr>143</gpxtpx:hr></gpxtpx:TrackPointExtension></extensions>
      </trkpt>
      <trkpt lat="60.8843455592" lon="15.1634899335">
        <ele>346.2</ele>
        <time>2011-06-22T10:58:46Z</time>
        <extensions><gpxtpx:TrackPointExtension><gpxtpx:hr>143</gpxtpx:hr></gpxtpx:TrackPointExtension></extensions>
      </trkpt>
      <trkpt lat="60.8843420388" lon="15.1635181805">
        <ele>346.4</ele>
        <time>2011-06-22T10:58:48Z</time>
        <extensions><gpxtpx:TrackPointExtension><gpxtpx:hr>142</gpxtpx:hr></gpxtpx:TrackPointExtension></extensions>
      </trkpt>
      <trkpt lat="60.884291496" lon="15.16372865">
        <ele>347.4</ele>
        <time>2011-06-22T10:58:55Z</time>
        <extensions><gpxtpx:TrackPointExtension><gpxtpx:hr>142</gpxtpx:hr></gpxtpx:TrackPointExtension></extensions>
      </trkpt>
      <trkpt lat="60.8842802642" lon="15.1637649436">
        <ele>347.4</ele>
        <time>2011-06-22T10:58:56Z</time>
        <extensions><gpxtpx:TrackPointExtension><gpxtpx:hr>142</gpxtpx:hr></gpxtpx:TrackPointExtension></extensions>
      </trkpt>
      <trkpt lat="60.8842696192" lon="15.1638790212">
        <ele>347.6</ele>
        <time>2011-06-22T10:58:59Z</time>
        <extensions><gpxtpx:TrackPointExtension><gpxtpx:hr>142</gpxtpx:hr></gpxtpx:TrackPointExtension></extensions>
      </trkpt>
      <trkpt lat="60.8842361754" lon="15.164018999">
        <ele>348</ele>
        <time>2011-06-22T10:59:04Z</time>
        <extensions><gpxtpx:TrackPointExtension><gpxtpx:hr>142</gpxtpx:hr></gpxtpx:TrackPointExtension></extensions>
      </trkpt>
      <trkpt lat="60.8842036536" lon="15.1641763272">
        <ele>348</ele>
        <time>2011-06-22T10:59:09Z</time>
        <extensions><gpxtpx:TrackPointExtension><gpxtpx:hr>143</gpxtpx:hr></gpxtpx:TrackPointExtension></extensions>
      </trkpt>
      <trkpt lat="60.8842038213" lon="15.164193091">
        <ele>348.2</ele>
        <time>2011-06-22T10:59:10Z</time>
        <extensions><gpxtpx:TrackPointExtension><gpxtpx:hr>143</gpxtpx:hr></gpxtpx:TrackPointExtension></extensions>
      </trkpt>
      <trkpt lat="60.8841711319" lon="15.164432059">
        <ele>349</ele>
        <time>2011-06-22T10:59:15Z</time>
        <extensions><gpxtpx:TrackPointExtension><gpxtpx:hr>142</gpxtpx:hr></gpxtpx:TrackPointExtension></extensions>
      </trkpt>
      <trkpt lat="60.8841702099" lon="15.1645189793">
        <ele>349.2</ele>
        <time>2011-06-22T10:59:17Z</time>
        <extensions><gpxtpx:TrackPointExtension><gpxtpx:hr>143</gpxtpx:hr></gpxtpx:TrackPointExtension></extensions>
      </trkpt>
      <trkpt lat="60.884263249" lon="15.1646927361">
        <ele>350.6</ele>
        <time>2011-06-22T10:59:25Z</time>
        <extensions><gpxtpx:TrackPointExtension><gpxtpx:hr>144</gpxtpx:hr></gpxtpx:TrackPointExtension></extensions>
      </trkpt>
      <trkpt lat="60.8842758218" lon="15.1647173789">
        <ele>350.8</ele>
        <time>2011-06-22T10:59:26Z</time>
        <extensions><gpxtpx:TrackPointExtension><gpxtpx:hr>144</gpxtpx:hr></gpxtpx:TrackPointExtension></extensions>
      </trkpt>
      <trkpt lat="60.8843371773" lon="15.1648496453">
        <ele>352</ele>
        <time>2011-06-22T10:59:32Z</time>
        <extensions><gpxtpx:TrackPointExtension><gpxtpx:hr>146</gpxtpx:hr></gpxtpx:TrackPointExtension></extensions>
      </trkpt>
      <trkpt lat="60.8844069985" lon="15.1649332128">
        <ele>353</ele>
        <time>2011-06-22T10:59:37Z</time>
        <extensions><gpxtpx:TrackPointExtension><gpxtpx:hr>146</gpxtpx:hr></gpxtpx:TrackPointExtension></extensions>
      </trkpt>
      <trkpt lat="60.8844157995" lon="15.1649457018">
        <ele>353.2</ele>
        <time>2011-06-22T10:59:38Z</time>
        <extensions><gpxtpx:TrackPointExtension><gpxtpx:hr>146</gpxtpx:hr></gpxtpx:TrackPointExtension></extensions>
      </trkpt>
      <trkpt lat="60.8844357485" lon="15.1649644773">
        <ele>353.4</ele>
        <time>2011-06-22T10:59:39Z</time>
        <extensions><gpxtpx:TrackPointExtension><gpxtpx:hr>147</gpxtpx:hr></gpxtpx:TrackPointExtension></extensions>
      </trkpt>
      <trkpt lat="60.8845038095" lon="15.1650087337">
        <ele>353.8</ele>
        <time>2011-06-22T10:59:44Z</time>
        <extensions><gpxtpx:TrackPointExtension><gpxtpx:hr>147</gpxtpx:hr></gpxtpx:TrackPointExtension></extensions>
      </trkpt>
      <trkpt lat="60.8845692721" lon="15.1650121703">
        <ele>355</ele>
        <time>2011-06-22T10:59:48Z</time>
        <extensions><gpxtpx:TrackPointExtension><gpxtpx:hr>147</gpxtpx:hr></gpxtpx:TrackPointExtension></extensions>
      </trkpt>
      <trkpt lat="60.8846409374" lon="15.1650663174">
        <ele>355.6</ele>
        <time>2011-06-22T10:59:53Z</time>
        <extensions><gpxtpx:TrackPointExtension><gpxtpx:hr>146</gpxtpx:hr></gpxtpx:TrackPointExtension></extensions>
      </trkpt>
      <trkpt lat="60.8847162068" lon="15.1651417545">
        <ele>356.8</ele>
        <time>2011-06-22T10:59:59Z</time>
        <extensions><gpxtpx:TrackPointExtension><gpxtpx:hr>145</gpxtpx:hr></gpxtpx:TrackPointExtension></extensions>
      </trkpt>
      <trkpt lat="60.8847438671" lon="15.1652033614">
        <ele>357.6</ele>
        <time>2011-06-22T11:00:03Z</time>
        <extensions><gpxtpx:TrackPointExtension><gpxtpx:hr>144</gpxtpx:hr></gpxtpx:TrackPointExtension></extensions>
      </trkpt>
      <trkpt lat="60.8847544283" lon="15.1652232266">
        <ele>357.8</ele>
        <time>2011-06-22T11:00:05Z</time>
        <extensions><gpxtpx:TrackPointExtension><gpxtpx:hr>144</gpxtpx:hr></gpxtpx:TrackPointExtension></extensions>
      </trkpt>
      <trkpt lat="60.8847945776" lon="15.1652597716">
        <ele>359</ele>
        <time>2011-06-22T11:00:09Z</time>
        <extensions><gpxtpx:TrackPointExtension><gpxtpx:hr>143</gpxtpx:hr></gpxtpx:TrackPointExtension></extensions>
      </trkpt>
      <trkpt lat="60.8848390017" lon="15.1654182734">
        <ele>360</ele>
        <time>2011-06-22T11:00:15Z</time>
        <extensions><gpxtpx:TrackPointExtension><gpxtpx:hr>142</gpxtpx:hr></gpxtpx:TrackPointExtension></extensions>
      </trkpt>
      <trkpt lat="60.8848404266" lon="15.1655477737">
        <ele>361.6</ele>
        <time>2011-06-22T11:00:21Z</time>
        <extensions><gpxtpx:TrackPointExtension><gpxtpx:hr>142</gpxtpx:hr></gpxtpx:TrackPointExtension></extensions>
      </trkpt>
      <trkpt lat="60.8848352298" lon="15.1657240451">
        <ele>362.6</ele>
        <time>2011-06-22T11:00:29Z</time>
        <extensions><gpxtpx:TrackPointExtension><gpxtpx:hr>141</gpxtpx:hr></gpxtpx:TrackPointExtension></extensions>
      </trkpt>
      <trkpt lat="60.8848304521" lon="15.1657447484">
        <ele>362.6</ele>
        <time>2011-06-22T11:00:30Z</time>
        <extensions><gpxtpx:TrackPointExtension><gpxtpx:hr>141</gpxtpx:hr></gpxtpx:TrackPointExtension></extensions>
      </trkpt>
      <trkpt lat="60.8847996906" lon="15.1658206884">
        <ele>363</ele>
        <time>2011-06-22T11:00:34Z</time>
        <extensions><gpxtpx:TrackPointExtension><gpxtpx:hr>139</gpxtpx:hr></gpxtpx:TrackPointExtension></extensions>
      </trkpt>
      <trkpt lat="60.884789297" lon="15.1658794455">
        <ele>363</ele>
        <time>2011-06-22T11:00:36Z</time>
        <extensions><gpxtpx:TrackPointExtension><gpxtpx:hr>137</gpxtpx:hr></gpxtpx:TrackPointExtension></extensions>
      </trkpt>
      <trkpt lat="60.8847687613" lon="15.166149175">
        <ele>364</ele>
        <time>2011-06-22T11:00:42Z</time>
        <extensions><gpxtpx:TrackPointExtension><gpxtpx:hr>135</gpxtpx:hr></gpxtpx:TrackPointExtension></extensions>
      </trkpt>
      <trkpt lat="60.8847628102" lon="15.1661947726">
        <ele>364</ele>
        <time>2011-06-22T11:00:43Z</time>
        <extensions><gpxtpx:TrackPointExtension><gpxtpx:hr>134</gpxtpx:hr></gpxtpx:TrackPointExtension></extensions>
      </trkpt>
      <trkpt lat="60.8846942462" lon="15.1663970278">
        <ele>364.8</ele>
        <time>2011-06-22T11:00:48Z</time>
        <extensions><gpxtpx:TrackPointExtension><gpxtpx:hr>131</gpxtpx:hr></gpxtpx:TrackPointExtension></extensions>
      </trkpt>
      <trkpt lat="60.8846371655" lon="15.1666477305">
        <ele>365.8</ele>
        <time>2011-06-22T11:00:54Z</time>
        <extensions><gpxtpx:TrackPointExtension><gpxtpx:hr>127</gpxtpx:hr></gpxtpx:TrackPointExtension></extensions>
      </trkpt>
      <trkpt lat="60.884564243" lon="15.1669967528">
        <ele>366.6</ele>
        <time>2011-06-22T11:01:02Z</time>
        <extensions><gpxtpx:TrackPointExtension><gpxtpx:hr>127</gpxtpx:hr></gpxtpx:TrackPointExtension></extensions>
      </trkpt>
      <trkpt lat="60.8845589624" lon="15.1670402548">
        <ele>366.8</ele>
        <time>2011-06-22T11:01:03Z</time>
        <extensions><gpxtpx:TrackPointExtension><gpxtpx:hr>127</gpxtpx:hr></gpxtpx:TrackPointExtension></extensions>
      </trkpt>
      <trkpt lat="60.8845090901" lon="15.1670692562">
        <ele>367.2</ele>
        <time>2011-06-22T11:01:06Z</time>
        <extensions><gpxtpx:TrackPointExtension><gpxtpx:hr>127</gpxtpx:hr></gpxtpx:TrackPointExtension></extensions>
      </trkpt>
      <trkpt lat="60.8844888897" lon="15.1670498102">
        <ele>367.4</ele>
        <time>2011-06-22T11:01:07Z</time>
        <extensions><gpxtpx:TrackPointExtension><gpxtpx:hr>127</gpxtpx:hr></gpxtpx:TrackPointExtension></extensions>
      </trkpt>
      <trkpt lat="60.8843864629" lon="15.1669912207">
        <ele>368.2</ele>
        <time>2011-06-22T11:01:12Z</time>
        <extensions><gpxtpx:TrackPointExtension><gpxtpx:hr>127</gpxtpx:hr></gpxtpx:TrackPointExtension></extensions>
      </trkpt>
      <trkpt lat="60.884361401" lon="15.1669779773">
        <ele>368.4</ele>
        <time>2011-06-22T11:01:13Z</time>
        <extensions><gpxtpx:TrackPointExtension><gpxtpx:hr>127</gpxtpx:hr></gpxtpx:TrackPointExtension></extensions>
      </trkpt>
      <trkpt lat="60.8842310625" lon="15.1669349782">
        <ele>369</ele>
        <time>2011-06-22T11:01:19Z</time>
        <extensions><gpxtpx:TrackPointExtension><gpxtpx:hr>125</gpxtpx:hr></gpxtpx:TrackPointExtension></extensions>
      </trkpt>
      <trkpt lat="60.8841855487" lon="15.1669020373">
        <ele>369</ele>
        <time>2011-06-22T11:01:21Z</time>
        <extensions><gpxtpx:TrackPointExtension><gpxtpx:hr>130</gpxtpx:hr></gpxtpx:TrackPointExtension></extensions>
      </trkpt>
      <trkpt lat="60.8841610736" lon="15.1668816693">
        <ele>369.2</ele>
        <time>2011-06-22T11:01:22Z</time>
        <extensions><gpxtpx:TrackPointExtension><gpxtpx:hr>130</gpxtpx:hr></gpxtpx:TrackPointExtension></extensions>
      </trkpt>
      <trkpt lat="60.8841407056" lon="15.1668625586">
        <ele>369.2</ele>
        <time>2011-06-22T11:01:23Z</time>
        <extensions><gpxtpx:TrackPointExtension><gpxtpx:hr>129</gpxtpx:hr></gpxtpx:TrackPointExtension></extensions>
      </trkpt>
      <trkpt lat="60.8840283881" lon="15.1668307912">
        <ele>369.4</ele>
        <time>2011-06-22T11:01:28Z</time>
        <extensions><gpxtpx:TrackPointExtension><gpxtpx:hr>134</gpxtpx:hr></gpxtpx:TrackPointExtension></extensions>
      </trkpt>
      <trkpt lat="60.8839363549" lon="15.1667763926">
        <ele>369.4</ele>
        <time>2011-06-22T11:01:32Z</time>
        <extensions><gpxtpx:TrackPointExtension><gpxtpx:hr>134</gpxtpx:hr></gpxtpx:TrackPointExtension></extensions>
      </trkpt>
      <trkpt lat="60.8838968761" lon="15.1665699464">
        <ele>369.4</ele>
        <time>2011-06-22T11:01:37Z</time>
        <extensions><gpxtpx:TrackPointExtension><gpxtpx:hr>132</gpxtpx:hr></gpxtpx:TrackPointExtension></extensions>
      </trkpt>
      <trkpt lat="60.8838930204" lon="15.1665378437">
        <ele>369.6</ele>
        <time>2011-06-22T11:01:38Z</time>
        <extensions><gpxtpx:TrackPointExtension><gpxtpx:hr>132</gpxtpx:hr></gpxtpx:TrackPointExtension></extensions>
      </trkpt>
      <trkpt lat="60.8838882427" lon="15.1663393604">
        <ele>369.6</ele>
        <time>2011-06-22T11:01:42Z</time>
        <extensions><gpxtpx:TrackPointExtension><gpxtpx:hr>128</gpxtpx:hr></gpxtpx:TrackPointExtension></extensions>
      </trkpt>
      <trkpt lat="60.8838400468" lon="15.1660802758">
        <ele>369.6</ele>
        <time>2011-06-22T11:01:49Z</time>
        <extensions><gpxtpx:TrackPointExtension><gpxtpx:hr>132</gpxtpx:hr></gpxtpx:TrackPointExtension></extensions>
      </trkpt>
      <trkpt lat="60.8837641068" lon="15.1659094527">
        <ele>369.6</ele>
        <time>2011-06-22T11:01:54Z</time>
        <extensions><gpxtpx:TrackPointExtension><gpxtpx:hr>130</gpxtpx:hr></gpxtpx:TrackPointExtension></extensions>
      </trkpt>
      <trkpt lat="60.8836939503" lon="15.1657289066">
        <ele>369.6</ele>
        <time>2011-06-22T11:01:59Z</time>
        <extensions><gpxtpx:TrackPointExtension><gpxtpx:hr>128</gpxtpx:hr></gpxtpx:TrackPointExtension></extensions>
      </trkpt>
      <trkpt lat="60.8836494424" lon="15.1657005758">
        <ele>369.6</ele>
        <time>2011-06-22T11:02:02Z</time>
        <extensions><gpxtpx:TrackPointExtension><gpxtpx:hr>123</gpxtpx:hr></gpxtpx:TrackPointExtension></extensions>
      </trkpt>
      <trkpt lat="60.8836346065" lon="15.1656860751">
        <ele>369.6</ele>
        <time>2011-06-22T11:02:03Z</time>
        <extensions><gpxtpx:TrackPointExtension><gpxtpx:hr>122</gpxtpx:hr></gpxtpx:TrackPointExtension></extensions>
      </trkpt>
      <trkpt lat="60.8836154119" lon="15.1656548944">
        <ele>369.6</ele>
        <time>2011-06-22T11:02:05Z</time>
        <extensions><gpxtpx:TrackPointExtension><gpxtpx:hr>121</gpxtpx:hr></gpxtpx:TrackPointExtension></extensions>
      </trkpt>
      <trkpt lat="60.8835359515" lon="15.1657064431">
        <ele>369.2</ele>
        <time>2011-06-22T11:02:11Z</time>
        <extensions><gpxtpx:TrackPointExtension><gpxtpx:hr>120</gpxtpx:hr></gpxtpx:TrackPointExtension></extensions>
      </trkpt>
      <trkpt lat="60.8834260648" lon="15.165773163">
        <ele>368.4</ele>
        <time>2011-06-22T11:02:16Z</time>
        <extensions><gpxtpx:TrackPointExtension><gpxtpx:hr>123</gpxtpx:hr></gpxtpx:TrackPointExtension></extensions>
      </trkpt>
      <trkpt lat="60.8834067026" lon="15.1657681339">
        <ele>368.2</ele>
        <time>2011-06-22T11:02:17Z</time>
        <extensions><gpxtpx:TrackPointExtension><gpxtpx:hr>123</gpxtpx:hr></gpxtpx:TrackPointExtension></extensions>
      </trkpt>
      <trkpt lat="60.883371331" lon="15.1657448322">
        <ele>367.6</ele>
        <time>2011-06-22T11:02:19Z</time>
        <extensions><gpxtpx:TrackPointExtension><gpxtpx:hr>123</gpxtpx:hr></gpxtpx:TrackPointExtension></extensions>
      </trkpt>
      <trkpt lat="60.8832531462" lon="15.1657337681">
        <ele>366.2</ele>
        <time>2011-06-22T11:02:25Z</time>
        <extensions><gpxtpx:TrackPointExtension><gpxtpx:hr>123</gpxtpx:hr></gpxtpx:TrackPointExtension></extensions>
      </trkpt>
      <trkpt lat="60.883191623" lon="15.1657440778">
        <ele>365.4</ele>
        <time>2011-06-22T11:02:28Z</time>
        <extensions><gpxtpx:TrackPointExtension><gpxtpx:hr>123</gpxtpx:hr></gpxtpx:TrackPointExtension></extensions>
      </trkpt>
      <trkpt lat="60.8831472828" lon="15.1657344386">
        <ele>364.8</ele>
        <time>2011-06-22T11:02:30Z</time>
        <extensions><gpxtpx:TrackPointExtension><gpxtpx:hr>131</gpxtpx:hr></gpxtpx:TrackPointExtension></extensions>
      </trkpt>
      <trkpt lat="60.8830726001" lon="15.1657660384">
        <ele>363.4</ele>
        <time>2011-06-22T11:02:34Z</time>
        <extensions><gpxtpx:TrackPointExtension><gpxtpx:hr>131</gpxtpx:hr></gpxtpx:TrackPointExtension></extensions>
      </trkpt>
      <trkpt lat="60.8830400783" lon="15.1658125579">
        <ele>363</ele>
        <time>2011-06-22T11:02:36Z</time>
        <extensions><gpxtpx:TrackPointExtension><gpxtpx:hr>131</gpxtpx:hr></gpxtpx:TrackPointExtension></extensions>
      </trkpt>
      <trkpt lat="60.8829838357" lon="15.1658565629">
        <ele>362</ele>
        <time>2011-06-22T11:02:39Z</time>
        <extensions><gpxtpx:TrackPointExtension><gpxtpx:hr>124</gpxtpx:hr></gpxtpx:TrackPointExtension></extensions>
      </trkpt>
      <trkpt lat="60.8829254139" lon="15.1658997297">
        <ele>361.2</ele>
        <time>2011-06-22T11:02:42Z</time>
        <extensions><gpxtpx:TrackPointExtension><gpxtpx:hr>119</gpxtpx:hr></gpxtpx:TrackPointExtension></extensions>
      </trkpt>
      <trkpt lat="60.8829094883" lon="15.1659045074">
        <ele>361</ele>
        <time>2011-06-22T11:02:43Z</time>
        <extensions><gpxtpx:TrackPointExtension><gpxtpx:hr>119</gpxtpx:hr></gpxtpx:TrackPointExtension></extensions>
      </trkpt>
      <trkpt lat="60.8828646451" lon="15.1658899229">
        <ele>360.6</ele>
        <time>2011-06-22T11:02:45Z</time>
        <extensions><gpxtpx:TrackPointExtension><gpxtpx:hr>118</gpxtpx:hr></gpxtpx:TrackPointExtension></extensions>
      </trkpt>
      <trkpt lat="60.882798931" lon="15.1657818802">
        <ele>360.2</ele>
        <time>2011-06-22T11:02:48Z</time>
        <extensions><gpxtpx:TrackPointExtension><gpxtpx:hr>130</gpxtpx:hr></gpxtpx:TrackPointExtension></extensions>
      </trkpt>
      <trkpt lat="60.8827783115" lon="15.1657538846">
        <ele>359.8</ele>
        <time>2011-06-22T11:02:49Z</time>
        <extensions><gpxtpx:TrackPointExtension><gpxtpx:hr>130</gpxtpx:hr></gpxtpx:TrackPointExtension></extensions>
      </trkpt>
      <trkpt lat="60.8827358153" lon="15.1657052696">
        <ele>359.2</ele>
        <time>2011-06-22T11:02:51Z</time>
        <extensions><gpxtpx:TrackPointExtension><gpxtpx:hr>130</gpxtpx:hr></gpxtpx:TrackPointExtension></extensions>
      </trkpt>
      <trkpt lat="60.8826328018" lon="15.1654572492">
        <ele>358</ele>
        <time>2011-06-22T11:02:58Z</time>
        <extensions><gpxtpx:TrackPointExtension><gpxtpx:hr>130</gpxtpx:hr></gpxtpx:TrackPointExtension></extensions>
      </trkpt>
      <trkpt lat="60.8826185525" lon="15.1654142501">
        <ele>358</ele>
        <time>2011-06-22T11:02:59Z</time>
        <extensions><gpxtpx:TrackPointExtension><gpxtpx:hr>139</gpxtpx:hr></gpxtpx:TrackPointExtension></extensions>
      </trkpt>
      <trkpt lat="60.8826035489" lon="15.1653772021">
        <ele>357.8</ele>
        <time>2011-06-22T11:03:00Z</time>
        <extensions><gpxtpx:TrackPointExtension><gpxtpx:hr>139</gpxtpx:hr></gpxtpx:TrackPointExtension></extensions>
      </trkpt>
      <trkpt lat="60.8825856955" lon="15.1653400702">
        <ele>357.8</ele>
        <time>2011-06-22T11:03:01Z</time>
        <extensions><gpxtpx:TrackPointExtension><gpxtpx:hr>145</gpxtpx:hr></gpxtpx:TrackPointExtension></extensions>
      </trkpt>
      <trkpt lat="60.8825690993" lon="15.1653005915">
        <ele>357.8</ele>
        <time>2011-06-22T11:03:02Z</time>
        <extensions><gpxtpx:TrackPointExtension><gpxtpx:hr>145</gpxtpx:hr></gpxtpx:TrackPointExtension></extensions>
      </trkpt>
      <trkpt lat="60.882496093" lon="15.1650935586">
        <ele>356.6</ele>
        <time>2011-06-22T11:03:07Z</time>
        <extensions><gpxtpx:TrackPointExtension><gpxtpx:hr>145</gpxtpx:hr></gpxtpx:TrackPointExtension></extensions>
      </trkpt>
      <trkpt lat="60.8824677622" lon="15.1650137629">
        <ele>356.2</ele>
        <time>2011-06-22T11:03:09Z</time>
        <extensions><gpxtpx:TrackPointExtension><gpxtpx:hr>141</gpxtpx:hr></gpxtpx:TrackPointExtension></extensions>
      </trkpt>
      <trkpt lat="60.8823780758" lon="15.1648701809">
        <ele>355.6</ele>
        <time>2011-06-22T11:03:14Z</time>
        <extensions><gpxtpx:TrackPointExtension><gpxtpx:hr>138</gpxtpx:hr></gpxtpx:TrackPointExtension></extensions>
      </trkpt>
      <trkpt lat="60.8823097633" lon="15.1646670875">
        <ele>355.4</ele>
        <time>2011-06-22T11:03:19Z</time>
        <extensions><gpxtpx:TrackPointExtension><gpxtpx:hr>140</gpxtpx:hr></gpxtpx:TrackPointExtension></extensions>
      </trkpt>
      <trkpt lat="60.8822239327" lon="15.16442418">
        <ele>354.2</ele>
        <time>2011-06-22T11:03:25Z</time>
        <extensions><gpxtpx:TrackPointExtension><gpxtpx:hr>136</gpxtpx:hr></gpxtpx:TrackPointExtension></extensions>
      </trkpt>
      <trkpt lat="60.8821515969" lon="15.1643115273">
        <ele>353.8</ele>
        <time>2011-06-22T11:03:29Z</time>
        <extensions><gpxtpx:TrackPointExtension><gpxtpx:hr>142</gpxtpx:hr></gpxtpx:TrackPointExtension></extensions>
      </trkpt>
      <trkpt lat="60.882131648" lon="15.164288058">
        <ele>353.6</ele>
        <time>2011-06-22T11:03:30Z</time>
        <extensions><gpxtpx:TrackPointExtension><gpxtpx:hr>142</gpxtpx:hr></gpxtpx:TrackPointExtension></extensions>
      </trkpt>
      <trkpt lat="60.8820536125" lon="15.1642002157">
        <ele>353.4</ele>
        <time>2011-06-22T11:03:34Z</time>
        <extensions><gpxtpx:TrackPointExtension><gpxtpx:hr>137</gpxtpx:hr></gpxtpx:TrackPointExtension></extensions>
      </trkpt>
      <trkpt lat="60.881927884" lon="15.1641191627">
        <ele>353.2</ele>
        <time>2011-06-22T11:03:40Z</time>
        <extensions><gpxtpx:TrackPointExtension><gpxtpx:hr>136</gpxtpx:hr></gpxtpx:TrackPointExtension></extensions>
      </trkpt>
      <trkpt lat="60.8818498485" lon="15.1641065898">
        <ele>353</ele>
        <time>2011-06-22T11:03:44Z</time>
        <extensions><gpxtpx:TrackPointExtension><gpxtpx:hr>131</gpxtpx:hr></gpxtpx:TrackPointExtension></extensions>
      </trkpt>
      <trkpt lat="60.8818076037" lon="15.1641445598">
        <ele>352.4</ele>
        <time>2011-06-22T11:03:47Z</time>
        <extensions><gpxtpx:TrackPointExtension><gpxtpx:hr>129</gpxtpx:hr></gpxtpx:TrackPointExtension></extensions>
      </trkpt>
      <trkpt lat="60.8816774328" lon="15.1641852959">
        <ele>351.6</ele>
        <time>2011-06-22T11:03:54Z</time>
        <extensions><gpxtpx:TrackPointExtension><gpxtpx:hr>127</gpxtpx:hr></gpxtpx:TrackPointExtension></extensions>
      </trkpt>
      <trkpt lat="60.8815775206" lon="15.1642188235">
        <ele>351.2</ele>
        <time>2011-06-22T11:03:59Z</time>
        <extensions><gpxtpx:TrackPointExtension><gpxtpx:hr>131</gpxtpx:hr></gpxtpx:TrackPointExtension></extensions>
      </trkpt>
      <trkpt lat="60.8815066097" lon="15.1642284627">
        <ele>351.2</ele>
        <time>2011-06-22T11:04:03Z</time>
        <extensions><gpxtpx:TrackPointExtension><gpxtpx:hr>131</gpxtpx:hr></gpxtpx:TrackPointExtension></extensions>
      </trkpt>
      <trkpt lat="60.8813844016" lon="15.164360729">
        <ele>351</ele>
        <time>2011-06-22T11:04:10Z</time>
        <extensions><gpxtpx:TrackPointExtension><gpxtpx:hr>131</gpxtpx:hr></gpxtpx:TrackPointExtension></extensions>
      </trkpt>
      <trkpt lat="60.881292033" lon="15.1644128645">
        <ele>351</ele>
        <time>2011-06-22T11:04:15Z</time>
        <extensions><gpxtpx:TrackPointExtension><gpxtpx:hr>131</gpxtpx:hr></gpxtpx:TrackPointExtension></extensions>
      </trkpt>
      <trkpt lat="60.8812399814" lon="15.1644063266">
        <ele>350.8</ele>
        <time>2011-06-22T11:04:19Z</time>
        <extensions><gpxtpx:TrackPointExtension><gpxtpx:hr>132</gpxtpx:hr></gpxtpx:TrackPointExtension></extensions>
      </trkpt>
      <trkpt lat="60.8811557433" lon="15.1645095078">
        <ele>350.8</ele>
        <time>2011-06-22T11:04:24Z</time>
        <extensions><gpxtpx:TrackPointExtension><gpxtpx:hr>131</gpxtpx:hr></gpxtpx:TrackPointExtension></extensions>
      </trkpt>
      <trkpt lat="60.881072092" lon="15.1646324702">
        <ele>350.8</ele>
        <time>2011-06-22T11:04:29Z</time>
        <extensions><gpxtpx:TrackPointExtension><gpxtpx:hr>133</gpxtpx:hr></gpxtpx:TrackPointExtension></extensions>
      </trkpt>
      <trkpt lat="60.8809783823" lon="15.1647393395">
        <ele>350.8</ele>
        <time>2011-06-22T11:04:34Z</time>
        <extensions><gpxtpx:TrackPointExtension><gpxtpx:hr>132</gpxtpx:hr></gpxtpx:TrackPointExtension></extensions>
      </trkpt>
      <trkpt lat="60.8808649752" lon="15.1647369925">
        <ele>350.8</ele>
        <time>2011-06-22T11:04:39Z</time>
        <extensions><gpxtpx:TrackPointExtension><gpxtpx:hr>131</gpxtpx:hr></gpxtpx:TrackPointExtension></extensions>
      </trkpt>
      <trkpt lat="60.880839159" lon="15.1647390042">
        <ele>350.8</ele>
        <time>2011-06-22T11:04:40Z</time>
        <extensions><gpxtpx:TrackPointExtension><gpxtpx:hr>131</gpxtpx:hr></gpxtpx:TrackPointExtension></extensions>
      </trkpt>
      <trkpt lat="60.880652997" lon="15.1647791535">
        <ele>350.8</ele>
        <time>2011-06-22T11:04:47Z</time>
        <extensions><gpxtpx:TrackPointExtension><gpxtpx:hr>127</gpxtpx:hr></gpxtpx:TrackPointExtension></extensions>
      </trkpt>
      <trkpt lat="60.8805065652" lon="15.1648956619">
        <ele>350.8</ele>
        <time>2011-06-22T11:04:53Z</time>
        <extensions><gpxtpx:TrackPointExtension><gpxtpx:hr>124</gpxtpx:hr></gpxtpx:TrackPointExtension></extensions>
      </trkpt>
      <trkpt lat="60.880381172" lon="15.1649990107">
        <ele>349.8</ele>
        <time>2011-06-22T11:04:59Z</time>
        <extensions><gpxtpx:TrackPointExtension><gpxtpx:hr>124</gpxtpx:hr></gpxtpx:TrackPointExtension></extensions>
      </trkpt>
      <trkpt lat="60.8802712014" lon="15.16501787">
        <ele>349.4</ele>
        <time>2011-06-22T11:05:04Z</time>
        <extensions><gpxtpx:TrackPointExtension><gpxtpx:hr>124</gpxtpx:hr></gpxtpx:TrackPointExtension></extensions>
      </trkpt>
      <trkpt lat="60.8801791682" lon="15.1650917145">
        <ele>349.2</ele>
        <time>2011-06-22T11:05:08Z</time>
        <extensions><gpxtpx:TrackPointExtension><gpxtpx:hr>123</gpxtpx:hr></gpxtpx:TrackPointExtension></extensions>
      </trkpt>
      <trkpt lat="60.8801827724" lon="15.1652750267">
        <ele>349</ele>
        <time>2011-06-22T11:05:13Z</time>
        <extensions><gpxtpx:TrackPointExtension><gpxtpx:hr>121</gpxtpx:hr></gpxtpx:TrackPointExtension></extensions>
      </trkpt>
      <trkpt lat="60.8801744743" lon="15.1654543994">
        <ele>349</ele>
        <time>2011-06-22T11:05:17Z</time>
        <extensions><gpxtpx:TrackPointExtension><gpxtpx:hr>121</gpxtpx:hr></gpxtpx:TrackPointExtension></extensions>
      </trkpt>
      <trkpt lat="60.880134325" lon="15.165755561">
        <ele>348.8</ele>
        <time>2011-06-22T11:05:24Z</time>
        <extensions><gpxtpx:TrackPointExtension><gpxtpx:hr>121</gpxtpx:hr></gpxtpx:TrackPointExtension></extensions>
      </trkpt>
      <trkpt lat="60.8801420364" lon="15.1659835487">
        <ele>348.8</ele>
        <time>2011-06-22T11:05:29Z</time>
        <extensions><gpxtpx:TrackPointExtension><gpxtpx:hr>131</gpxtpx:hr></gpxtpx:TrackPointExtension></extensions>
      </trkpt>
      <trkpt lat="60.8801474846" lon="15.1660270508">
        <ele>348.8</ele>
        <time>2011-06-22T11:05:30Z</time>
        <extensions><gpxtpx:TrackPointExtension><gpxtpx:hr>131</gpxtpx:hr></gpxtpx:TrackPointExtension></extensions>
      </trkpt>
      <trkpt lat="60.8801577943" lon="15.1660682059">
        <ele>348.8</ele>
        <time>2011-06-22T11:05:31Z</time>
        <extensions><gpxtpx:TrackPointExtension><gpxtpx:hr>139</gpxtpx:hr></gpxtpx:TrackPointExtension></extensions>
      </trkpt>
      <trkpt lat="60.8801703672" lon="15.1661107021">
        <ele>348.8</ele>
        <time>2011-06-22T11:05:32Z</time>
        <extensions><gpxtpx:TrackPointExtension><gpxtpx:hr>139</gpxtpx:hr></gpxtpx:TrackPointExtension></extensions>
      </trkpt>
      <trkpt lat="60.88018294" lon="15.1661484207">
        <ele>348.6</ele>
        <time>2011-06-22T11:05:33Z</time>
        <extensions><gpxtpx:TrackPointExtension><gpxtpx:hr>147</gpxtpx:hr></gpxtpx:TrackPointExtension></extensions>
      </trkpt>
      <trkpt lat="60.8801921601" lon="15.1661833732">
        <ele>348.4</ele>
        <time>2011-06-22T11:05:34Z</time>
        <extensions><gpxtpx:TrackPointExtension><gpxtpx:hr>147</gpxtpx:hr></gpxtpx:TrackPointExtension></extensions>
      </trkpt>
      <trkpt lat="60.8801956805" lon="15.1662262885">
        <ele>348.2</ele>
        <time>2011-06-22T11:05:35Z</time>
        <extensions><gpxtpx:TrackPointExtension><gpxtpx:hr>152</gpxtpx:hr></gpxtpx:TrackPointExtension></extensions>
      </trkpt>
      <trkpt lat="60.8801965187" lon="15.1662674437">
        <ele>348.2</ele>
        <time>2011-06-22T11:05:36Z</time>
        <extensions><gpxtpx:TrackPointExtension><gpxtpx:hr>152</gpxtpx:hr></gpxtpx:TrackPointExtension></extensions>
      </trkpt>
      <trkpt lat="60.8801525137" lon="15.1663800964">
        <ele>345.2</ele>
        <time>2011-06-22T11:06:04Z</time>
        <extensions><gpxtpx:TrackPointExtension><gpxtpx:hr>111</gpxtpx:hr></gpxtpx:TrackPointExtension></extensions>
      </trkpt>
      <trkpt lat="60.8801521785" lon="15.1664001291">
        <ele>344.8</ele>
        <time>2011-06-22T11:06:05Z</time>
        <extensions><gpxtpx:TrackPointExtension><gpxtpx:hr>111</gpxtpx:hr></gpxtpx:TrackPointExtension></extensions>
      </trkpt>
      <trkpt lat="60.8801547768" lon="15.1664266159">
        <ele>344.6</ele>
        <time>2011-06-22T11:06:06Z</time>
        <extensions><gpxtpx:TrackPointExtension><gpxtpx:hr>111</gpxtpx:hr></gpxtpx:TrackPointExtension></extensions>
      </trkpt>
      <trkpt lat="60.8801660086" lon="15.1664997899">
        <ele>344.2</ele>
        <time>2011-06-22T11:06:08Z</time>
        <extensions><gpxtpx:TrackPointExtension><gpxtpx:hr>119</gpxtpx:hr></gpxtpx:TrackPointExtension></extensions>
      </trkpt>
      <trkpt lat="60.8801743905" lon="15.1665474829">
        <ele>344.2</ele>
        <time>2011-06-22T11:06:09Z</time>
        <extensions><gpxtpx:TrackPointExtension><gpxtpx:hr>119</gpxtpx:hr></gpxtpx:TrackPointExtension></extensions>
      </trkpt>
      <trkpt lat="60.8801784138" lon="15.1667489">
        <ele>343.6</ele>
        <time>2011-06-22T11:06:14Z</time>
        <extensions><gpxtpx:TrackPointExtension><gpxtpx:hr>118</gpxtpx:hr></gpxtpx:TrackPointExtension></extensions>
      </trkpt>
      <trkpt lat="60.880174642" lon="15.1667647418">
        <ele>343.4</ele>
        <time>2011-06-22T11:06:15Z</time>
        <extensions><gpxtpx:TrackPointExtension><gpxtpx:hr>117</gpxtpx:hr></gpxtpx:TrackPointExtension></extensions>
      </trkpt>
      <trkpt lat="60.8801718759" lon="15.1667748001">
        <ele>343.2</ele>
        <time>2011-06-22T11:06:17Z</time>
        <extensions><gpxtpx:TrackPointExtension><gpxtpx:hr>114</gpxtpx:hr></gpxtpx:TrackPointExtension></extensions>
      </trkpt>
      <trkpt lat="60.8802471454" lon="15.1669204775">
        <ele>343</ele>
        <time>2011-06-22T11:06:24Z</time>
        <extensions><gpxtpx:TrackPointExtension><gpxtpx:hr>109</gpxtpx:hr></gpxtpx:TrackPointExtension></extensions>
      </trkpt>
      <trkpt lat="60.8802910665" lon="15.1671405862">
        <ele>342.6</ele>
        <time>2011-06-22T11:06:30Z</time>
        <extensions><gpxtpx:TrackPointExtension><gpxtpx:hr>112</gpxtpx:hr></gpxtpx:TrackPointExtension></extensions>
      </trkpt>
      <trkpt lat="60.8802877976" lon="15.1671665701">
        <ele>342.4</ele>
        <time>2011-06-22T11:06:31Z</time>
        <extensions><gpxtpx:TrackPointExtension><gpxtpx:hr>112</gpxtpx:hr></gpxtpx:TrackPointExtension></extensions>
      </trkpt>
      <trkpt lat="60.8802879652" lon="15.1671931407">
        <ele>342.2</ele>
        <time>2011-06-22T11:06:32Z</time>
        <extensions><gpxtpx:TrackPointExtension><gpxtpx:hr>112</gpxtpx:hr></gpxtpx:TrackPointExtension></extensions>
      </trkpt>
      <trkpt lat="60.8803043938" lon="15.1673458589">
        <ele>341.6</ele>
        <time>2011-06-22T11:06:36Z</time>
        <extensions><gpxtpx:TrackPointExtension><gpxtpx:hr>112</gpxtpx:hr></gpxtpx:TrackPointExtension></extensions>
      </trkpt>
      <trkpt lat="60.8803364964" lon="15.1676494513">
        <ele>341</ele>
        <time>2011-06-22T11:06:44Z</time>
        <extensions><gpxtpx:TrackPointExtension><gpxtpx:hr>114</gpxtpx:hr></gpxtpx:TrackPointExtension></extensions>
      </trkpt>
      <trkpt lat="60.8803270249" lon="15.16792421">
        <ele>340.8</ele>
        <time>2011-06-22T11:06:51Z</time>
        <extensions><gpxtpx:TrackPointExtension><gpxtpx:hr>115</gpxtpx:hr></gpxtpx:TrackPointExtension></extensions>
      </trkpt>
      <trkpt lat="60.8802851992" lon="15.1679492719">
        <ele>340.8</ele>
        <time>2011-06-22T11:06:54Z</time>
        <extensions><gpxtpx:TrackPointExtension><gpxtpx:hr>125</gpxtpx:hr></gpxtpx:TrackPointExtension></extensions>
      </trkpt>
      <trkpt lat="60.8802665914" lon="15.1679473441">
        <ele>340.8</ele>
        <time>2011-06-22T11:06:55Z</time>
        <extensions><gpxtpx:TrackPointExtension><gpxtpx:hr>127</gpxtpx:hr></gpxtpx:TrackPointExtension></extensions>
      </trkpt>
      <trkpt lat="60.8802116061" lon="15.1679687179">
        <ele>340.4</ele>
        <time>2011-06-22T11:06:58Z</time>
        <extensions><gpxtpx:TrackPointExtension><gpxtpx:hr>126</gpxtpx:hr></gpxtpx:TrackPointExtension></extensions>
      </trkpt>
      <trkpt lat="60.880145892" lon="15.1678375412">
        <ele>339.6</ele>
        <time>2011-06-22T11:07:04Z</time>
        <extensions><gpxtpx:TrackPointExtension><gpxtpx:hr>125</gpxtpx:hr></gpxtpx:TrackPointExtension></extensions>
      </trkpt>
      <trkpt lat="60.8801401923" lon="15.1678020019">
        <ele>339.4</ele>
        <time>2011-06-22T11:07:05Z</time>
        <extensions><gpxtpx:TrackPointExtension><gpxtpx:hr>125</gpxtpx:hr></gpxtpx:TrackPointExtension></extensions>
      </trkpt>
      <trkpt lat="60.880098199" lon="15.1675675602">
        <ele>339</ele>
        <time>2011-06-22T11:07:11Z</time>
        <extensions><gpxtpx:TrackPointExtension><gpxtpx:hr>130</gpxtpx:hr></gpxtpx:TrackPointExtension></extensions>
      </trkpt>
      <trkpt lat="60.8800873026" lon="15.1675232199">
        <ele>339</ele>
        <time>2011-06-22T11:07:12Z</time>
        <extensions><gpxtpx:TrackPointExtension><gpxtpx:hr>130</gpxtpx:hr></gpxtpx:TrackPointExtension></extensions>
      </trkpt>
      <trkpt lat="60.8800510089" lon="15.1672984174">
        <ele>338.8</ele>
        <time>2011-06-22T11:07:17Z</time>
        <extensions><gpxtpx:TrackPointExtension><gpxtpx:hr>128</gpxtpx:hr></gpxtpx:TrackPointExtension></extensions>
      </trkpt>
      <trkpt lat="60.8799979515" lon="15.16706473">
        <ele>338.8</ele>
        <time>2011-06-22T11:07:22Z</time>
        <extensions><gpxtpx:TrackPointExtension><gpxtpx:hr>137</gpxtpx:hr></gpxtpx:TrackPointExtension></extensions>
      </trkpt>
      <trkpt lat="60.8799851272" lon="15.1670193001">
        <ele>338.8</ele>
        <time>2011-06-22T11:07:23Z</time>
        <extensions><gpxtpx:TrackPointExtension><gpxtpx:hr>137</gpxtpx:hr></gpxtpx:TrackPointExtension></extensions>
      </trkpt>
      <trkpt lat="60.8798713848" lon="15.1666816772">
        <ele>338.6</ele>
        <time>2011-06-22T11:07:31Z</time>
        <extensions><gpxtpx:TrackPointExtension><gpxtpx:hr>134</gpxtpx:hr></gpxtpx:TrackPointExtension></extensions>
      </trkpt>
      <trkpt lat="60.8798075985" lon="15.166531725">
        <ele>338.6</ele>
        <time>2011-06-22T11:07:35Z</time>
        <extensions><gpxtpx:TrackPointExtension><gpxtpx:hr>133</gpxtpx:hr></gpxtpx:TrackPointExtension></extensions>
      </trkpt>
      <trkpt lat="60.8797728975" lon="15.1664559526">
        <ele>338.6</ele>
        <time>2011-06-22T11:07:37Z</time>
        <extensions><gpxtpx:TrackPointExtension><gpxtpx:hr>133</gpxtpx:hr></gpxtpx:TrackPointExtension></extensions>
      </trkpt>
      <trkpt lat="60.8796371945" lon="15.1661461576">
        <ele>339</ele>
        <time>2011-06-22T11:07:45Z</time>
        <extensions><gpxtpx:TrackPointExtension><gpxtpx:hr>135</gpxtpx:hr></gpxtpx:TrackPointExtension></extensions>
      </trkpt>
      <trkpt lat="60.879511466" lon="15.1658336803">
        <ele>340</ele>
        <time>2011-06-22T11:07:53Z</time>
        <extensions><gpxtpx:TrackPointExtension><gpxtpx:hr>131</gpxtpx:hr></gpxtpx:TrackPointExtension></extensions>
      </trkpt>
      <trkpt lat="60.8794420639" lon="15.1655919463">
        <ele>340.8</ele>
        <time>2011-06-22T11:07:58Z</time>
        <extensions><gpxtpx:TrackPointExtension><gpxtpx:hr>128</gpxtpx:hr></gpxtpx:TrackPointExtension></extensions>
      </trkpt>
      <trkpt lat="60.8793886712" lon="15.1653611926">
        <ele>341.6</ele>
        <time>2011-06-22T11:08:03Z</time>
        <extensions><gpxtpx:TrackPointExtension><gpxtpx:hr>127</gpxtpx:hr></gpxtpx:TrackPointExtension></extensions>
      </trkpt>
      <trkpt lat="60.8793421516" lon="15.1650133438">
        <ele>342.8</ele>
        <time>2011-06-22T11:08:09Z</time>
        <extensions><gpxtpx:TrackPointExtension><gpxtpx:hr>127</gpxtpx:hr></gpxtpx:TrackPointExtension></extensions>
      </trkpt>
      <trkpt lat="60.8793372901" lon="15.1646438696">
        <ele>343.8</ele>
        <time>2011-06-22T11:08:15Z</time>
        <extensions><gpxtpx:TrackPointExtension><gpxtpx:hr>131</gpxtpx:hr></gpxtpx:TrackPointExtension></extensions>
      </trkpt>
      <trkpt lat="60.8793336021" lon="15.1643444682">
        <ele>344.2</ele>
        <time>2011-06-22T11:08:20Z</time>
        <extensions><gpxtpx:TrackPointExtension><gpxtpx:hr>130</gpxtpx:hr></gpxtpx:TrackPointExtension></extensions>
      </trkpt>
      <trkpt lat="60.8793249687" lon="15.1640508502">
        <ele>344.6</ele>
        <time>2011-06-22T11:08:25Z</time>
        <extensions><gpxtpx:TrackPointExtension><gpxtpx:hr>130</gpxtpx:hr></gpxtpx:TrackPointExtension></extensions>
      </trkpt>
      <trkpt lat="60.8793028405" lon="15.1637848925">
        <ele>344.6</ele>
        <time>2011-06-22T11:08:30Z</time>
        <extensions><gpxtpx:TrackPointExtension><gpxtpx:hr>135</gpxtpx:hr></gpxtpx:TrackPointExtension></extensions>
      </trkpt>
      <trkpt lat="60.8792524653" lon="15.1634960522">
        <ele>344.8</ele>
        <time>2011-06-22T11:08:36Z</time>
        <extensions><gpxtpx:TrackPointExtension><gpxtpx:hr>132</gpxtpx:hr></gpxtpx:TrackPointExtension></extensions>
      </trkpt>
      <trkpt lat="60.8791883438" lon="15.1631926275">
        <ele>344.8</ele>
        <time>2011-06-22T11:08:43Z</time>
        <extensions><gpxtpx:TrackPointExtension><gpxtpx:hr>133</gpxtpx:hr></gpxtpx:TrackPointExtension></extensions>
      </trkpt>
      <trkpt lat="60.8790934607" lon="15.1629164439">
        <ele>344.8</ele>
        <time>2011-06-22T11:08:50Z</time>
        <extensions><gpxtpx:TrackPointExtension><gpxtpx:hr>137</gpxtpx:hr></gpxtpx:TrackPointExtension></extensions>
      </trkpt>
      <trkpt lat="60.8789772875" lon="15.1627342213">
        <ele>344.8</ele>
        <time>2011-06-22T11:08:56Z</time>
        <extensions><gpxtpx:TrackPointExtension><gpxtpx:hr>137</gpxtpx:hr></gpxtpx:TrackPointExtension></extensions>
      </trkpt>
      <trkpt lat="60.878844183" lon="15.1625848559">
        <ele>345.8</ele>
        <time>2011-06-22T11:09:02Z</time>
        <extensions><gpxtpx:TrackPointExtension><gpxtpx:hr>137</gpxtpx:hr></gpxtpx:TrackPointExtension></extensions>
      </trkpt>
      <trkpt lat="60.8786923029" lon="15.1624529248">
        <ele>346.4</ele>
        <time>2011-06-22T11:09:08Z</time>
        <extensions><gpxtpx:TrackPointExtension><gpxtpx:hr>138</gpxtpx:hr></gpxtpx:TrackPointExtension></extensions>
      </trkpt>
      <trkpt lat="60.8785452844" lon="15.1623390986">
        <ele>346.6</ele>
        <time>2011-06-22T11:09:14Z</time>
        <extensions><gpxtpx:TrackPointExtension><gpxtpx:hr>138</gpxtpx:hr></gpxtpx:TrackPointExtension></extensions>
      </trkpt>
      <trkpt lat="60.8784180472" lon="15.1622249371">
        <ele>347.4</ele>
        <time>2011-06-22T11:09:19Z</time>
        <extensions><gpxtpx:TrackPointExtension><gpxtpx:hr>137</gpxtpx:hr></gpxtpx:TrackPointExtension></extensions>
      </trkpt>
      <trkpt lat="60.8782645746" lon="15.1620891503">
        <ele>348.2</ele>
        <time>2011-06-22T11:09:25Z</time>
        <extensions><gpxtpx:TrackPointExtension><gpxtpx:hr>136</gpxtpx:hr></gpxtpx:TrackPointExtension></extensions>
      </trkpt>
      <trkpt lat="60.878121747" lon="15.1619619969">
        <ele>348.6</ele>
        <time>2011-06-22T11:09:31Z</time>
        <extensions><gpxtpx:TrackPointExtension><gpxtpx:hr>138</gpxtpx:hr></gpxtpx:TrackPointExtension></extensions>
      </trkpt>
      <trkpt lat="60.8779447213" lon="15.1618568879">
        <ele>349.6</ele>
        <time>2011-06-22T11:09:38Z</time>
        <extensions><gpxtpx:TrackPointExtension><gpxtpx:hr>139</gpxtpx:hr></gpxtpx:TrackPointExtension></extensions>
      </trkpt>
      <trkpt lat="60.877801307" lon="15.161784133">
        <ele>350.2</ele>
        <time>2011-06-22T11:09:43Z</time>
        <extensions><gpxtpx:TrackPointExtension><gpxtpx:hr>136</gpxtpx:hr></gpxtpx:TrackPointExtension></extensions>
      </trkpt>
      <trkpt lat="60.8776412127" lon="15.1616691333">
        <ele>350.6</ele>
        <time>2011-06-22T11:09:49Z</time>
        <extensions><gpxtpx:TrackPointExtension><gpxtpx:hr>136</gpxtpx:hr></gpxtpx:TrackPointExtension></extensions>
      </trkpt>
      <trkpt lat="60.8774904223" lon="15.1615589113">
        <ele>351.8</ele>
        <time>2011-06-22T11:09:55Z</time>
        <extensions><gpxtpx:TrackPointExtension><gpxtpx:hr>135</gpxtpx:hr></gpxtpx:TrackPointExtension></extensions>
      </trkpt>
      <trkpt lat="60.877342817" lon="15.1614563169">
        <ele>352.6</ele>
        <time>2011-06-22T11:10:01Z</time>
        <extensions><gpxtpx:TrackPointExtension><gpxtpx:hr>136</gpxtpx:hr></gpxtpx:TrackPointExtension></extensions>
      </trkpt>
      <trkpt lat="60.8772241293" lon="15.1613673849">
        <ele>352.8</ele>
        <time>2011-06-22T11:10:06Z</time>
        <extensions><gpxtpx:TrackPointExtension><gpxtpx:hr>135</gpxtpx:hr></gpxtpx:TrackPointExtension></extensions>
      </trkpt>
      <trkpt lat="60.8770718302" lon="15.1613127349">
        <ele>353.8</ele>
        <time>2011-06-22T11:10:12Z</time>
        <extensions><gpxtpx:TrackPointExtension><gpxtpx:hr>136</gpxtpx:hr></gpxtpx:TrackPointExtension></extensions>
      </trkpt>
      <trkpt lat="60.8769738458" lon="15.1612894332">
        <ele>354.2</ele>
        <time>2011-06-22T11:10:16Z</time>
        <extensions><gpxtpx:TrackPointExtension><gpxtpx:hr>136</gpxtpx:hr></gpxtpx:TrackPointExtension></extensions>
      </trkpt>
      <trkpt lat="60.8769586746" lon="15.1610632058">
        <ele>354.6</ele>
        <time>2011-06-22T11:10:21Z</time>
        <extensions><gpxtpx:TrackPointExtension><gpxtpx:hr>135</gpxtpx:hr></gpxtpx:TrackPointExtension></extensions>
      </trkpt>
      <trkpt lat="60.8769430842" lon="15.1609471164">
        <ele>354.8</ele>
        <time>2011-06-22T11:10:25Z</time>
        <extensions><gpxtpx:TrackPointExtension><gpxtpx:hr>132</gpxtpx:hr></gpxtpx:TrackPointExtension></extensions>
      </trkpt>
      <trkpt lat="60.8769515499" lon="15.1608348828">
        <ele>355</ele>
        <time>2011-06-22T11:10:30Z</time>
        <extensions><gpxtpx:TrackPointExtension><gpxtpx:hr>132</gpxtpx:hr></gpxtpx:TrackPointExtension></extensions>
      </trkpt>
      <trkpt lat="60.8769542322" lon="15.160814431">
        <ele>355</ele>
        <time>2011-06-22T11:10:31Z</time>
        <extensions><gpxtpx:TrackPointExtension><gpxtpx:hr>132</gpxtpx:hr></gpxtpx:TrackPointExtension></extensions>
      </trkpt>
      <trkpt lat="60.8769973151" lon="15.1606615451">
        <ele>355.2</ele>
        <time>2011-06-22T11:10:37Z</time>
        <extensions><gpxtpx:TrackPointExtension><gpxtpx:hr>133</gpxtpx:hr></gpxtpx:TrackPointExtension></extensions>
      </trkpt>
      <trkpt lat="60.8769777015" lon="15.1604833459">
        <ele>355.2</ele>
        <time>2011-06-22T11:10:43Z</time>
        <extensions><gpxtpx:TrackPointExtension><gpxtpx:hr>136</gpxtpx:hr></gpxtpx:TrackPointExtension></extensions>
      </trkpt>
      <trkpt lat="60.8769664697" lon="15.1604626426">
        <ele>355.2</ele>
        <time>2011-06-22T11:10:44Z</time>
        <extensions><gpxtpx:TrackPointExtension><gpxtpx:hr>137</gpxtpx:hr></gpxtpx:TrackPointExtension></extensions>
      </trkpt>
      <trkpt lat="60.8769958902" lon="15.1603200665">
        <ele>355.2</ele>
        <time>2011-06-22T11:10:51Z</time>
        <extensions><gpxtpx:TrackPointExtension><gpxtpx:hr>139</gpxtpx:hr></gpxtpx:TrackPointExtension></extensions>
      </trkpt>
      <trkpt lat="60.8770051103" lon="15.1602873771">
        <ele>355.2</ele>
        <time>2011-06-22T11:10:52Z</time>
        <extensions><gpxtpx:TrackPointExtension><gpxtpx:hr>139</gpxtpx:hr></gpxtpx:TrackPointExtension></extensions>
      </trkpt>
      <trkpt lat="60.877014498" lon="15.1602504967">
        <ele>355.2</ele>
        <time>2011-06-22T11:10:53Z</time>
        <extensions><gpxtpx:TrackPointExtension><gpxtpx:hr>139</gpxtpx:hr></gpxtpx:TrackPointExtension></extensions>
      </trkpt>
      <trkpt lat="60.8769771986" lon="15.1600588027">
        <ele>355.2</ele>
        <time>2011-06-22T11:10:58Z</time>
        <extensions><gpxtpx:TrackPointExtension><gpxtpx:hr>140</gpxtpx:hr></gpxtpx:TrackPointExtension></extensions>
      </trkpt>
      <trkpt lat="60.876949203" lon="15.1599452279">
        <ele>356</ele>
        <time>2011-06-22T11:11:02Z</time>
        <extensions><gpxtpx:TrackPointExtension><gpxtpx:hr>141</gpxtpx:hr></gpxtpx:TrackPointExtension></extensions>
      </trkpt>
      <trkpt lat="60.8769265719" lon="15.1598387778">
        <ele>356.4</ele>
        <time>2011-06-22T11:11:06Z</time>
        <extensions><gpxtpx:TrackPointExtension><gpxtpx:hr>141</gpxtpx:hr></gpxtpx:TrackPointExtension></extensions>
      </trkpt>
      <trkpt lat="60.8768678986" lon="15.1597204254">
        <ele>356.8</ele>
        <time>2011-06-22T11:11:11Z</time>
        <extensions><gpxtpx:TrackPointExtension><gpxtpx:hr>142</gpxtpx:hr></gpxtpx:TrackPointExtension></extensions>
      </trkpt>
      <trkpt lat="60.876867228" lon="15.1596561362">
        <ele>356.8</ele>
        <time>2011-06-22T11:11:13Z</time>
        <extensions><gpxtpx:TrackPointExtension><gpxtpx:hr>143</gpxtpx:hr></gpxtpx:TrackPointExtension></extensions>
      </trkpt>
      <trkpt lat="60.8768772863" lon="15.1595911765">
        <ele>357.4</ele>
        <time>2011-06-22T11:11:15Z</time>
        <extensions><gpxtpx:TrackPointExtension><gpxtpx:hr>145</gpxtpx:hr></gpxtpx:TrackPointExtension></extensions>
      </trkpt>
      <trkpt lat="60.8768479497" lon="15.1594507797">
        <ele>358</ele>
        <time>2011-06-22T11:11:19Z</time>
        <extensions><gpxtpx:TrackPointExtension><gpxtpx:hr>145</gpxtpx:hr></gpxtpx:TrackPointExtension></extensions>
      </trkpt>
      <trkpt lat="60.8768349577" lon="15.1593652843">
        <ele>358.4</ele>
        <time>2011-06-22T11:11:21Z</time>
        <extensions><gpxtpx:TrackPointExtension><gpxtpx:hr>144</gpxtpx:hr></gpxtpx:TrackPointExtension></extensions>
      </trkpt>
      <trkpt lat="60.8768240612" lon="15.1591942097">
        <ele>358.8</ele>
        <time>2011-06-22T11:11:26Z</time>
        <extensions><gpxtpx:TrackPointExtension><gpxtpx:hr>142</gpxtpx:hr></gpxtpx:TrackPointExtension></extensions>
      </trkpt>
      <trkpt lat="60.8768156793" lon="15.1591610174">
        <ele>358.8</ele>
        <time>2011-06-22T11:11:27Z</time>
        <extensions><gpxtpx:TrackPointExtension><gpxtpx:hr>141</gpxtpx:hr></gpxtpx:TrackPointExtension></extensions>
      </trkpt>
      <trkpt lat="60.8768062078" lon="15.1590830657">
        <ele>359</ele>
        <time>2011-06-22T11:11:29Z</time>
        <extensions><gpxtpx:TrackPointExtension><gpxtpx:hr>141</gpxtpx:hr></gpxtpx:TrackPointExtension></extensions>
      </trkpt>
      <trkpt lat="60.8767646336" lon="15.1589431718">
        <ele>359.2</ele>
        <time>2011-06-22T11:11:34Z</time>
        <extensions><gpxtpx:TrackPointExtension><gpxtpx:hr>141</gpxtpx:hr></gpxtpx:TrackPointExtension></extensions>
      </trkpt>
      <trkpt lat="60.8767176111" lon="15.1588793855">
        <ele>359.2</ele>
        <time>2011-06-22T11:11:37Z</time>
        <extensions><gpxtpx:TrackPointExtension><gpxtpx:hr>141</gpxtpx:hr></gpxtpx:TrackPointExtension></extensions>
      </trkpt>
      <trkpt lat="60.8766284277" lon="15.1586685808">
        <ele>360.4</ele>
        <time>2011-06-22T11:11:45Z</time>
        <extensions><gpxtpx:TrackPointExtension><gpxtpx:hr>143</gpxtpx:hr></gpxtpx:TrackPointExtension></extensions>
      </trkpt>
      <trkpt lat="60.8765456983" lon="15.1584949916">
        <ele>361.2</ele>
        <time>2011-06-22T11:11:52Z</time>
        <extensions><gpxtpx:TrackPointExtension><gpxtpx:hr>144</gpxtpx:hr></gpxtpx:TrackPointExtension></extensions>
      </trkpt>
      <trkpt lat="60.8764984244" lon="15.15840036">
        <ele>362.2</ele>
        <time>2011-06-22T11:11:57Z</time>
        <extensions><gpxtpx:TrackPointExtension><gpxtpx:hr>145</gpxtpx:hr></gpxtpx:TrackPointExtension></extensions>
      </trkpt>
      <trkpt lat="60.8764604544" lon="15.1582698538">
        <ele>362.6</ele>
        <time>2011-06-22T11:12:01Z</time>
        <extensions><gpxtpx:TrackPointExtension><gpxtpx:hr>145</gpxtpx:hr></gpxtpx:TrackPointExtension></extensions>
      </trkpt>
      <trkpt lat="60.8764431877" lon="15.1582037206">
        <ele>363</ele>
        <time>2011-06-22T11:12:03Z</time>
        <extensions><gpxtpx:TrackPointExtension><gpxtpx:hr>145</gpxtpx:hr></gpxtpx:TrackPointExtension></extensions>
      </trkpt>
      <trkpt lat="60.8764132643" lon="15.1581478971">
        <ele>363.4</ele>
        <time>2011-06-22T11:12:05Z</time>
        <extensions><gpxtpx:TrackPointExtension><gpxtpx:hr>145</gpxtpx:hr></gpxtpx:TrackPointExtension></extensions>
      </trkpt>
      <trkpt lat="60.8763421858" lon="15.1579533532">
        <ele>364.6</ele>
        <time>2011-06-22T11:12:12Z</time>
        <extensions><gpxtpx:TrackPointExtension><gpxtpx:hr>143</gpxtpx:hr></gpxtpx:TrackPointExtension></extensions>
      </trkpt>
      <trkpt lat="60.8762878711" lon="15.1577198335">
        <ele>365.8</ele>
        <time>2011-06-22T11:12:18Z</time>
        <extensions><gpxtpx:TrackPointExtension><gpxtpx:hr>140</gpxtpx:hr></gpxtpx:TrackPointExtension></extensions>
      </trkpt>
      <trkpt lat="60.8762519127" lon="15.1576003914">
        <ele>366.2</ele>
        <time>2011-06-22T11:12:21Z</time>
        <extensions><gpxtpx:TrackPointExtension><gpxtpx:hr>139</gpxtpx:hr></gpxtpx:TrackPointExtension></extensions>
      </trkpt>
      <trkpt lat="60.8761722009" lon="15.1575164048">
        <ele>366.8</ele>
        <time>2011-06-22T11:12:26Z</time>
        <extensions><gpxtpx:TrackPointExtension><gpxtpx:hr>139</gpxtpx:hr></gpxtpx:TrackPointExtension></extensions>
      </trkpt>
      <trkpt lat="60.8761183891" lon="15.157443147">
        <ele>367.2</ele>
        <time>2011-06-22T11:12:31Z</time>
        <extensions><gpxtpx:TrackPointExtension><gpxtpx:hr>134</gpxtpx:hr></gpxtpx:TrackPointExtension></extensions>
      </trkpt>
      <trkpt lat="60.8761118512" lon="15.1573978847">
        <ele>367.2</ele>
        <time>2011-06-22T11:12:33Z</time>
        <extensions><gpxtpx:TrackPointExtension><gpxtpx:hr>140</gpxtpx:hr></gpxtpx:TrackPointExtension></extensions>
      </trkpt>
      <trkpt lat="60.8761105101" lon="15.1573768461">
        <ele>367.2</ele>
        <time>2011-06-22T11:12:34Z</time>
        <extensions><gpxtpx:TrackPointExtension><gpxtpx:hr>140</gpxtpx:hr></gpxtpx:TrackPointExtension></extensions>
      </trkpt>
      <trkpt lat="60.8761072412" lon="15.1573735772">
        <ele>367.8</ele>
        <time>2011-06-22T11:12:38Z</time>
        <extensions><gpxtpx:TrackPointExtension><gpxtpx:hr>134</gpxtpx:hr></gpxtpx:TrackPointExtension></extensions>
      </trkpt>
      <trkpt lat="60.8760999489" lon="15.157292189">
        <ele>368.4</ele>
        <time>2011-06-22T11:12:42Z</time>
        <extensions><gpxtpx:TrackPointExtension><gpxtpx:hr>129</gpxtpx:hr></gpxtpx:TrackPointExtension></extensions>
      </trkpt>
      <trkpt lat="60.8761021282" lon="15.1571961324">
        <ele>369.8</ele>
        <time>2011-06-22T11:12:49Z</time>
        <extensions><gpxtpx:TrackPointExtension><gpxtpx:hr>129</gpxtpx:hr></gpxtpx:TrackPointExtension></extensions>
      </trkpt>
      <trkpt lat="60.8760925728" lon="15.1570695657">
        <ele>370.6</ele>
        <time>2011-06-22T11:12:55Z</time>
        <extensions><gpxtpx:TrackPointExtension><gpxtpx:hr>127</gpxtpx:hr></gpxtpx:TrackPointExtension></extensions>
      </trkpt>
      <trkpt lat="60.8760972667" lon="15.1570339426">
        <ele>370.8</ele>
        <time>2011-06-22T11:12:56Z</time>
        <extensions><gpxtpx:TrackPointExtension><gpxtpx:hr>126</gpxtpx:hr></gpxtpx:TrackPointExtension></extensions>
      </trkpt>
      <trkpt lat="60.8761060677" lon="15.1569599304">
        <ele>371</ele>
        <time>2011-06-22T11:12:58Z</time>
        <extensions><gpxtpx:TrackPointExtension><gpxtpx:hr>126</gpxtpx:hr></gpxtpx:TrackPointExtension></extensions>
      </trkpt>
      <trkpt lat="60.876105481" lon="15.1568285861">
        <ele>371.4</ele>
        <time>2011-06-22T11:13:02Z</time>
        <extensions><gpxtpx:TrackPointExtension><gpxtpx:hr>126</gpxtpx:hr></gpxtpx:TrackPointExtension></extensions>
      </trkpt>
      <trkpt lat="60.8761118512" lon="15.1567859222">
        <ele>371.6</ele>
        <time>2011-06-22T11:13:03Z</time>
        <extensions><gpxtpx:TrackPointExtension><gpxtpx:hr>126</gpxtpx:hr></gpxtpx:TrackPointExtension></extensions>
      </trkpt>
      <trkpt lat="60.876138338" lon="15.1566294321">
        <ele>372.4</ele>
        <time>2011-06-22T11:13:08Z</time>
        <extensions><gpxtpx:TrackPointExtension><gpxtpx:hr>128</gpxtpx:hr></gpxtpx:TrackPointExtension></extensions>
      </trkpt>
      <trkpt lat="60.8761314648" lon="15.1565658135">
        <ele>372.6</ele>
        <time>2011-06-22T11:13:10Z</time>
        <extensions><gpxtpx:TrackPointExtension><gpxtpx:hr>128</gpxtpx:hr></gpxtpx:TrackPointExtension></extensions>
      </trkpt>
      <trkpt lat="60.8761194787" lon="15.1563901289">
        <ele>373.2</ele>
        <time>2011-06-22T11:13:16Z</time>
        <extensions><gpxtpx:TrackPointExtension><gpxtpx:hr>131</gpxtpx:hr></gpxtpx:TrackPointExtension></extensions>
      </trkpt>
      <trkpt lat="60.8761168803" lon="15.1562597065">
        <ele>373.4</ele>
        <time>2011-06-22T11:13:21Z</time>
        <extensions><gpxtpx:TrackPointExtension><gpxtpx:hr>133</gpxtpx:hr></gpxtpx:TrackPointExtension></extensions>
      </trkpt>
      <trkpt lat="60.8760825146" lon="15.1561746302">
        <ele>373.4</ele>
        <time>2011-06-22T11:13:26Z</time>
        <extensions><gpxtpx:TrackPointExtension><gpxtpx:hr>133</gpxtpx:hr></gpxtpx:TrackPointExtension></extensions>
      </trkpt>
      <trkpt lat="60.8760360788" lon="15.1560304615">
        <ele>373.6</ele>
        <time>2011-06-22T11:13:31Z</time>
        <extensions><gpxtpx:TrackPointExtension><gpxtpx:hr>133</gpxtpx:hr></gpxtpx:TrackPointExtension></extensions>
      </trkpt>
      <trkpt lat="60.8760138668" lon="15.155945972">
        <ele>373.6</ele>
        <time>2011-06-22T11:13:33Z</time>
        <extensions><gpxtpx:TrackPointExtension><gpxtpx:hr>133</gpxtpx:hr></gpxtpx:TrackPointExtension></extensions>
      </trkpt>
      <trkpt lat="60.8760029703" lon="15.1558836945">
        <ele>373.6</ele>
        <time>2011-06-22T11:13:35Z</time>
        <extensions><gpxtpx:TrackPointExtension><gpxtpx:hr>133</gpxtpx:hr></gpxtpx:TrackPointExtension></extensions>
      </trkpt>
      <trkpt lat="60.8759985279" lon="15.1557887275">
        <ele>373.6</ele>
        <time>2011-06-22T11:13:38Z</time>
        <extensions><gpxtpx:TrackPointExtension><gpxtpx:hr>133</gpxtpx:hr></gpxtpx:TrackPointExtension></extensions>
      </trkpt>
      <trkpt lat="60.8759301316" lon="15.1556515158">
        <ele>373.6</ele>
        <time>2011-06-22T11:13:44Z</time>
        <extensions><gpxtpx:TrackPointExtension><gpxtpx:hr>134</gpxtpx:hr></gpxtpx:TrackPointExtension></extensions>
      </trkpt>
      <trkpt lat="60.8758871325" lon="15.1554089437">
        <ele>373.8</ele>
        <time>2011-06-22T11:13:51Z</time>
        <extensions><gpxtpx:TrackPointExtension><gpxtpx:hr>134</gpxtpx:hr></gpxtpx:TrackPointExtension></extensions>
      </trkpt>
      <trkpt lat="60.8758752302" lon="15.1553743264">
        <ele>374</ele>
        <time>2011-06-22T11:13:52Z</time>
        <extensions><gpxtpx:TrackPointExtension><gpxtpx:hr>134</gpxtpx:hr></gpxtpx:TrackPointExtension></extensions>
      </trkpt>
      <trkpt lat="60.8758189038" lon="15.1550798703">
        <ele>374.8</ele>
        <time>2011-06-22T11:13:59Z</time>
        <extensions><gpxtpx:TrackPointExtension><gpxtpx:hr>136</gpxtpx:hr></gpxtpx:TrackPointExtension></extensions>
      </trkpt>
      <trkpt lat="60.8757978652" lon="15.1549412336">
        <ele>375.2</ele>
        <time>2011-06-22T11:14:02Z</time>
        <extensions><gpxtpx:TrackPointExtension><gpxtpx:hr>137</gpxtpx:hr></gpxtpx:TrackPointExtension></extensions>
      </trkpt>
      <trkpt lat="60.875741455" lon="15.1547457677">
        <ele>375.6</ele>
        <time>2011-06-22T11:14:07Z</time>
        <extensions><gpxtpx:TrackPointExtension><gpxtpx:hr>137</gpxtpx:hr></gpxtpx:TrackPointExtension></extensions>
      </trkpt>
      <trkpt lat="60.8757262" lon="15.1546126632">
        <ele>376.4</ele>
        <time>2011-06-22T11:14:11Z</time>
        <extensions><gpxtpx:TrackPointExtension><gpxtpx:hr>137</gpxtpx:hr></gpxtpx:TrackPointExtension></extensions>
      </trkpt>
      <trkpt lat="60.8757167284" lon="15.1545303529">
        <ele>376.6</ele>
        <time>2011-06-22T11:14:13Z</time>
        <extensions><gpxtpx:TrackPointExtension><gpxtpx:hr>137</gpxtpx:hr></gpxtpx:TrackPointExtension></extensions>
      </trkpt>
      <trkpt lat="60.8757004675" lon="15.1544539938">
        <ele>376.8</ele>
        <time>2011-06-22T11:14:15Z</time>
        <extensions><gpxtpx:TrackPointExtension><gpxtpx:hr>137</gpxtpx:hr></gpxtpx:TrackPointExtension></extensions>
      </trkpt>
      <trkpt lat="60.8756791775" lon="15.1542234077">
        <ele>377.2</ele>
        <time>2011-06-22T11:14:21Z</time>
        <extensions><gpxtpx:TrackPointExtension><gpxtpx:hr>137</gpxtpx:hr></gpxtpx:TrackPointExtension></extensions>
      </trkpt>
      <trkpt lat="60.8756747351" lon="15.1541845995">
        <ele>377.4</ele>
        <time>2011-06-22T11:14:22Z</time>
        <extensions><gpxtpx:TrackPointExtension><gpxtpx:hr>137</gpxtpx:hr></gpxtpx:TrackPointExtension></extensions>
      </trkpt>
      <trkpt lat="60.8756264554" lon="15.1540022094">
        <ele>377.4</ele>
        <time>2011-06-22T11:14:26Z</time>
        <extensions><gpxtpx:TrackPointExtension><gpxtpx:hr>138</gpxtpx:hr></gpxtpx:TrackPointExtension></extensions>
      </trkpt>
      <trkpt lat="60.8755822828" lon="15.153818059">
        <ele>377.6</ele>
        <time>2011-06-22T11:14:30Z</time>
        <extensions><gpxtpx:TrackPointExtension><gpxtpx:hr>140</gpxtpx:hr></gpxtpx:TrackPointExtension></extensions>
      </trkpt>
      <trkpt lat="60.875546492" lon="15.1535925021">
        <ele>378.2</ele>
        <time>2011-06-22T11:14:35Z</time>
        <extensions><gpxtpx:TrackPointExtension><gpxtpx:hr>142</gpxtpx:hr></gpxtpx:TrackPointExtension></extensions>
      </trkpt>
      <trkpt lat="60.8755382778" lon="15.1534270434">
        <ele>378.8</ele>
        <time>2011-06-22T11:14:39Z</time>
        <extensions><gpxtpx:TrackPointExtension><gpxtpx:hr>144</gpxtpx:hr></gpxtpx:TrackPointExtension></extensions>
      </trkpt>
      <trkpt lat="60.8755297282" lon="15.1533513548">
        <ele>379</ele>
        <time>2011-06-22T11:14:41Z</time>
        <extensions><gpxtpx:TrackPointExtension><gpxtpx:hr>144</gpxtpx:hr></gpxtpx:TrackPointExtension></extensions>
      </trkpt>
      <trkpt lat="60.8755014812" lon="15.1531235348">
        <ele>379.4</ele>
        <time>2011-06-22T11:14:46Z</time>
        <extensions><gpxtpx:TrackPointExtension><gpxtpx:hr>144</gpxtpx:hr></gpxtpx:TrackPointExtension></extensions>
      </trkpt>
      <trkpt lat="60.8754749944" lon="15.152916921">
        <ele>379.6</ele>
        <time>2011-06-22T11:14:53Z</time>
        <extensions><gpxtpx:TrackPointExtension><gpxtpx:hr>143</gpxtpx:hr></gpxtpx:TrackPointExtension></extensions>
      </trkpt>
      <trkpt lat="60.8754362701" lon="15.1527964731">
        <ele>379.6</ele>
        <time>2011-06-22T11:14:57Z</time>
        <extensions><gpxtpx:TrackPointExtension><gpxtpx:hr>142</gpxtpx:hr></gpxtpx:TrackPointExtension></extensions>
      </trkpt>
      <trkpt lat="60.8754167402" lon="15.152726568">
        <ele>379.8</ele>
        <time>2011-06-22T11:14:59Z</time>
        <extensions><gpxtpx:TrackPointExtension><gpxtpx:hr>142</gpxtpx:hr></gpxtpx:TrackPointExtension></extensions>
      </trkpt>
      <trkpt lat="60.8753859787" lon="15.1526208723">
        <ele>379.8</ele>
        <time>2011-06-22T11:15:02Z</time>
        <extensions><gpxtpx:TrackPointExtension><gpxtpx:hr>141</gpxtpx:hr></gpxtpx:TrackPointExtension></extensions>
      </trkpt>
      <trkpt lat="60.8753846376" lon="15.1525823155">
        <ele>379.8</ele>
        <time>2011-06-22T11:15:03Z</time>
        <extensions><gpxtpx:TrackPointExtension><gpxtpx:hr>141</gpxtpx:hr></gpxtpx:TrackPointExtension></extensions>
      </trkpt>
      <trkpt lat="60.8753833803" lon="15.1524103189">
        <ele>379.8</ele>
        <time>2011-06-22T11:15:07Z</time>
        <extensions><gpxtpx:TrackPointExtension><gpxtpx:hr>140</gpxtpx:hr></gpxtpx:TrackPointExtension></extensions>
      </trkpt>
      <trkpt lat="60.8753468352" lon="15.1520669963">
        <ele>379.8</ele>
        <time>2011-06-22T11:15:14Z</time>
        <extensions><gpxtpx:TrackPointExtension><gpxtpx:hr>140</gpxtpx:hr></gpxtpx:TrackPointExtension></extensions>
      </trkpt>
      <trkpt lat="60.8753384533" lon="15.1520249192">
        <ele>379.8</ele>
        <time>2011-06-22T11:15:15Z</time>
        <extensions><gpxtpx:TrackPointExtension><gpxtpx:hr>140</gpxtpx:hr></gpxtpx:TrackPointExtension></extensions>
      </trkpt>
      <trkpt lat="60.8752830489" lon="15.1518917308">
        <ele>379.8</ele>
        <time>2011-06-22T11:15:19Z</time>
        <extensions><gpxtpx:TrackPointExtension><gpxtpx:hr>139</gpxtpx:hr></gpxtpx:TrackPointExtension></extensions>
      </trkpt>
      <trkpt lat="60.8752869884" lon="15.1515676865">
        <ele>379.8</ele>
        <time>2011-06-22T11:15:25Z</time>
        <extensions><gpxtpx:TrackPointExtension><gpxtpx:hr>138</gpxtpx:hr></gpxtpx:TrackPointExtension></extensions>
      </trkpt>
      <trkpt lat="60.875286737" lon="15.151465595">
        <ele>379.8</ele>
        <time>2011-06-22T11:15:27Z</time>
        <extensions><gpxtpx:TrackPointExtension><gpxtpx:hr>138</gpxtpx:hr></gpxtpx:TrackPointExtension></extensions>
      </trkpt>
      <trkpt lat="60.875201996" lon="15.1514606497">
        <ele>379.8</ele>
        <time>2011-06-22T11:15:32Z</time>
        <extensions><gpxtpx:TrackPointExtension><gpxtpx:hr>137</gpxtpx:hr></gpxtpx:TrackPointExtension></extensions>
      </trkpt>
      <trkpt lat="60.8751563146" lon="15.1514560396">
        <ele>379.8</ele>
        <time>2011-06-22T11:15:34Z</time>
        <extensions><gpxtpx:TrackPointExtension><gpxtpx:hr>136</gpxtpx:hr></gpxtpx:TrackPointExtension></extensions>
      </trkpt>
      <trkpt lat="60.8750061948" lon="15.151368784">
        <ele>379.8</ele>
        <time>2011-06-22T11:15:41Z</time>
        <extensions><gpxtpx:TrackPointExtension><gpxtpx:hr>134</gpxtpx:hr></gpxtpx:TrackPointExtension></extensions>
      </trkpt>
      <trkpt lat="60.874977361" lon="15.1513477455">
        <ele>379.8</ele>
        <time>2011-06-22T11:15:42Z</time>
        <extensions><gpxtpx:TrackPointExtension><gpxtpx:hr>133</gpxtpx:hr></gpxtpx:TrackPointExtension></extensions>
      </trkpt>
      <trkpt lat="60.87488801" lon="15.1513592287">
        <ele>379.8</ele>
        <time>2011-06-22T11:15:46Z</time>
        <extensions><gpxtpx:TrackPointExtension><gpxtpx:hr>134</gpxtpx:hr></gpxtpx:TrackPointExtension></extensions>
      </trkpt>
      <trkpt lat="60.8748031852" lon="15.1513563788">
        <ele>379.8</ele>
        <time>2011-06-22T11:15:50Z</time>
        <extensions><gpxtpx:TrackPointExtension><gpxtpx:hr>132</gpxtpx:hr></gpxtpx:TrackPointExtension></extensions>
      </trkpt>
      <trkpt lat="60.8746591003" lon="15.1513708795">
        <ele>379</ele>
        <time>2011-06-22T11:15:57Z</time>
        <extensions><gpxtpx:TrackPointExtension><gpxtpx:hr>130</gpxtpx:hr></gpxtpx:TrackPointExtension></extensions>
      </trkpt>
      <trkpt lat="60.8746098147" lon="15.1513386092">
        <ele>378.4</ele>
        <time>2011-06-22T11:16:03Z</time>
        <extensions><gpxtpx:TrackPointExtension><gpxtpx:hr>127</gpxtpx:hr></gpxtpx:TrackPointExtension></extensions>
      </trkpt>
      <trkpt lat="60.8745077232" lon="15.1513439736">
        <ele>374.6</ele>
        <time>2011-06-22T11:16:40Z</time>
        <extensions><gpxtpx:TrackPointExtension><gpxtpx:hr>116</gpxtpx:hr></gpxtpx:TrackPointExtension></extensions>
      </trkpt>
      <trkpt lat="60.8744903726" lon="15.1513453985">
        <ele>374.4</ele>
        <time>2011-06-22T11:16:41Z</time>
        <extensions><gpxtpx:TrackPointExtension><gpxtpx:hr>116</gpxtpx:hr></gpxtpx:TrackPointExtension></extensions>
      </trkpt>
      <trkpt lat="60.8743343017" lon="15.1513852964">
        <ele>374.2</ele>
        <time>2011-06-22T11:16:46Z</time>
        <extensions><gpxtpx:TrackPointExtension><gpxtpx:hr>115</gpxtpx:hr></gpxtpx:TrackPointExtension></extensions>
      </trkpt>
      <trkpt lat="60.8742098305" lon="15.1514709594">
        <ele>374</ele>
        <time>2011-06-22T11:16:51Z</time>
        <extensions><gpxtpx:TrackPointExtension><gpxtpx:hr>116</gpxtpx:hr></gpxtpx:TrackPointExtension></extensions>
      </trkpt>
      <trkpt lat="60.8741590361" lon="15.1517417786">
        <ele>373</ele>
        <time>2011-06-22T11:16:57Z</time>
        <extensions><gpxtpx:TrackPointExtension><gpxtpx:hr>118</gpxtpx:hr></gpxtpx:TrackPointExtension></extensions>
      </trkpt>
      <trkpt lat="60.8741208985" lon="15.1520184651">
        <ele>372.4</ele>
        <time>2011-06-22T11:17:02Z</time>
        <extensions><gpxtpx:TrackPointExtension><gpxtpx:hr>118</gpxtpx:hr></gpxtpx:TrackPointExtension></extensions>
      </trkpt>
      <trkpt lat="60.8740784861" lon="15.1522926371">
        <ele>372.2</ele>
        <time>2011-06-22T11:17:07Z</time>
        <extensions><gpxtpx:TrackPointExtension><gpxtpx:hr>119</gpxtpx:hr></gpxtpx:TrackPointExtension></extensions>
      </trkpt>
      <trkpt lat="60.8740397617" lon="15.1526094729">
        <ele>372</ele>
        <time>2011-06-22T11:17:13Z</time>
        <extensions><gpxtpx:TrackPointExtension><gpxtpx:hr>120</gpxtpx:hr></gpxtpx:TrackPointExtension></extensions>
      </trkpt>
      <trkpt lat="60.8739819266" lon="15.1528302521">
        <ele>371.8</ele>
        <time>2011-06-22T11:17:18Z</time>
        <extensions><gpxtpx:TrackPointExtension><gpxtpx:hr>121</gpxtpx:hr></gpxtpx:TrackPointExtension></extensions>
      </trkpt>
      <trkpt lat="60.8739235047" lon="15.1529198546">
        <ele>371.8</ele>
        <time>2011-06-22T11:17:21Z</time>
        <extensions><gpxtpx:TrackPointExtension><gpxtpx:hr>121</gpxtpx:hr></gpxtpx:TrackPointExtension></extensions>
      </trkpt>
      <trkpt lat="60.8738738839" lon="15.1530230358">
        <ele>371.8</ele>
        <time>2011-06-22T11:17:24Z</time>
        <extensions><gpxtpx:TrackPointExtension><gpxtpx:hr>121</gpxtpx:hr></gpxtpx:TrackPointExtension></extensions>
      </trkpt>
      <trkpt lat="60.8738246821" lon="15.1532029952">
        <ele>371.8</ele>
        <time>2011-06-22T11:17:28Z</time>
        <extensions><gpxtpx:TrackPointExtension><gpxtpx:hr>122</gpxtpx:hr></gpxtpx:TrackPointExtension></extensions>
      </trkpt>
      <trkpt lat="60.873785371" lon="15.1534367664">
        <ele>371.8</ele>
        <time>2011-06-22T11:17:33Z</time>
        <extensions><gpxtpx:TrackPointExtension><gpxtpx:hr>124</gpxtpx:hr></gpxtpx:TrackPointExtension></extensions>
      </trkpt>
      <trkpt lat="60.8737494965" lon="15.1537027241">
        <ele>371.8</ele>
        <time>2011-06-22T11:17:39Z</time>
        <extensions><gpxtpx:TrackPointExtension><gpxtpx:hr>128</gpxtpx:hr></gpxtpx:TrackPointExtension></extensions>
      </trkpt>
      <trkpt lat="60.87368395" lon="15.1540462982">
        <ele>371.8</ele>
        <time>2011-06-22T11:17:45Z</time>
        <extensions><gpxtpx:TrackPointExtension><gpxtpx:hr>126</gpxtpx:hr></gpxtpx:TrackPointExtension></extensions>
      </trkpt>
      <trkpt lat="60.8736585529" lon="15.1544408342">
        <ele>371.8</ele>
        <time>2011-06-22T11:17:52Z</time>
        <extensions><gpxtpx:TrackPointExtension><gpxtpx:hr>126</gpxtpx:hr></gpxtpx:TrackPointExtension></extensions>
      </trkpt>
      <trkpt lat="60.8736572118" lon="15.1545560015">
        <ele>371.8</ele>
        <time>2011-06-22T11:17:54Z</time>
        <extensions><gpxtpx:TrackPointExtension><gpxtpx:hr>126</gpxtpx:hr></gpxtpx:TrackPointExtension></extensions>
      </trkpt>
      <trkpt lat="60.8735914977" lon="15.1547825643">
        <ele>371.8</ele>
        <time>2011-06-22T11:17:59Z</time>
        <extensions><gpxtpx:TrackPointExtension><gpxtpx:hr>125</gpxtpx:hr></gpxtpx:TrackPointExtension></extensions>
      </trkpt>
      <trkpt lat="60.8735729737" lon="15.1548243061">
        <ele>371.8</ele>
        <time>2011-06-22T11:18:00Z</time>
        <extensions><gpxtpx:TrackPointExtension><gpxtpx:hr>124</gpxtpx:hr></gpxtpx:TrackPointExtension></extensions>
      </trkpt>
      <trkpt lat="60.8734549565" lon="15.1550297465">
        <ele>371.8</ele>
        <time>2011-06-22T11:18:05Z</time>
        <extensions><gpxtpx:TrackPointExtension><gpxtpx:hr>132</gpxtpx:hr></gpxtpx:TrackPointExtension></extensions>
      </trkpt>
      <trkpt lat="60.8734280506" lon="15.1550788644">
        <ele>371.8</ele>
        <time>2011-06-22T11:18:06Z</time>
        <extensions><gpxtpx:TrackPointExtension><gpxtpx:hr>132</gpxtpx:hr></gpxtpx:TrackPointExtension></extensions>
      </trkpt>
      <trkpt lat="60.8733064293" lon="15.1553067683">
        <ele>371.8</ele>
        <time>2011-06-22T11:18:11Z</time>
        <extensions><gpxtpx:TrackPointExtension><gpxtpx:hr>130</gpxtpx:hr></gpxtpx:TrackPointExtension></extensions>
      </trkpt>
      <trkpt lat="60.8731646075" lon="15.1554761665">
        <ele>371</ele>
        <time>2011-06-22T11:18:16Z</time>
        <extensions><gpxtpx:TrackPointExtension><gpxtpx:hr>125</gpxtpx:hr></gpxtpx:TrackPointExtension></extensions>
      </trkpt>
      <trkpt lat="60.8730013281" lon="15.1556591434">
        <ele>370.4</ele>
        <time>2011-06-22T11:18:22Z</time>
        <extensions><gpxtpx:TrackPointExtension><gpxtpx:hr>122</gpxtpx:hr></gpxtpx:TrackPointExtension></extensions>
      </trkpt>
      <trkpt lat="60.8729758471" lon="15.1556813554">
        <ele>370.2</ele>
        <time>2011-06-22T11:18:23Z</time>
        <extensions><gpxtpx:TrackPointExtension><gpxtpx:hr>121</gpxtpx:hr></gpxtpx:TrackPointExtension></extensions>
      </trkpt>
      <trkpt lat="60.872829583" lon="15.155772299">
        <ele>369.2</ele>
        <time>2011-06-22T11:18:28Z</time>
        <extensions><gpxtpx:TrackPointExtension><gpxtpx:hr>120</gpxtpx:hr></gpxtpx:TrackPointExtension></extensions>
      </trkpt>
      <trkpt lat="60.8726535631" lon="15.1558522624">
        <ele>367.6</ele>
        <time>2011-06-22T11:18:34Z</time>
        <extensions><gpxtpx:TrackPointExtension><gpxtpx:hr>119</gpxtpx:hr></gpxtpx:TrackPointExtension></extensions>
      </trkpt>
      <trkpt lat="60.8725458557" lon="15.1559590478">
        <ele>366.6</ele>
        <time>2011-06-22T11:18:38Z</time>
        <extensions><gpxtpx:TrackPointExtension><gpxtpx:hr>117</gpxtpx:hr></gpxtpx:TrackPointExtension></extensions>
      </trkpt>
      <trkpt lat="60.8723643875" lon="15.1561151187">
        <ele>364.6</ele>
        <time>2011-06-22T11:18:45Z</time>
        <extensions><gpxtpx:TrackPointExtension><gpxtpx:hr>112</gpxtpx:hr></gpxtpx:TrackPointExtension></extensions>
      </trkpt>
      <trkpt lat="60.8722389943" lon="15.156228442">
        <ele>363.2</ele>
        <time>2011-06-22T11:18:50Z</time>
        <extensions><gpxtpx:TrackPointExtension><gpxtpx:hr>108</gpxtpx:hr></gpxtpx:TrackPointExtension></extensions>
      </trkpt>
      <trkpt lat="60.8720677521" lon="15.1563448666">
        <ele>361</ele>
        <time>2011-06-22T11:18:57Z</time>
        <extensions><gpxtpx:TrackPointExtension><gpxtpx:hr>114</gpxtpx:hr></gpxtpx:TrackPointExtension></extensions>
      </trkpt>
      <trkpt lat="60.8719423589" lon="15.1564409232">
        <ele>359.6</ele>
        <time>2011-06-22T11:19:02Z</time>
        <extensions><gpxtpx:TrackPointExtension><gpxtpx:hr>119</gpxtpx:hr></gpxtpx:TrackPointExtension></extensions>
      </trkpt>
      <trkpt lat="60.8718592942" lon="15.1565096548">
        <ele>359</ele>
        <time>2011-06-22T11:19:05Z</time>
        <extensions><gpxtpx:TrackPointExtension><gpxtpx:hr>122</gpxtpx:hr></gpxtpx:TrackPointExtension></extensions>
      </trkpt>
      <trkpt lat="60.8717297101" lon="15.1566056275">
        <ele>358.2</ele>
        <time>2011-06-22T11:19:10Z</time>
        <extensions><gpxtpx:TrackPointExtension><gpxtpx:hr>126</gpxtpx:hr></gpxtpx:TrackPointExtension></extensions>
      </trkpt>
      <trkpt lat="60.871561653" lon="15.1566816514">
        <ele>356.4</ele>
        <time>2011-06-22T11:19:17Z</time>
        <extensions><gpxtpx:TrackPointExtension><gpxtpx:hr>130</gpxtpx:hr></gpxtpx:TrackPointExtension></extensions>
      </trkpt>
      <trkpt lat="60.8714968609" lon="15.1565861815">
        <ele>356</ele>
        <time>2011-06-22T11:19:20Z</time>
        <extensions><gpxtpx:TrackPointExtension><gpxtpx:hr>130</gpxtpx:hr></gpxtpx:TrackPointExtension></extensions>
      </trkpt>
      <trkpt lat="60.8714767443" lon="15.1565462837">
        <ele>355.8</ele>
        <time>2011-06-22T11:19:21Z</time>
        <extensions><gpxtpx:TrackPointExtension><gpxtpx:hr>130</gpxtpx:hr></gpxtpx:TrackPointExtension></extensions>
      </trkpt>
      <trkpt lat="60.8714479106" lon="15.1564025341">
        <ele>355</ele>
        <time>2011-06-22T11:19:24Z</time>
        <extensions><gpxtpx:TrackPointExtension><gpxtpx:hr>130</gpxtpx:hr></gpxtpx:TrackPointExtension></extensions>
      </trkpt>
      <trkpt lat="60.8715124512" lon="15.156163147">
        <ele>354.2</ele>
        <time>2011-06-22T11:19:29Z</time>
        <extensions><gpxtpx:TrackPointExtension><gpxtpx:hr>129</gpxtpx:hr></gpxtpx:TrackPointExtension></extensions>
      </trkpt>
      <trkpt lat="60.8715336574" lon="15.1561266019">
        <ele>354</ele>
        <time>2011-06-22T11:19:30Z</time>
        <extensions><gpxtpx:TrackPointExtension><gpxtpx:hr>129</gpxtpx:hr></gpxtpx:TrackPointExtension></extensions>
      </trkpt>
      <trkpt lat="60.8716478189" lon="15.1560173858">
        <ele>353.6</ele>
        <time>2011-06-22T11:19:35Z</time>
        <extensions><gpxtpx:TrackPointExtension><gpxtpx:hr>131</gpxtpx:hr></gpxtpx:TrackPointExtension></extensions>
      </trkpt>
      <trkpt lat="60.8717627347" lon="15.1559684355">
        <ele>353.2</ele>
        <time>2011-06-22T11:19:40Z</time>
        <extensions><gpxtpx:TrackPointExtension><gpxtpx:hr>133</gpxtpx:hr></gpxtpx:TrackPointExtension></extensions>
      </trkpt>
      <trkpt lat="60.8719060652" lon="15.1559772365">
        <ele>353</ele>
        <time>2011-06-22T11:19:46Z</time>
        <extensions><gpxtpx:TrackPointExtension><gpxtpx:hr>135</gpxtpx:hr></gpxtpx:TrackPointExtension></extensions>
      </trkpt>
      <trkpt lat="60.8720320452" lon="15.1559476484">
        <ele>353</ele>
        <time>2011-06-22T11:19:51Z</time>
        <extensions><gpxtpx:TrackPointExtension><gpxtpx:hr>134</gpxtpx:hr></gpxtpx:TrackPointExtension></extensions>
      </trkpt>
      <trkpt lat="60.8720819175" lon="15.1559381768">
        <ele>353</ele>
        <time>2011-06-22T11:19:53Z</time>
        <extensions><gpxtpx:TrackPointExtension><gpxtpx:hr>133</gpxtpx:hr></gpxtpx:TrackPointExtension></extensions>
      </trkpt>
      <trkpt lat="60.8722630504" lon="15.1557765738">
        <ele>353</ele>
        <time>2011-06-22T11:20:00Z</time>
        <extensions><gpxtpx:TrackPointExtension><gpxtpx:hr>131</gpxtpx:hr></gpxtpx:TrackPointExtension></extensions>
      </trkpt>
      <trkpt lat="60.8723068039" lon="15.1557105244">
        <ele>353</ele>
        <time>2011-06-22T11:20:02Z</time>
        <extensions><gpxtpx:TrackPointExtension><gpxtpx:hr>131</gpxtpx:hr></gpxtpx:TrackPointExtension></extensions>
      </trkpt>
      <trkpt lat="60.8723653095" lon="15.1555765817">
        <ele>352.8</ele>
        <time>2011-06-22T11:20:06Z</time>
        <extensions><gpxtpx:TrackPointExtension><gpxtpx:hr>130</gpxtpx:hr></gpxtpx:TrackPointExtension></extensions>
      </trkpt>
      <trkpt lat="60.8724406628" lon="15.1552961233">
        <ele>352.8</ele>
        <time>2011-06-22T11:20:12Z</time>
        <extensions><gpxtpx:TrackPointExtension><gpxtpx:hr>130</gpxtpx:hr></gpxtpx:TrackPointExtension></extensions>
      </trkpt>
      <trkpt lat="60.8724741904" lon="15.1550974723">
        <ele>352.8</ele>
        <time>2011-06-22T11:20:16Z</time>
        <extensions><gpxtpx:TrackPointExtension><gpxtpx:hr>130</gpxtpx:hr></gpxtpx:TrackPointExtension></extensions>
      </trkpt>
      <trkpt lat="60.8724712568" lon="15.1549155012">
        <ele>352.8</ele>
        <time>2011-06-22T11:20:20Z</time>
        <extensions><gpxtpx:TrackPointExtension><gpxtpx:hr>131</gpxtpx:hr></gpxtpx:TrackPointExtension></extensions>
      </trkpt>
      <trkpt lat="60.8724286767" lon="15.1546882679">
        <ele>352.8</ele>
        <time>2011-06-22T11:20:25Z</time>
        <extensions><gpxtpx:TrackPointExtension><gpxtpx:hr>132</gpxtpx:hr></gpxtpx:TrackPointExtension></extensions>
      </trkpt>
      <trkpt lat="60.8723737753" lon="15.1543523213">
        <ele>352.8</ele>
        <time>2011-06-22T11:20:32Z</time>
        <extensions><gpxtpx:TrackPointExtension><gpxtpx:hr>131</gpxtpx:hr></gpxtpx:TrackPointExtension></extensions>
      </trkpt>
      <trkpt lat="60.8723621244" lon="15.1540532552">
        <ele>352.8</ele>
        <time>2011-06-22T11:20:38Z</time>
        <extensions><gpxtpx:TrackPointExtension><gpxtpx:hr>128</gpxtpx:hr></gpxtpx:TrackPointExtension></extensions>
      </trkpt>
      <trkpt lat="60.8723529043" lon="15.1537622356">
        <ele>352.8</ele>
        <time>2011-06-22T11:20:44Z</time>
        <extensions><gpxtpx:TrackPointExtension><gpxtpx:hr>125</gpxtpx:hr></gpxtpx:TrackPointExtension></extensions>
      </trkpt>
      <trkpt lat="60.8723106596" lon="15.1534486687">
        <ele>352.8</ele>
        <time>2011-06-22T11:20:50Z</time>
        <extensions><gpxtpx:TrackPointExtension><gpxtpx:hr>123</gpxtpx:hr></gpxtpx:TrackPointExtension></extensions>
      </trkpt>
      <trkpt lat="60.8722567639" lon="15.1532135564">
        <ele>352.8</ele>
        <time>2011-06-22T11:20:55Z</time>
        <extensions><gpxtpx:TrackPointExtension><gpxtpx:hr>123</gpxtpx:hr></gpxtpx:TrackPointExtension></extensions>
      </trkpt>
      <trkpt lat="60.8722233202" lon="15.152980791">
        <ele>352.8</ele>
        <time>2011-06-22T11:21:00Z</time>
        <extensions><gpxtpx:TrackPointExtension><gpxtpx:hr>122</gpxtpx:hr></gpxtpx:TrackPointExtension></extensions>
      </trkpt>
      <trkpt lat="60.8722280978" lon="15.1527618558">
        <ele>352.8</ele>
        <time>2011-06-22T11:21:06Z</time>
        <extensions><gpxtpx:TrackPointExtension><gpxtpx:hr>123</gpxtpx:hr></gpxtpx:TrackPointExtension></extensions>
      </trkpt>
      <trkpt lat="60.8722209732" lon="15.1525129134">
        <ele>352.8</ele>
        <time>2011-06-22T11:21:11Z</time>
        <extensions><gpxtpx:TrackPointExtension><gpxtpx:hr>124</gpxtpx:hr></gpxtpx:TrackPointExtension></extensions>
      </trkpt>
      <trkpt lat="60.8722010243" lon="15.1523644699">
        <ele>352.8</ele>
        <time>2011-06-22T11:21:14Z</time>
        <extensions><gpxtpx:TrackPointExtension><gpxtpx:hr>125</gpxtpx:hr></gpxtpx:TrackPointExtension></extensions>
      </trkpt>
      <trkpt lat="60.8721409261" lon="15.1521417629">
        <ele>352.8</ele>
        <time>2011-06-22T11:21:19Z</time>
        <extensions><gpxtpx:TrackPointExtension><gpxtpx:hr>126</gpxtpx:hr></gpxtpx:TrackPointExtension></extensions>
      </trkpt>
      <trkpt lat="60.8720716078" lon="15.1519804113">
        <ele>352.8</ele>
        <time>2011-06-22T11:21:24Z</time>
        <extensions><gpxtpx:TrackPointExtension><gpxtpx:hr>127</gpxtpx:hr></gpxtpx:TrackPointExtension></extensions>
      </trkpt>
      <trkpt lat="60.8720577776" lon="15.1519210674">
        <ele>352.8</ele>
        <time>2011-06-22T11:21:26Z</time>
        <extensions><gpxtpx:TrackPointExtension><gpxtpx:hr>127</gpxtpx:hr></gpxtpx:TrackPointExtension></extensions>
      </trkpt>
      <trkpt lat="60.8720095817" lon="15.1517901422">
        <ele>352.8</ele>
        <time>2011-06-22T11:21:30Z</time>
        <extensions><gpxtpx:TrackPointExtension><gpxtpx:hr>128</gpxtpx:hr></gpxtpx:TrackPointExtension></extensions>
      </trkpt>
      <trkpt lat="60.8719706897" lon="15.1516297126">
        <ele>352.8</ele>
        <time>2011-06-22T11:21:33Z</time>
        <extensions><gpxtpx:TrackPointExtension><gpxtpx:hr>130</gpxtpx:hr></gpxtpx:TrackPointExtension></extensions>
      </trkpt>
      <trkpt lat="60.8719389223" lon="15.1514686125">
        <ele>352.8</ele>
        <time>2011-06-22T11:21:36Z</time>
        <extensions><gpxtpx:TrackPointExtension><gpxtpx:hr>131</gpxtpx:hr></gpxtpx:TrackPointExtension></extensions>
      </trkpt>
      <trkpt lat="60.8719467175" lon="15.151215982">
        <ele>352.8</ele>
        <time>2011-06-22T11:21:40Z</time>
        <extensions><gpxtpx:TrackPointExtension><gpxtpx:hr>131</gpxtpx:hr></gpxtpx:TrackPointExtension></extensions>
      </trkpt>
      <trkpt lat="60.8718965099" lon="15.1508315881">
        <ele>352.8</ele>
        <time>2011-06-22T11:21:48Z</time>
        <extensions><gpxtpx:TrackPointExtension><gpxtpx:hr>132</gpxtpx:hr></gpxtpx:TrackPointExtension></extensions>
      </trkpt>
      <trkpt lat="60.8718715318" lon="15.1505610203">
        <ele>352.8</ele>
        <time>2011-06-22T11:21:54Z</time>
        <extensions><gpxtpx:TrackPointExtension><gpxtpx:hr>133</gpxtpx:hr></gpxtpx:TrackPointExtension></extensions>
      </trkpt>
      <trkpt lat="60.8718248446" lon="15.1503443482">
        <ele>352.8</ele>
        <time>2011-06-22T11:21:59Z</time>
        <extensions><gpxtpx:TrackPointExtension><gpxtpx:hr>134</gpxtpx:hr></gpxtpx:TrackPointExtension></extensions>
      </trkpt>
      <trkpt lat="60.871761226" lon="15.1500457849">
        <ele>351.8</ele>
        <time>2011-06-22T11:22:06Z</time>
        <extensions><gpxtpx:TrackPointExtension><gpxtpx:hr>135</gpxtpx:hr></gpxtpx:TrackPointExtension></extensions>
      </trkpt>
      <trkpt lat="60.8716884711" lon="15.1498410151">
        <ele>351.4</ele>
        <time>2011-06-22T11:22:11Z</time>
        <extensions><gpxtpx:TrackPointExtension><gpxtpx:hr>135</gpxtpx:hr></gpxtpx:TrackPointExtension></extensions>
      </trkpt>
      <trkpt lat="60.8716143751" lon="15.149603053">
        <ele>351.2</ele>
        <time>2011-06-22T11:22:16Z</time>
        <extensions><gpxtpx:TrackPointExtension><gpxtpx:hr>135</gpxtpx:hr></gpxtpx:TrackPointExtension></extensions>
      </trkpt>
      <trkpt lat="60.8715705378" lon="15.1493589721">
        <ele>351</ele>
        <time>2011-06-22T11:22:21Z</time>
        <extensions><gpxtpx:TrackPointExtension><gpxtpx:hr>135</gpxtpx:hr></gpxtpx:TrackPointExtension></extensions>
      </trkpt>
      <trkpt lat="60.8715764889" lon="15.1491536993">
        <ele>351</ele>
        <time>2011-06-22T11:22:25Z</time>
        <extensions><gpxtpx:TrackPointExtension><gpxtpx:hr>135</gpxtpx:hr></gpxtpx:TrackPointExtension></extensions>
      </trkpt>
      <trkpt lat="60.871619069" lon="15.1489285615">
        <ele>350.8</ele>
        <time>2011-06-22T11:22:30Z</time>
        <extensions><gpxtpx:TrackPointExtension><gpxtpx:hr>133</gpxtpx:hr></gpxtpx:TrackPointExtension></extensions>
      </trkpt>
      <trkpt lat="60.8716243496" lon="15.1488820419">
        <ele>350.8</ele>
        <time>2011-06-22T11:22:31Z</time>
        <extensions><gpxtpx:TrackPointExtension><gpxtpx:hr>133</gpxtpx:hr></gpxtpx:TrackPointExtension></extensions>
      </trkpt>
      <trkpt lat="60.8716129502" lon="15.1485507054">
        <ele>350.8</ele>
        <time>2011-06-22T11:22:38Z</time>
        <extensions><gpxtpx:TrackPointExtension><gpxtpx:hr>132</gpxtpx:hr></gpxtpx:TrackPointExtension></extensions>
      </trkpt>
      <trkpt lat="60.8716276185" lon="15.1482601888">
        <ele>350.8</ele>
        <time>2011-06-22T11:22:44Z</time>
        <extensions><gpxtpx:TrackPointExtension><gpxtpx:hr>132</gpxtpx:hr></gpxtpx:TrackPointExtension></extensions>
      </trkpt>
      <trkpt lat="60.8716375092" lon="15.1481134217">
        <ele>350.8</ele>
        <time>2011-06-22T11:22:47Z</time>
        <extensions><gpxtpx:TrackPointExtension><gpxtpx:hr>132</gpxtpx:hr></gpxtpx:TrackPointExtension></extensions>
      </trkpt>
      <trkpt lat="60.8715821048" lon="15.1477107552">
        <ele>350.8</ele>
        <time>2011-06-22T11:22:55Z</time>
        <extensions><gpxtpx:TrackPointExtension><gpxtpx:hr>133</gpxtpx:hr></gpxtpx:TrackPointExtension></extensions>
      </trkpt>
      <trkpt lat="60.8715175642" lon="15.1473772394">
        <ele>350.8</ele>
        <time>2011-06-22T11:23:02Z</time>
        <extensions><gpxtpx:TrackPointExtension><gpxtpx:hr>134</gpxtpx:hr></gpxtpx:TrackPointExtension></extensions>
      </trkpt>
      <trkpt lat="60.8715104396" lon="15.147327451">
        <ele>350.8</ele>
        <time>2011-06-22T11:23:03Z</time>
        <extensions><gpxtpx:TrackPointExtension><gpxtpx:hr>135</gpxtpx:hr></gpxtpx:TrackPointExtension></extensions>
      </trkpt>
      <trkpt lat="60.8714821926" lon="15.1470107828">
        <ele>350.8</ele>
        <time>2011-06-22T11:23:09Z</time>
        <extensions><gpxtpx:TrackPointExtension><gpxtpx:hr>137</gpxtpx:hr></gpxtpx:TrackPointExtension></extensions>
      </trkpt>
      <trkpt lat="60.871500046" lon="15.1467723177">
        <ele>350.8</ele>
        <time>2011-06-22T11:23:14Z</time>
        <extensions><gpxtpx:TrackPointExtension><gpxtpx:hr>137</gpxtpx:hr></gpxtpx:TrackPointExtension></extensions>
      </trkpt>
      <trkpt lat="60.8715153849" lon="15.1465297455">
        <ele>350.8</ele>
        <time>2011-06-22T11:23:19Z</time>
        <extensions><gpxtpx:TrackPointExtension><gpxtpx:hr>135</gpxtpx:hr></gpxtpx:TrackPointExtension></extensions>
      </trkpt>
      <trkpt lat="60.8715254432" lon="15.1463093016">
        <ele>350.8</ele>
        <time>2011-06-22T11:23:24Z</time>
        <extensions><gpxtpx:TrackPointExtension><gpxtpx:hr>135</gpxtpx:hr></gpxtpx:TrackPointExtension></extensions>
      </trkpt>
      <trkpt lat="60.8715137923" lon="15.1462588425">
        <ele>350.8</ele>
        <time>2011-06-22T11:23:25Z</time>
        <extensions><gpxtpx:TrackPointExtension><gpxtpx:hr>135</gpxtpx:hr></gpxtpx:TrackPointExtension></extensions>
      </trkpt>
      <trkpt lat="60.8714786722" lon="15.1460471996">
        <ele>350.8</ele>
        <time>2011-06-22T11:23:30Z</time>
        <extensions><gpxtpx:TrackPointExtension><gpxtpx:hr>134</gpxtpx:hr></gpxtpx:TrackPointExtension></extensions>
      </trkpt>
      <trkpt lat="60.8714545323" lon="15.1459376481">
        <ele>350.8</ele>
        <time>2011-06-22T11:23:33Z</time>
        <extensions><gpxtpx:TrackPointExtension><gpxtpx:hr>131</gpxtpx:hr></gpxtpx:TrackPointExtension></extensions>
      </trkpt>
      <trkpt lat="60.8714582203" lon="15.1456666613">
        <ele>351</ele>
        <time>2011-06-22T11:23:39Z</time>
        <extensions><gpxtpx:TrackPointExtension><gpxtpx:hr>128</gpxtpx:hr></gpxtpx:TrackPointExtension></extensions>
      </trkpt>
      <trkpt lat="60.8714714637" lon="15.1455411842">
        <ele>351.4</ele>
        <time>2011-06-22T11:23:42Z</time>
        <extensions><gpxtpx:TrackPointExtension><gpxtpx:hr>127</gpxtpx:hr></gpxtpx:TrackPointExtension></extensions>
      </trkpt>
      <trkpt lat="60.8714973638" lon="15.1452318921">
        <ele>352.8</ele>
        <time>2011-06-22T11:24:20Z</time>
        <extensions><gpxtpx:TrackPointExtension><gpxtpx:hr>107</gpxtpx:hr></gpxtpx:TrackPointExtension></extensions>
      </trkpt>
      <trkpt lat="60.8715036502" lon="15.1452045671">
        <ele>352.8</ele>
        <time>2011-06-22T11:24:21Z</time>
        <extensions><gpxtpx:TrackPointExtension><gpxtpx:hr>106</gpxtpx:hr></gpxtpx:TrackPointExtension></extensions>
      </trkpt>
      <trkpt lat="60.8715102719" lon="15.1451816007">
        <ele>352.8</ele>
        <time>2011-06-22T11:24:22Z</time>
        <extensions><gpxtpx:TrackPointExtension><gpxtpx:hr>106</gpxtpx:hr></gpxtpx:TrackPointExtension></extensions>
      </trkpt>
      <trkpt lat="60.8715267004" lon="15.1450898189">
        <ele>352.8</ele>
        <time>2011-06-22T11:24:25Z</time>
        <extensions><gpxtpx:TrackPointExtension><gpxtpx:hr>106</gpxtpx:hr></gpxtpx:TrackPointExtension></extensions>
      </trkpt>
      <trkpt lat="60.8715718789" lon="15.144918912">
        <ele>352.8</ele>
        <time>2011-06-22T11:24:30Z</time>
        <extensions><gpxtpx:TrackPointExtension><gpxtpx:hr>106</gpxtpx:hr></gpxtpx:TrackPointExtension></extensions>
      </trkpt>
      <trkpt lat="60.8716171411" lon="15.144715148">
        <ele>352.8</ele>
        <time>2011-06-22T11:24:36Z</time>
        <extensions><gpxtpx:TrackPointExtension><gpxtpx:hr>107</gpxtpx:hr></gpxtpx:TrackPointExtension></extensions>
      </trkpt>
      <trkpt lat="60.8716262774" lon="15.144672065">
        <ele>352.8</ele>
        <time>2011-06-22T11:24:37Z</time>
        <extensions><gpxtpx:TrackPointExtension><gpxtpx:hr>108</gpxtpx:hr></gpxtpx:TrackPointExtension></extensions>
      </trkpt>
      <trkpt lat="60.8716638283" lon="15.1443797882">
        <ele>352.8</ele>
        <time>2011-06-22T11:24:44Z</time>
        <extensions><gpxtpx:TrackPointExtension><gpxtpx:hr>109</gpxtpx:hr></gpxtpx:TrackPointExtension></extensions>
      </trkpt>
      <trkpt lat="60.871676485" lon="15.1443055245">
        <ele>352.8</ele>
        <time>2011-06-22T11:24:46Z</time>
        <extensions><gpxtpx:TrackPointExtension><gpxtpx:hr>108</gpxtpx:hr></gpxtpx:TrackPointExtension></extensions>
      </trkpt>
      <trkpt lat="60.8716975236" lon="15.1439964839">
        <ele>353.8</ele>
        <time>2011-06-22T11:24:53Z</time>
        <extensions><gpxtpx:TrackPointExtension><gpxtpx:hr>108</gpxtpx:hr></gpxtpx:TrackPointExtension></extensions>
      </trkpt>
      <trkpt lat="60.8717196518" lon="15.1437440211">
        <ele>354.2</ele>
        <time>2011-06-22T11:24:59Z</time>
        <extensions><gpxtpx:TrackPointExtension><gpxtpx:hr>111</gpxtpx:hr></gpxtpx:TrackPointExtension></extensions>
      </trkpt>
      <trkpt lat="60.8717090906" lon="15.1434992696">
        <ele>354.6</ele>
        <time>2011-06-22T11:25:05Z</time>
        <extensions><gpxtpx:TrackPointExtension><gpxtpx:hr>113</gpxtpx:hr></gpxtpx:TrackPointExtension></extensions>
      </trkpt>
      <trkpt lat="60.8717094259" lon="15.1433048933">
        <ele>354.6</ele>
        <time>2011-06-22T11:25:10Z</time>
        <extensions><gpxtpx:TrackPointExtension><gpxtpx:hr>115</gpxtpx:hr></gpxtpx:TrackPointExtension></extensions>
      </trkpt>
      <trkpt lat="60.8716920753" lon="15.1429770772">
        <ele>354.8</ele>
        <time>2011-06-22T11:25:17Z</time>
        <extensions><gpxtpx:TrackPointExtension><gpxtpx:hr>116</gpxtpx:hr></gpxtpx:TrackPointExtension></extensions>
      </trkpt>
      <trkpt lat="60.8716830229" lon="15.1427591478">
        <ele>354.8</ele>
        <time>2011-06-22T11:25:22Z</time>
        <extensions><gpxtpx:TrackPointExtension><gpxtpx:hr>117</gpxtpx:hr></gpxtpx:TrackPointExtension></extensions>
      </trkpt>
      <trkpt lat="60.8716566199" lon="15.1425011529">
        <ele>354.8</ele>
        <time>2011-06-22T11:25:28Z</time>
        <extensions><gpxtpx:TrackPointExtension><gpxtpx:hr>119</gpxtpx:hr></gpxtpx:TrackPointExtension></extensions>
      </trkpt>
      <trkpt lat="60.8716484056" lon="15.1423043459">
        <ele>354.8</ele>
        <time>2011-06-22T11:25:33Z</time>
        <extensions><gpxtpx:TrackPointExtension><gpxtpx:hr>119</gpxtpx:hr></gpxtpx:TrackPointExtension></extensions>
      </trkpt>
      <trkpt lat="60.8716393532" lon="15.1422571558">
        <ele>354.8</ele>
        <time>2011-06-22T11:25:34Z</time>
        <extensions><gpxtpx:TrackPointExtension><gpxtpx:hr>119</gpxtpx:hr></gpxtpx:TrackPointExtension></extensions>
      </trkpt>
      <trkpt lat="60.871613956" lon="15.1420896016">
        <ele>354.8</ele>
        <time>2011-06-22T11:25:38Z</time>
        <extensions><gpxtpx:TrackPointExtension><gpxtpx:hr>119</gpxtpx:hr></gpxtpx:TrackPointExtension></extensions>
      </trkpt>
      <trkpt lat="60.8715747287" lon="15.1416655613">
        <ele>355.6</ele>
        <time>2011-06-22T11:25:47Z</time>
        <extensions><gpxtpx:TrackPointExtension><gpxtpx:hr>120</gpxtpx:hr></gpxtpx:TrackPointExtension></extensions>
      </trkpt>
      <trkpt lat="60.8715620721" lon="15.1413949098">
        <ele>356.2</ele>
        <time>2011-06-22T11:25:53Z</time>
        <extensions><gpxtpx:TrackPointExtension><gpxtpx:hr>120</gpxtpx:hr></gpxtpx:TrackPointExtension></extensions>
      </trkpt>
      <trkpt lat="60.8715465655" lon="15.1411143676">
        <ele>356.6</ele>
        <time>2011-06-22T11:25:59Z</time>
        <extensions><gpxtpx:TrackPointExtension><gpxtpx:hr>121</gpxtpx:hr></gpxtpx:TrackPointExtension></extensions>
      </trkpt>
      <trkpt lat="60.8715220066" lon="15.1408407824">
        <ele>356.6</ele>
        <time>2011-06-22T11:26:05Z</time>
        <extensions><gpxtpx:TrackPointExtension><gpxtpx:hr>121</gpxtpx:hr></gpxtpx:TrackPointExtension></extensions>
      </trkpt>
      <trkpt lat="60.8714601482" lon="15.1406178238">
        <ele>356.8</ele>
        <time>2011-06-22T11:26:10Z</time>
        <extensions><gpxtpx:TrackPointExtension><gpxtpx:hr>121</gpxtpx:hr></gpxtpx:TrackPointExtension></extensions>
      </trkpt>
      <trkpt lat="60.871364343" lon="15.14031859">
        <ele>356.8</ele>
        <time>2011-06-22T11:26:17Z</time>
        <extensions><gpxtpx:TrackPointExtension><gpxtpx:hr>123</gpxtpx:hr></gpxtpx:TrackPointExtension></extensions>
      </trkpt>
      <trkpt lat="60.8713209248" lon="15.1399631136">
        <ele>356.8</ele>
        <time>2011-06-22T11:26:24Z</time>
        <extensions><gpxtpx:TrackPointExtension><gpxtpx:hr>123</gpxtpx:hr></gpxtpx:TrackPointExtension></extensions>
      </trkpt>
      <trkpt lat="60.8713256187" lon="15.1397090582">
        <ele>356.8</ele>
        <time>2011-06-22T11:26:29Z</time>
        <extensions><gpxtpx:TrackPointExtension><gpxtpx:hr>123</gpxtpx:hr></gpxtpx:TrackPointExtension></extensions>
      </trkpt>
      <trkpt lat="60.8713432207" lon="15.1394037894">
        <ele>356.8</ele>
        <time>2011-06-22T11:26:35Z</time>
        <extensions><gpxtpx:TrackPointExtension><gpxtpx:hr>122</gpxtpx:hr></gpxtpx:TrackPointExtension></extensions>
      </trkpt>
      <trkpt lat="60.8713406223" lon="15.1391086627">
        <ele>356.8</ele>
        <time>2011-06-22T11:26:41Z</time>
        <extensions><gpxtpx:TrackPointExtension><gpxtpx:hr>121</gpxtpx:hr></gpxtpx:TrackPointExtension></extensions>
      </trkpt>
      <trkpt lat="60.8712816975" lon="15.1388277853">
        <ele>356.8</ele>
        <time>2011-06-22T11:26:46Z</time>
        <extensions><gpxtpx:TrackPointExtension><gpxtpx:hr>121</gpxtpx:hr></gpxtpx:TrackPointExtension></extensions>
      </trkpt>
      <trkpt lat="60.8712265446" lon="15.1386017254">
        <ele>356.8</ele>
        <time>2011-06-22T11:26:51Z</time>
        <extensions><gpxtpx:TrackPointExtension><gpxtpx:hr>120</gpxtpx:hr></gpxtpx:TrackPointExtension></extensions>
      </trkpt>
      <trkpt lat="60.8711713917" lon="15.1383339237">
        <ele>356.8</ele>
        <time>2011-06-22T11:26:57Z</time>
        <extensions><gpxtpx:TrackPointExtension><gpxtpx:hr>119</gpxtpx:hr></gpxtpx:TrackPointExtension></extensions>
      </trkpt>
      <trkpt lat="60.8711405463" lon="15.1380465922">
        <ele>356.8</ele>
        <time>2011-06-22T11:27:03Z</time>
        <extensions><gpxtpx:TrackPointExtension><gpxtpx:hr>119</gpxtpx:hr></gpxtpx:TrackPointExtension></extensions>
      </trkpt>
      <trkpt lat="60.8710987206" lon="15.1377617752">
        <ele>356.8</ele>
        <time>2011-06-22T11:27:09Z</time>
        <extensions><gpxtpx:TrackPointExtension><gpxtpx:hr>118</gpxtpx:hr></gpxtpx:TrackPointExtension></extensions>
      </trkpt>
      <trkpt lat="60.8710773468" lon="15.1374884415">
        <ele>356.8</ele>
        <time>2011-06-22T11:27:14Z</time>
        <extensions><gpxtpx:TrackPointExtension><gpxtpx:hr>118</gpxtpx:hr></gpxtpx:TrackPointExtension></extensions>
      </trkpt>
      <trkpt lat="60.8710155722" lon="15.137194572">
        <ele>356.8</ele>
        <time>2011-06-22T11:27:20Z</time>
        <extensions><gpxtpx:TrackPointExtension><gpxtpx:hr>120</gpxtpx:hr></gpxtpx:TrackPointExtension></extensions>
      </trkpt>
      <trkpt lat="60.8709095411" lon="15.1369552688">
        <ele>356.8</ele>
        <time>2011-06-22T11:27:27Z</time>
        <extensions><gpxtpx:TrackPointExtension><gpxtpx:hr>120</gpxtpx:hr></gpxtpx:TrackPointExtension></extensions>
      </trkpt>
      <trkpt lat="60.8707996544" lon="15.1367575398">
        <ele>356.8</ele>
        <time>2011-06-22T11:27:33Z</time>
        <extensions><gpxtpx:TrackPointExtension><gpxtpx:hr>122</gpxtpx:hr></gpxtpx:TrackPointExtension></extensions>
      </trkpt>
      <trkpt lat="60.8707129018" lon="15.1364586412">
        <ele>356.8</ele>
        <time>2011-06-22T11:27:40Z</time>
        <extensions><gpxtpx:TrackPointExtension><gpxtpx:hr>121</gpxtpx:hr></gpxtpx:TrackPointExtension></extensions>
      </trkpt>
      <trkpt lat="60.8706615207" lon="15.1360703916">
        <ele>356.8</ele>
        <time>2011-06-22T11:27:47Z</time>
        <extensions><gpxtpx:TrackPointExtension><gpxtpx:hr>120</gpxtpx:hr></gpxtpx:TrackPointExtension></extensions>
      </trkpt>
      <trkpt lat="60.8706199465" lon="15.1357895141">
        <ele>356.8</ele>
        <time>2011-06-22T11:27:52Z</time>
        <extensions><gpxtpx:TrackPointExtension><gpxtpx:hr>120</gpxtpx:hr></gpxtpx:TrackPointExtension></extensions>
      </trkpt>
      <trkpt lat="60.870546102" lon="15.1354627877">
        <ele>356.8</ele>
        <time>2011-06-22T11:27:58Z</time>
        <extensions><gpxtpx:TrackPointExtension><gpxtpx:hr>119</gpxtpx:hr></gpxtpx:TrackPointExtension></extensions>
      </trkpt>
      <trkpt lat="60.870500253" lon="15.1352030326">
        <ele>356.8</ele>
        <time>2011-06-22T11:28:03Z</time>
        <extensions><gpxtpx:TrackPointExtension><gpxtpx:hr>119</gpxtpx:hr></gpxtpx:TrackPointExtension></extensions>
      </trkpt>
      <trkpt lat="60.8704410768" lon="15.1349520785">
        <ele>356.8</ele>
        <time>2011-06-22T11:28:09Z</time>
        <extensions><gpxtpx:TrackPointExtension><gpxtpx:hr>118</gpxtpx:hr></gpxtpx:TrackPointExtension></extensions>
      </trkpt>
      <trkpt lat="60.8703945572" lon="15.1347077461">
        <ele>356.8</ele>
        <time>2011-06-22T11:28:14Z</time>
        <extensions><gpxtpx:TrackPointExtension><gpxtpx:hr>117</gpxtpx:hr></gpxtpx:TrackPointExtension></extensions>
      </trkpt>
      <trkpt lat="60.8703473671" lon="15.1344800099">
        <ele>356.8</ele>
        <time>2011-06-22T11:28:19Z</time>
        <extensions><gpxtpx:TrackPointExtension><gpxtpx:hr>118</gpxtpx:hr></gpxtpx:TrackPointExtension></extensions>
      </trkpt>
      <trkpt lat="60.8702743608" lon="15.1342223503">
        <ele>356.8</ele>
        <time>2011-06-22T11:28:25Z</time>
        <extensions><gpxtpx:TrackPointExtension><gpxtpx:hr>117</gpxtpx:hr></gpxtpx:TrackPointExtension></extensions>
      </trkpt>
      <trkpt lat="60.8702244046" lon="15.1340493479">
        <ele>356.8</ele>
        <time>2011-06-22T11:28:29Z</time>
        <extensions><gpxtpx:TrackPointExtension><gpxtpx:hr>116</gpxtpx:hr></gpxtpx:TrackPointExtension></extensions>
      </trkpt>
      <trkpt lat="60.8702106583" lon="15.1339982183">
        <ele>356.8</ele>
        <time>2011-06-22T11:28:30Z</time>
        <extensions><gpxtpx:TrackPointExtension><gpxtpx:hr>116</gpxtpx:hr></gpxtpx:TrackPointExtension></extensions>
      </trkpt>
      <trkpt lat="60.8701521527" lon="15.1338137327">
        <ele>356.8</ele>
        <time>2011-06-22T11:28:34Z</time>
        <extensions><gpxtpx:TrackPointExtension><gpxtpx:hr>125</gpxtpx:hr></gpxtpx:TrackPointExtension></extensions>
      </trkpt>
      <trkpt lat="60.870140418" lon="15.1337687219">
        <ele>356.8</ele>
        <time>2011-06-22T11:28:35Z</time>
        <extensions><gpxtpx:TrackPointExtension><gpxtpx:hr>125</gpxtpx:hr></gpxtpx:TrackPointExtension></extensions>
      </trkpt>
      <trkpt lat="60.8700818285" lon="15.1335759382">
        <ele>356.8</ele>
        <time>2011-06-22T11:28:40Z</time>
        <extensions><gpxtpx:TrackPointExtension><gpxtpx:hr>120</gpxtpx:hr></gpxtpx:TrackPointExtension></extensions>
      </trkpt>
      <trkpt lat="60.8700624663" lon="15.1335504572">
        <ele>356.8</ele>
        <time>2011-06-22T11:28:41Z</time>
        <extensions><gpxtpx:TrackPointExtension><gpxtpx:hr>119</gpxtpx:hr></gpxtpx:TrackPointExtension></extensions>
      </trkpt>
      <trkpt lat="60.8699685891" lon="15.133384747">
        <ele>356.8</ele>
        <time>2011-06-22T11:28:46Z</time>
        <extensions><gpxtpx:TrackPointExtension><gpxtpx:hr>118</gpxtpx:hr></gpxtpx:TrackPointExtension></extensions>
      </trkpt>
      <trkpt lat="60.8698571936" lon="15.1331623752">
        <ele>356.8</ele>
        <time>2011-06-22T11:28:52Z</time>
        <extensions><gpxtpx:TrackPointExtension><gpxtpx:hr>117</gpxtpx:hr></gpxtpx:TrackPointExtension></extensions>
      </trkpt>
      <trkpt lat="60.8697756377" lon="15.1329746207">
        <ele>356.4</ele>
        <time>2011-06-22T11:28:57Z</time>
        <extensions><gpxtpx:TrackPointExtension><gpxtpx:hr>117</gpxtpx:hr></gpxtpx:TrackPointExtension></extensions>
      </trkpt>
      <trkpt lat="60.8697039725" lon="15.1328504009">
        <ele>355.8</ele>
        <time>2011-06-22T11:29:01Z</time>
        <extensions><gpxtpx:TrackPointExtension><gpxtpx:hr>118</gpxtpx:hr></gpxtpx:TrackPointExtension></extensions>
      </trkpt>
      <trkpt lat="60.8696211593" lon="15.1326900552">
        <ele>355.4</ele>
        <time>2011-06-22T11:29:06Z</time>
        <extensions><gpxtpx:TrackPointExtension><gpxtpx:hr>118</gpxtpx:hr></gpxtpx:TrackPointExtension></extensions>
      </trkpt>
      <trkpt lat="60.8696017971" lon="15.1326566114">
        <ele>355.4</ele>
        <time>2011-06-22T11:29:07Z</time>
        <extensions><gpxtpx:TrackPointExtension><gpxtpx:hr>118</gpxtpx:hr></gpxtpx:TrackPointExtension></extensions>
      </trkpt>
      <trkpt lat="60.8695841951" lon="15.1326165459">
        <ele>355.2</ele>
        <time>2011-06-22T11:29:08Z</time>
        <extensions><gpxtpx:TrackPointExtension><gpxtpx:hr>118</gpxtpx:hr></gpxtpx:TrackPointExtension></extensions>
      </trkpt>
      <trkpt lat="60.8695668446" lon="15.1324449684">
        <ele>355</ele>
        <time>2011-06-22T11:29:12Z</time>
        <extensions><gpxtpx:TrackPointExtension><gpxtpx:hr>126</gpxtpx:hr></gpxtpx:TrackPointExtension></extensions>
      </trkpt>
      <trkpt lat="60.8695632404" lon="15.1324063279">
        <ele>354.8</ele>
        <time>2011-06-22T11:29:13Z</time>
        <extensions><gpxtpx:TrackPointExtension><gpxtpx:hr>126</gpxtpx:hr></gpxtpx:TrackPointExtension></extensions>
      </trkpt>
      <trkpt lat="60.8695603905" lon="15.1323663462">
        <ele>354.6</ele>
        <time>2011-06-22T11:29:14Z</time>
        <extensions><gpxtpx:TrackPointExtension><gpxtpx:hr>126</gpxtpx:hr></gpxtpx:TrackPointExtension></extensions>
      </trkpt>
      <trkpt lat="60.8695511704" lon="15.1322290507">
        <ele>354</ele>
        <time>2011-06-22T11:29:17Z</time>
        <extensions><gpxtpx:TrackPointExtension><gpxtpx:hr>121</gpxtpx:hr></gpxtpx:TrackPointExtension></extensions>
      </trkpt>
      <trkpt lat="60.8695539365" lon="15.1321930085">
        <ele>354</ele>
        <time>2011-06-22T11:29:18Z</time>
        <extensions><gpxtpx:TrackPointExtension><gpxtpx:hr>119</gpxtpx:hr></gpxtpx:TrackPointExtension></extensions>
      </trkpt>
      <trkpt lat="60.8695530983" lon="15.131977426">
        <ele>353.4</ele>
        <time>2011-06-22T11:29:23Z</time>
        <extensions><gpxtpx:TrackPointExtension><gpxtpx:hr>117</gpxtpx:hr></gpxtpx:TrackPointExtension></extensions>
      </trkpt>
      <trkpt lat="60.86954765" lon="15.1317902582">
        <ele>353.2</ele>
        <time>2011-06-22T11:29:27Z</time>
        <extensions><gpxtpx:TrackPointExtension><gpxtpx:hr>116</gpxtpx:hr></gpxtpx:TrackPointExtension></extensions>
      </trkpt>
      <trkpt lat="60.8695484044" lon="15.1315395556">
        <ele>353</ele>
        <time>2011-06-22T11:29:32Z</time>
        <extensions><gpxtpx:TrackPointExtension><gpxtpx:hr>114</gpxtpx:hr></gpxtpx:TrackPointExtension></extensions>
      </trkpt>
      <trkpt lat="60.8695614802" lon="15.1313114003">
        <ele>352.2</ele>
        <time>2011-06-22T11:29:36Z</time>
        <extensions><gpxtpx:TrackPointExtension><gpxtpx:hr>113</gpxtpx:hr></gpxtpx:TrackPointExtension></extensions>
      </trkpt>
      <trkpt lat="60.8695381785" lon="15.1311085583">
        <ele>351.6</ele>
        <time>2011-06-22T11:29:40Z</time>
        <extensions><gpxtpx:TrackPointExtension><gpxtpx:hr>112</gpxtpx:hr></gpxtpx:TrackPointExtension></extensions>
      </trkpt>
      <trkpt lat="60.8695253542" lon="15.1309482125">
        <ele>351.4</ele>
        <time>2011-06-22T11:29:43Z</time>
        <extensions><gpxtpx:TrackPointExtension><gpxtpx:hr>112</gpxtpx:hr></gpxtpx:TrackPointExtension></extensions>
      </trkpt>
      <trkpt lat="60.869533317" lon="15.1306793212">
        <ele>351</ele>
        <time>2011-06-22T11:29:48Z</time>
        <extensions><gpxtpx:TrackPointExtension><gpxtpx:hr>111</gpxtpx:hr></gpxtpx:TrackPointExtension></extensions>
      </trkpt>
      <trkpt lat="60.869540274" lon="15.1305823426">
        <ele>350.8</ele>
        <time>2011-06-22T11:29:50Z</time>
        <extensions><gpxtpx:TrackPointExtension><gpxtpx:hr>111</gpxtpx:hr></gpxtpx:TrackPointExtension></extensions>
      </trkpt>
      <trkpt lat="60.8695483206" lon="15.1303555284">
        <ele>349.8</ele>
        <time>2011-06-22T11:29:55Z</time>
        <extensions><gpxtpx:TrackPointExtension><gpxtpx:hr>110</gpxtpx:hr></gpxtpx:TrackPointExtension></extensions>
      </trkpt>
      <trkpt lat="60.8695408607" lon="15.1301410356">
        <ele>349.4</ele>
        <time>2011-06-22T11:29:59Z</time>
        <extensions><gpxtpx:TrackPointExtension><gpxtpx:hr>109</gpxtpx:hr></gpxtpx:TrackPointExtension></extensions>
      </trkpt>
      <trkpt lat="60.8695126975" lon="15.1298723118">
        <ele>348</ele>
        <time>2011-06-22T11:30:05Z</time>
        <extensions><gpxtpx:TrackPointExtension><gpxtpx:hr>105</gpxtpx:hr></gpxtpx:TrackPointExtension></extensions>
      </trkpt>
      <trkpt lat="60.8695007952" lon="15.1296331762">
        <ele>347</ele>
        <time>2011-06-22T11:30:10Z</time>
        <extensions><gpxtpx:TrackPointExtension><gpxtpx:hr>105</gpxtpx:hr></gpxtpx:TrackPointExtension></extensions>
      </trkpt>
      <trkpt lat="60.8694717938" lon="15.1293362055">
        <ele>345.8</ele>
        <time>2011-06-22T11:30:16Z</time>
        <extensions><gpxtpx:TrackPointExtension><gpxtpx:hr>105</gpxtpx:hr></gpxtpx:TrackPointExtension></extensions>
      </trkpt>
      <trkpt lat="60.8694838638" lon="15.1292400651">
        <ele>345.4</ele>
        <time>2011-06-22T11:30:18Z</time>
        <extensions><gpxtpx:TrackPointExtension><gpxtpx:hr>107</gpxtpx:hr></gpxtpx:TrackPointExtension></extensions>
      </trkpt>
      <trkpt lat="60.8694883062" lon="15.1291547374">
        <ele>344.8</ele>
        <time>2011-06-22T11:30:20Z</time>
        <extensions><gpxtpx:TrackPointExtension><gpxtpx:hr>108</gpxtpx:hr></gpxtpx:TrackPointExtension></extensions>
      </trkpt>
      <trkpt lat="60.8694806787" lon="15.128894647">
        <ele>343.6</ele>
        <time>2011-06-22T11:30:26Z</time>
        <extensions><gpxtpx:TrackPointExtension><gpxtpx:hr>110</gpxtpx:hr></gpxtpx:TrackPointExtension></extensions>
      </trkpt>
      <trkpt lat="60.86944581" lon="15.1286099977">
        <ele>342.2</ele>
        <time>2011-06-22T11:30:32Z</time>
        <extensions><gpxtpx:TrackPointExtension><gpxtpx:hr>112</gpxtpx:hr></gpxtpx:TrackPointExtension></extensions>
      </trkpt>
      <trkpt lat="60.8693883101" lon="15.1284018751">
        <ele>341.2</ele>
        <time>2011-06-22T11:30:37Z</time>
        <extensions><gpxtpx:TrackPointExtension><gpxtpx:hr>112</gpxtpx:hr></gpxtpx:TrackPointExtension></extensions>
      </trkpt>
      <trkpt lat="60.8693474903" lon="15.1281151303">
        <ele>339.8</ele>
        <time>2011-06-22T11:30:43Z</time>
        <extensions><gpxtpx:TrackPointExtension><gpxtpx:hr>111</gpxtpx:hr></gpxtpx:TrackPointExtension></extensions>
      </trkpt>
      <trkpt lat="60.869340198" lon="15.127917066">
        <ele>338.8</ele>
        <time>2011-06-22T11:30:47Z</time>
        <extensions><gpxtpx:TrackPointExtension><gpxtpx:hr>120</gpxtpx:hr></gpxtpx:TrackPointExtension></extensions>
      </trkpt>
      <trkpt lat="60.8693407847" lon="15.1278749051">
        <ele>338.4</ele>
        <time>2011-06-22T11:30:48Z</time>
        <extensions><gpxtpx:TrackPointExtension><gpxtpx:hr>120</gpxtpx:hr></gpxtpx:TrackPointExtension></extensions>
      </trkpt>
      <trkpt lat="60.8693373482" lon="15.1278269606">
        <ele>338.2</ele>
        <time>2011-06-22T11:30:49Z</time>
        <extensions><gpxtpx:TrackPointExtension><gpxtpx:hr>119</gpxtpx:hr></gpxtpx:TrackPointExtension></extensions>
      </trkpt>
      <trkpt lat="60.8693324028" lon="15.1276252083">
        <ele>337.4</ele>
        <time>2011-06-22T11:30:53Z</time>
        <extensions><gpxtpx:TrackPointExtension><gpxtpx:hr>117</gpxtpx:hr></gpxtpx:TrackPointExtension></extensions>
      </trkpt>
      <trkpt lat="60.8693291339" lon="15.1275661997">
        <ele>337.4</ele>
        <time>2011-06-22T11:30:54Z</time>
        <extensions><gpxtpx:TrackPointExtension><gpxtpx:hr>125</gpxtpx:hr></gpxtpx:TrackPointExtension></extensions>
      </trkpt>
      <trkpt lat="60.869329553" lon="15.1275111306">
        <ele>337.2</ele>
        <time>2011-06-22T11:30:55Z</time>
        <extensions><gpxtpx:TrackPointExtension><gpxtpx:hr>125</gpxtpx:hr></gpxtpx:TrackPointExtension></extensions>
      </trkpt>
      <trkpt lat="60.8693303912" lon="15.1274551395">
        <ele>337</ele>
        <time>2011-06-22T11:30:56Z</time>
        <extensions><gpxtpx:TrackPointExtension><gpxtpx:hr>133</gpxtpx:hr></gpxtpx:TrackPointExtension></extensions>
      </trkpt>
      <trkpt lat="60.8693308941" lon="15.1273990646">
        <ele>336.8</ele>
        <time>2011-06-22T11:30:57Z</time>
        <extensions><gpxtpx:TrackPointExtension><gpxtpx:hr>133</gpxtpx:hr></gpxtpx:TrackPointExtension></extensions>
      </trkpt>
      <trkpt lat="60.8693135436" lon="15.1271459312">
        <ele>335.6</ele>
        <time>2011-06-22T11:31:02Z</time>
        <extensions><gpxtpx:TrackPointExtension><gpxtpx:hr>133</gpxtpx:hr></gpxtpx:TrackPointExtension></extensions>
      </trkpt>
      <trkpt lat="60.8692889846" lon="15.1269419996">
        <ele>335</ele>
        <time>2011-06-22T11:31:06Z</time>
        <extensions><gpxtpx:TrackPointExtension><gpxtpx:hr>126</gpxtpx:hr></gpxtpx:TrackPointExtension></extensions>
      </trkpt>
      <trkpt lat="60.8692992105" lon="15.1268861762">
        <ele>334.8</ele>
        <time>2011-06-22T11:31:07Z</time>
        <extensions><gpxtpx:TrackPointExtension><gpxtpx:hr>125</gpxtpx:hr></gpxtpx:TrackPointExtension></extensions>
      </trkpt>
      <trkpt lat="60.8693630806" lon="15.1265749562">
        <ele>333.6</ele>
        <time>2011-06-22T11:31:14Z</time>
        <extensions><gpxtpx:TrackPointExtension><gpxtpx:hr>119</gpxtpx:hr></gpxtpx:TrackPointExtension></extensions>
      </trkpt>
      <trkpt lat="60.869380012" lon="15.1265348069">
        <ele>333.4</ele>
        <time>2011-06-22T11:31:15Z</time>
        <extensions><gpxtpx:TrackPointExtension><gpxtpx:hr>118</gpxtpx:hr></gpxtpx:TrackPointExtension></extensions>
      </trkpt>
      <trkpt lat="60.8694246876" lon="15.1264639798">
        <ele>333</ele>
        <time>2011-06-22T11:31:17Z</time>
        <extensions><gpxtpx:TrackPointExtension><gpxtpx:hr>127</gpxtpx:hr></gpxtpx:TrackPointExtension></extensions>
      </trkpt>
      <trkpt lat="60.8694433792" lon="15.1264215674">
        <ele>333</ele>
        <time>2011-06-22T11:31:18Z</time>
        <extensions><gpxtpx:TrackPointExtension><gpxtpx:hr>127</gpxtpx:hr></gpxtpx:TrackPointExtension></extensions>
      </trkpt>
      <trkpt lat="60.8694627414" lon="15.1263826754">
        <ele>332.8</ele>
        <time>2011-06-22T11:31:19Z</time>
        <extensions><gpxtpx:TrackPointExtension><gpxtpx:hr>127</gpxtpx:hr></gpxtpx:TrackPointExtension></extensions>
      </trkpt>
      <trkpt lat="60.8694972748" lon="15.1261431207">
        <ele>331.6</ele>
        <time>2011-06-22T11:31:24Z</time>
        <extensions><gpxtpx:TrackPointExtension><gpxtpx:hr>122</gpxtpx:hr></gpxtpx:TrackPointExtension></extensions>
      </trkpt>
      <trkpt lat="60.8695140386" lon="15.1260527638">
        <ele>331.2</ele>
        <time>2011-06-22T11:31:26Z</time>
        <extensions><gpxtpx:TrackPointExtension><gpxtpx:hr>120</gpxtpx:hr></gpxtpx:TrackPointExtension></extensions>
      </trkpt>
      <trkpt lat="60.8695707841" lon="15.1257679469">
        <ele>330.4</ele>
        <time>2011-06-22T11:31:31Z</time>
        <extensions><gpxtpx:TrackPointExtension><gpxtpx:hr>118</gpxtpx:hr></gpxtpx:TrackPointExtension></extensions>
      </trkpt>
      <trkpt lat="60.8696188124" lon="15.1255633447">
        <ele>329.4</ele>
        <time>2011-06-22T11:31:35Z</time>
        <extensions><gpxtpx:TrackPointExtension><gpxtpx:hr>118</gpxtpx:hr></gpxtpx:TrackPointExtension></extensions>
      </trkpt>
      <trkpt lat="60.8696295412" lon="15.1255237821">
        <ele>329.2</ele>
        <time>2011-06-22T11:31:36Z</time>
        <extensions><gpxtpx:TrackPointExtension><gpxtpx:hr>118</gpxtpx:hr></gpxtpx:TrackPointExtension></extensions>
      </trkpt>
      <trkpt lat="60.8696789944" lon="15.1254294019">
        <ele>328.6</ele>
        <time>2011-06-22T11:31:39Z</time>
        <extensions><gpxtpx:TrackPointExtension><gpxtpx:hr>118</gpxtpx:hr></gpxtpx:TrackPointExtension></extensions>
      </trkpt>
      <trkpt lat="60.8697048107" lon="15.1253291544">
        <ele>328</ele>
        <time>2011-06-22T11:31:41Z</time>
        <extensions><gpxtpx:TrackPointExtension><gpxtpx:hr>128</gpxtpx:hr></gpxtpx:TrackPointExtension></extensions>
      </trkpt>
      <trkpt lat="60.8697381706" lon="15.1252597523">
        <ele>327.6</ele>
        <time>2011-06-22T11:31:42Z</time>
        <extensions><gpxtpx:TrackPointExtension><gpxtpx:hr>125</gpxtpx:hr></gpxtpx:TrackPointExtension></extensions>
      </trkpt>
      <trkpt lat="60.8697462172" lon="15.1251627737">
        <ele>327.2</ele>
        <time>2011-06-22T11:31:44Z</time>
        <extensions><gpxtpx:TrackPointExtension><gpxtpx:hr>131</gpxtpx:hr></gpxtpx:TrackPointExtension></extensions>
      </trkpt>
      <trkpt lat="60.8697401823" lon="15.1251279888">
        <ele>327</ele>
        <time>2011-06-22T11:31:45Z</time>
        <extensions><gpxtpx:TrackPointExtension><gpxtpx:hr>131</gpxtpx:hr></gpxtpx:TrackPointExtension></extensions>
      </trkpt>
      <trkpt lat="60.8697271903" lon="15.1250276575">
        <ele>326.2</ele>
        <time>2011-06-22T11:31:48Z</time>
        <extensions><gpxtpx:TrackPointExtension><gpxtpx:hr>126</gpxtpx:hr></gpxtpx:TrackPointExtension></extensions>
      </trkpt>
      <trkpt lat="60.8697169644" lon="15.1249115681">
        <ele>325.6</ele>
        <time>2011-06-22T11:31:50Z</time>
        <extensions><gpxtpx:TrackPointExtension><gpxtpx:hr>126</gpxtpx:hr></gpxtpx:TrackPointExtension></extensions>
      </trkpt>
      <trkpt lat="60.8697083311" lon="15.124653238">
        <ele>324.4</ele>
        <time>2011-06-22T11:31:55Z</time>
        <extensions><gpxtpx:TrackPointExtension><gpxtpx:hr>124</gpxtpx:hr></gpxtpx:TrackPointExtension></extensions>
      </trkpt>
      <trkpt lat="60.869718557" lon="15.1246243204">
        <ele>324.4</ele>
        <time>2011-06-22T11:31:56Z</time>
        <extensions><gpxtpx:TrackPointExtension><gpxtpx:hr>124</gpxtpx:hr></gpxtpx:TrackPointExtension></extensions>
      </trkpt>
      <trkpt lat="60.8698358198" lon="15.1244401701">
        <ele>323</ele>
        <time>2011-06-22T11:32:01Z</time>
        <extensions><gpxtpx:TrackPointExtension><gpxtpx:hr>124</gpxtpx:hr></gpxtpx:TrackPointExtension></extensions>
      </trkpt>
      <trkpt lat="60.8698524159" lon="15.1244082351">
        <ele>322.8</ele>
        <time>2011-06-22T11:32:02Z</time>
        <extensions><gpxtpx:TrackPointExtension><gpxtpx:hr>123</gpxtpx:hr></gpxtpx:TrackPointExtension></extensions>
      </trkpt>
      <trkpt lat="60.8699757137" lon="15.1242592049">
        <ele>321.6</ele>
        <time>2011-06-22T11:32:07Z</time>
        <extensions><gpxtpx:TrackPointExtension><gpxtpx:hr>123</gpxtpx:hr></gpxtpx:TrackPointExtension></extensions>
      </trkpt>
      <trkpt lat="60.8700759612" lon="15.1241788225">
        <ele>320.6</ele>
        <time>2011-06-22T11:32:11Z</time>
        <extensions><gpxtpx:TrackPointExtension><gpxtpx:hr>123</gpxtpx:hr></gpxtpx:TrackPointExtension></extensions>
      </trkpt>
      <trkpt lat="60.8701515659" lon="15.1240995297">
        <ele>320.2</ele>
        <time>2011-06-22T11:32:14Z</time>
        <extensions><gpxtpx:TrackPointExtension><gpxtpx:hr>132</gpxtpx:hr></gpxtpx:TrackPointExtension></extensions>
      </trkpt>
      <trkpt lat="60.8701801482" lon="15.1240816762">
        <ele>319.8</ele>
        <time>2011-06-22T11:32:15Z</time>
        <extensions><gpxtpx:TrackPointExtension><gpxtpx:hr>132</gpxtpx:hr></gpxtpx:TrackPointExtension></extensions>
      </trkpt>
      <trkpt lat="60.8702491312" lon="15.1240269424">
        <ele>318.8</ele>
        <time>2011-06-22T11:32:18Z</time>
        <extensions><gpxtpx:TrackPointExtension><gpxtpx:hr>127</gpxtpx:hr></gpxtpx:TrackPointExtension></extensions>
      </trkpt>
      <trkpt lat="60.8703145101" lon="15.123916469">
        <ele>318.2</ele>
        <time>2011-06-22T11:32:21Z</time>
        <extensions><gpxtpx:TrackPointExtension><gpxtpx:hr>124</gpxtpx:hr></gpxtpx:TrackPointExtension></extensions>
      </trkpt>
      <trkpt lat="60.8703438467" lon="15.1238964362">
        <ele>318.2</ele>
        <time>2011-06-22T11:32:22Z</time>
        <extensions><gpxtpx:TrackPointExtension><gpxtpx:hr>124</gpxtpx:hr></gpxtpx:TrackPointExtension></extensions>
      </trkpt>
      <trkpt lat="60.870433533" lon="15.1237628288">
        <ele>316.8</ele>
        <time>2011-06-22T11:32:26Z</time>
        <extensions><gpxtpx:TrackPointExtension><gpxtpx:hr>122</gpxtpx:hr></gpxtpx:TrackPointExtension></extensions>
      </trkpt>
      <trkpt lat="60.870525231" lon="15.1236373517">
        <ele>316.2</ele>
        <time>2011-06-22T11:32:29Z</time>
        <extensions><gpxtpx:TrackPointExtension><gpxtpx:hr>120</gpxtpx:hr></gpxtpx:TrackPointExtension></extensions>
      </trkpt>
      <trkpt lat="60.8706365427" lon="15.1234526985">
        <ele>315.2</ele>
        <time>2011-06-22T11:32:33Z</time>
        <extensions><gpxtpx:TrackPointExtension><gpxtpx:hr>120</gpxtpx:hr></gpxtpx:TrackPointExtension></extensions>
      </trkpt>
      <trkpt lat="60.8707807113" lon="15.1232404687">
        <ele>314</ele>
        <time>2011-06-22T11:32:38Z</time>
        <extensions><gpxtpx:TrackPointExtension><gpxtpx:hr>119</gpxtpx:hr></gpxtpx:TrackPointExtension></extensions>
      </trkpt>
      <trkpt lat="60.8709534623" lon="15.1230053565">
        <ele>312.8</ele>
        <time>2011-06-22T11:32:43Z</time>
        <extensions><gpxtpx:TrackPointExtension><gpxtpx:hr>120</gpxtpx:hr></gpxtpx:TrackPointExtension></extensions>
      </trkpt>
      <trkpt lat="60.8710203499" lon="15.122936122">
        <ele>311.6</ele>
        <time>2011-06-22T11:32:46Z</time>
        <extensions><gpxtpx:TrackPointExtension><gpxtpx:hr>117</gpxtpx:hr></gpxtpx:TrackPointExtension></extensions>
      </trkpt>
      <trkpt lat="60.8710421428" lon="15.1229137423">
        <ele>311.2</ele>
        <time>2011-06-22T11:32:48Z</time>
        <extensions><gpxtpx:TrackPointExtension><gpxtpx:hr>116</gpxtpx:hr></gpxtpx:TrackPointExtension></extensions>
      </trkpt>
      <trkpt lat="60.8710928533" lon="15.1228501237">
        <ele>309.4</ele>
        <time>2011-06-22T11:32:53Z</time>
        <extensions><gpxtpx:TrackPointExtension><gpxtpx:hr>109</gpxtpx:hr></gpxtpx:TrackPointExtension></extensions>
      </trkpt>
      <trkpt lat="60.8711536221" lon="15.1228892671">
        <ele>308</ele>
        <time>2011-06-22T11:32:57Z</time>
        <extensions><gpxtpx:TrackPointExtension><gpxtpx:hr>107</gpxtpx:hr></gpxtpx:TrackPointExtension></extensions>
      </trkpt>
      <trkpt lat="60.8711687095" lon="15.1229236329">
        <ele>307.6</ele>
        <time>2011-06-22T11:32:58Z</time>
        <extensions><gpxtpx:TrackPointExtension><gpxtpx:hr>106</gpxtpx:hr></gpxtpx:TrackPointExtension></extensions>
      </trkpt>
      <trkpt lat="60.8712576415" lon="15.123140808">
        <ele>305.4</ele>
        <time>2011-06-22T11:33:04Z</time>
        <extensions><gpxtpx:TrackPointExtension><gpxtpx:hr>106</gpxtpx:hr></gpxtpx:TrackPointExtension></extensions>
      </trkpt>
      <trkpt lat="60.8712790153" lon="15.123164864">
        <ele>305</ele>
        <time>2011-06-22T11:33:05Z</time>
        <extensions><gpxtpx:TrackPointExtension><gpxtpx:hr>106</gpxtpx:hr></gpxtpx:TrackPointExtension></extensions>
      </trkpt>
      <trkpt lat="60.8713922548" lon="15.123267207">
        <ele>302.8</ele>
        <time>2011-06-22T11:33:10Z</time>
        <extensions><gpxtpx:TrackPointExtension><gpxtpx:hr>106</gpxtpx:hr></gpxtpx:TrackPointExtension></extensions>
      </trkpt>
      <trkpt lat="60.8714818573" lon="15.1234893274">
        <ele>300.6</ele>
        <time>2011-06-22T11:33:16Z</time>
        <extensions><gpxtpx:TrackPointExtension><gpxtpx:hr>109</gpxtpx:hr></gpxtpx:TrackPointExtension></extensions>
      </trkpt>
      <trkpt lat="60.8715040693" lon="15.1235157303">
        <ele>300.2</ele>
        <time>2011-06-22T11:33:17Z</time>
        <extensions><gpxtpx:TrackPointExtension><gpxtpx:hr>110</gpxtpx:hr></gpxtpx:TrackPointExtension></extensions>
      </trkpt>
      <trkpt lat="60.871526449" lon="15.1235335">
        <ele>299.8</ele>
        <time>2011-06-22T11:33:18Z</time>
        <extensions><gpxtpx:TrackPointExtension><gpxtpx:hr>110</gpxtpx:hr></gpxtpx:TrackPointExtension></extensions>
      </trkpt>
      <trkpt lat="60.8716066638" lon="15.1235686201">
        <ele>299</ele>
        <time>2011-06-22T11:33:21Z</time>
        <extensions><gpxtpx:TrackPointExtension><gpxtpx:hr>121</gpxtpx:hr></gpxtpx:TrackPointExtension></extensions>
      </trkpt>
      <trkpt lat="60.8716201586" lon="15.1235823664">
        <ele>298.8</ele>
        <time>2011-06-22T11:33:22Z</time>
        <extensions><gpxtpx:TrackPointExtension><gpxtpx:hr>123</gpxtpx:hr></gpxtpx:TrackPointExtension></extensions>
      </trkpt>
      <trkpt lat="60.8716097651" lon="15.123583959">
        <ele>296.8</ele>
        <time>2011-06-22T11:33:28Z</time>
        <extensions><gpxtpx:TrackPointExtension><gpxtpx:hr>124</gpxtpx:hr></gpxtpx:TrackPointExtension></extensions>
      </trkpt>
      <trkpt lat="60.87161119" lon="15.1235957775">
        <ele>295.8</ele>
        <time>2011-06-22T11:33:33Z</time>
        <extensions><gpxtpx:TrackPointExtension><gpxtpx:hr>122</gpxtpx:hr></gpxtpx:TrackPointExtension></extensions>
      </trkpt>
      <trkpt lat="60.8716818494" lon="15.12372335">
        <ele>294.6</ele>
        <time>2011-06-22T11:33:39Z</time>
        <extensions><gpxtpx:TrackPointExtension><gpxtpx:hr>124</gpxtpx:hr></gpxtpx:TrackPointExtension></extensions>
      </trkpt>
      <trkpt lat="60.8717229207" lon="15.1237667682">
        <ele>294</ele>
        <time>2011-06-22T11:33:41Z</time>
        <extensions><gpxtpx:TrackPointExtension><gpxtpx:hr>124</gpxtpx:hr></gpxtpx:TrackPointExtension></extensions>
      </trkpt>
      <trkpt lat="60.8718583722" lon="15.1239567859">
        <ele>292.2</ele>
        <time>2011-06-22T11:33:48Z</time>
        <extensions><gpxtpx:TrackPointExtension><gpxtpx:hr>126</gpxtpx:hr></gpxtpx:TrackPointExtension></extensions>
      </trkpt>
      <trkpt lat="60.8719199792" lon="15.1240462208">
        <ele>291.4</ele>
        <time>2011-06-22T11:33:53Z</time>
        <extensions><gpxtpx:TrackPointExtension><gpxtpx:hr>125</gpxtpx:hr></gpxtpx:TrackPointExtension></extensions>
      </trkpt>
      <trkpt lat="60.8719739586" lon="15.1241051455">
        <ele>290.4</ele>
        <time>2011-06-22T11:33:58Z</time>
        <extensions><gpxtpx:TrackPointExtension><gpxtpx:hr>120</gpxtpx:hr></gpxtpx:TrackPointExtension></extensions>
      </trkpt>
      <trkpt lat="60.8719937399" lon="15.1241234181">
        <ele>290</ele>
        <time>2011-06-22T11:34:00Z</time>
        <extensions><gpxtpx:TrackPointExtension><gpxtpx:hr>117</gpxtpx:hr></gpxtpx:TrackPointExtension></extensions>
      </trkpt>
      <trkpt lat="60.8720292792" lon="15.1240656668">
        <ele>289.2</ele>
        <time>2011-06-22T11:34:06Z</time>
        <extensions><gpxtpx:TrackPointExtension><gpxtpx:hr>112</gpxtpx:hr></gpxtpx:TrackPointExtension></extensions>
      </trkpt>
      <trkpt lat="60.872029363" lon="15.1239867093">
        <ele>288.8</ele>
        <time>2011-06-22T11:34:10Z</time>
        <extensions><gpxtpx:TrackPointExtension><gpxtpx:hr>109</gpxtpx:hr></gpxtpx:TrackPointExtension></extensions>
      </trkpt>
      <trkpt lat="60.8744778836" lon="15.1205404911">
        <ele>252.6</ele>
        <time>2011-06-22T11:38:12Z</time>
        <extensions><gpxtpx:TrackPointExtension><gpxtpx:hr>117</gpxtpx:hr></gpxtpx:TrackPointExtension></extensions>
      </trkpt>
      <trkpt lat="60.8744931387" lon="15.12053915">
        <ele>252.4</ele>
        <time>2011-06-22T11:38:13Z</time>
        <extensions><gpxtpx:TrackPointExtension><gpxtpx:hr>117</gpxtpx:hr></gpxtpx:TrackPointExtension></extensions>
      </trkpt>
      <trkpt lat="60.8745145125" lon="15.1205318578">
        <ele>252</ele>
        <time>2011-06-22T11:38:14Z</time>
        <extensions><gpxtpx:TrackPointExtension><gpxtpx:hr>117</gpxtpx:hr></gpxtpx:TrackPointExtension></extensions>
      </trkpt>
      <trkpt lat="60.8746183643" lon="15.120473855">
        <ele>251</ele>
        <time>2011-06-22T11:38:16Z</time>
        <extensions><gpxtpx:TrackPointExtension><gpxtpx:hr>117</gpxtpx:hr></gpxtpx:TrackPointExtension></extensions>
      </trkpt>
      <trkpt lat="60.8748075437" lon="15.120293728">
        <ele>247.4</ele>
        <time>2011-06-22T11:38:22Z</time>
        <extensions><gpxtpx:TrackPointExtension><gpxtpx:hr>115</gpxtpx:hr></gpxtpx:TrackPointExtension></extensions>
      </trkpt>
      <trkpt lat="60.8748765268" lon="15.1201959112">
        <ele>245.8</ele>
        <time>2011-06-22T11:38:25Z</time>
        <extensions><gpxtpx:TrackPointExtension><gpxtpx:hr>125</gpxtpx:hr></gpxtpx:TrackPointExtension></extensions>
      </trkpt>
      <trkpt lat="60.8749041032" lon="15.1201679995">
        <ele>245.4</ele>
        <time>2011-06-22T11:38:26Z</time>
        <extensions><gpxtpx:TrackPointExtension><gpxtpx:hr>125</gpxtpx:hr></gpxtpx:TrackPointExtension></extensions>
      </trkpt>
      <trkpt lat="60.8749932028" lon="15.1200469648">
        <ele>243.4</ele>
        <time>2011-06-22T11:38:30Z</time>
        <extensions><gpxtpx:TrackPointExtension><gpxtpx:hr>119</gpxtpx:hr></gpxtpx:TrackPointExtension></extensions>
      </trkpt>
      <trkpt lat="60.8750420693" lon="15.119985777">
        <ele>242.6</ele>
        <time>2011-06-22T11:38:32Z</time>
        <extensions><gpxtpx:TrackPointExtension><gpxtpx:hr>114</gpxtpx:hr></gpxtpx:TrackPointExtension></extensions>
      </trkpt>
      <trkpt lat="60.8752059354" lon="15.1198092542">
        <ele>240.2</ele>
        <time>2011-06-22T11:38:38Z</time>
        <extensions><gpxtpx:TrackPointExtension><gpxtpx:hr>112</gpxtpx:hr></gpxtpx:TrackPointExtension></extensions>
      </trkpt>
      <trkpt lat="60.8753647725" lon="15.1197174724">
        <ele>238.4</ele>
        <time>2011-06-22T11:38:44Z</time>
        <extensions><gpxtpx:TrackPointExtension><gpxtpx:hr>109</gpxtpx:hr></gpxtpx:TrackPointExtension></extensions>
      </trkpt>
      <trkpt lat="60.875480778" lon="15.1197208251">
        <ele>237.2</ele>
        <time>2011-06-22T11:38:48Z</time>
        <extensions><gpxtpx:TrackPointExtension><gpxtpx:hr>108</gpxtpx:hr></gpxtpx:TrackPointExtension></extensions>
      </trkpt>
      <trkpt lat="60.8755149761" lon="15.1197261895">
        <ele>237</ele>
        <time>2011-06-22T11:38:49Z</time>
        <extensions><gpxtpx:TrackPointExtension><gpxtpx:hr>108</gpxtpx:hr></gpxtpx:TrackPointExtension></extensions>
      </trkpt>
      <trkpt lat="60.8756158942" lon="15.1197549394">
        <ele>235.8</ele>
        <time>2011-06-22T11:38:53Z</time>
        <extensions><gpxtpx:TrackPointExtension><gpxtpx:hr>116</gpxtpx:hr></gpxtpx:TrackPointExtension></extensions>
      </trkpt>
      <trkpt lat="60.875645147" lon="15.1197547718">
        <ele>235.6</ele>
        <time>2011-06-22T11:38:54Z</time>
        <extensions><gpxtpx:TrackPointExtension><gpxtpx:hr>116</gpxtpx:hr></gpxtpx:TrackPointExtension></extensions>
      </trkpt>
      <trkpt lat="60.8757228472" lon="15.1197637404">
        <ele>234.8</ele>
        <time>2011-06-22T11:38:57Z</time>
        <extensions><gpxtpx:TrackPointExtension><gpxtpx:hr>111</gpxtpx:hr></gpxtpx:TrackPointExtension></extensions>
      </trkpt>
      <trkpt lat="60.8758862105" lon="15.1197991959">
        <ele>233</ele>
        <time>2011-06-22T11:39:03Z</time>
        <extensions><gpxtpx:TrackPointExtension><gpxtpx:hr>106</gpxtpx:hr></gpxtpx:TrackPointExtension></extensions>
      </trkpt>
      <trkpt lat="60.8760628171" lon="15.1198439552">
        <ele>231</ele>
        <time>2011-06-22T11:39:09Z</time>
        <extensions><gpxtpx:TrackPointExtension><gpxtpx:hr>105</gpxtpx:hr></gpxtpx:TrackPointExtension></extensions>
      </trkpt>
      <trkpt lat="60.876224001" lon="15.1198961745">
        <ele>230.2</ele>
        <time>2011-06-22T11:39:15Z</time>
        <extensions><gpxtpx:TrackPointExtension><gpxtpx:hr>106</gpxtpx:hr></gpxtpx:TrackPointExtension></extensions>
      </trkpt>
      <trkpt lat="60.8763894597" lon="15.1199481422">
        <ele>228.8</ele>
        <time>2011-06-22T11:39:21Z</time>
        <extensions><gpxtpx:TrackPointExtension><gpxtpx:hr>105</gpxtpx:hr></gpxtpx:TrackPointExtension></extensions>
      </trkpt>
      <trkpt lat="60.8765739453" lon="15.1199975116">
        <ele>227.6</ele>
        <time>2011-06-22T11:39:28Z</time>
        <extensions><gpxtpx:TrackPointExtension><gpxtpx:hr>105</gpxtpx:hr></gpxtpx:TrackPointExtension></extensions>
      </trkpt>
      <trkpt lat="60.8766369772" lon="15.1200250043">
        <ele>227.4</ele>
        <time>2011-06-22T11:39:30Z</time>
        <extensions><gpxtpx:TrackPointExtension><gpxtpx:hr>112</gpxtpx:hr></gpxtpx:TrackPointExtension></extensions>
      </trkpt>
      <trkpt lat="60.8766833291" lon="15.1200478869">
        <ele>227.4</ele>
        <time>2011-06-22T11:39:32Z</time>
        <extensions><gpxtpx:TrackPointExtension><gpxtpx:hr>112</gpxtpx:hr></gpxtpx:TrackPointExtension></extensions>
      </trkpt>
      <trkpt lat="60.8768240612" lon="15.1200992679">
        <ele>226.4</ele>
        <time>2011-06-22T11:39:37Z</time>
        <extensions><gpxtpx:TrackPointExtension><gpxtpx:hr>107</gpxtpx:hr></gpxtpx:TrackPointExtension></extensions>
      </trkpt>
      <trkpt lat="60.8768564992" lon="15.1201126789">
        <ele>226.2</ele>
        <time>2011-06-22T11:39:38Z</time>
        <extensions><gpxtpx:TrackPointExtension><gpxtpx:hr>107</gpxtpx:hr></gpxtpx:TrackPointExtension></extensions>
      </trkpt>
      <trkpt lat="60.8769101434" lon="15.120133969">
        <ele>225.8</ele>
        <time>2011-06-22T11:39:40Z</time>
        <extensions><gpxtpx:TrackPointExtension><gpxtpx:hr>101</gpxtpx:hr></gpxtpx:TrackPointExtension></extensions>
      </trkpt>
      <trkpt lat="60.8769657154" lon="15.1201508166">
        <ele>225.6</ele>
        <time>2011-06-22T11:39:42Z</time>
        <extensions><gpxtpx:TrackPointExtension><gpxtpx:hr>96</gpxtpx:hr></gpxtpx:TrackPointExtension></extensions>
      </trkpt>
      <trkpt lat="60.8771226245" lon="15.1201373217">
        <ele>224.4</ele>
        <time>2011-06-22T11:39:48Z</time>
        <extensions><gpxtpx:TrackPointExtension><gpxtpx:hr>108</gpxtpx:hr></gpxtpx:TrackPointExtension></extensions>
      </trkpt>
      <trkpt lat="60.8771476864" lon="15.1201282693">
        <ele>224.2</ele>
        <time>2011-06-22T11:39:49Z</time>
        <extensions><gpxtpx:TrackPointExtension><gpxtpx:hr>108</gpxtpx:hr></gpxtpx:TrackPointExtension></extensions>
      </trkpt>
      <trkpt lat="60.8773202697" lon="15.1200462943">
        <ele>222.8</ele>
        <time>2011-06-22T11:39:56Z</time>
        <extensions><gpxtpx:TrackPointExtension><gpxtpx:hr>108</gpxtpx:hr></gpxtpx:TrackPointExtension></extensions>
      </trkpt>
      <trkpt lat="60.877453039" lon="15.1200426901">
        <ele>221.6</ele>
        <time>2011-06-22T11:40:01Z</time>
        <extensions><gpxtpx:TrackPointExtension><gpxtpx:hr>106</gpxtpx:hr></gpxtpx:TrackPointExtension></extensions>
      </trkpt>
      <trkpt lat="60.8776282207" lon="15.1200882876">
        <ele>220.2</ele>
        <time>2011-06-22T11:40:07Z</time>
        <extensions><gpxtpx:TrackPointExtension><gpxtpx:hr>105</gpxtpx:hr></gpxtpx:TrackPointExtension></extensions>
      </trkpt>
      <trkpt lat="60.8777786758" lon="15.1201275987">
        <ele>219</ele>
        <time>2011-06-22T11:40:12Z</time>
        <extensions><gpxtpx:TrackPointExtension><gpxtpx:hr>105</gpxtpx:hr></gpxtpx:TrackPointExtension></extensions>
      </trkpt>
      <trkpt lat="60.8779825236" lon="15.1201208932">
        <ele>217.6</ele>
        <time>2011-06-22T11:40:18Z</time>
        <extensions><gpxtpx:TrackPointExtension><gpxtpx:hr>107</gpxtpx:hr></gpxtpx:TrackPointExtension></extensions>
      </trkpt>
      <trkpt lat="60.8781471442" lon="15.1200913051">
        <ele>215.8</ele>
        <time>2011-06-22T11:40:23Z</time>
        <extensions><gpxtpx:TrackPointExtension><gpxtpx:hr>116</gpxtpx:hr></gpxtpx:TrackPointExtension></extensions>
      </trkpt>
      <trkpt lat="60.8781837731" lon="15.1200836776">
        <ele>215.6</ele>
        <time>2011-06-22T11:40:24Z</time>
        <extensions><gpxtpx:TrackPointExtension><gpxtpx:hr>116</gpxtpx:hr></gpxtpx:TrackPointExtension></extensions>
      </trkpt>
      <trkpt lat="60.8783535904" lon="15.1200484736">
        <ele>214</ele>
        <time>2011-06-22T11:40:29Z</time>
        <extensions><gpxtpx:TrackPointExtension><gpxtpx:hr>122</gpxtpx:hr></gpxtpx:TrackPointExtension></extensions>
      </trkpt>
      <trkpt lat="60.8783859445" lon="15.1200460428">
        <ele>213.8</ele>
        <time>2011-06-22T11:40:30Z</time>
        <extensions><gpxtpx:TrackPointExtension><gpxtpx:hr>122</gpxtpx:hr></gpxtpx:TrackPointExtension></extensions>
      </trkpt>
      <trkpt lat="60.8785583602" lon="15.1200036304">
        <ele>212</ele>
        <time>2011-06-22T11:40:35Z</time>
        <extensions><gpxtpx:TrackPointExtension><gpxtpx:hr>117</gpxtpx:hr></gpxtpx:TrackPointExtension></extensions>
      </trkpt>
      <trkpt lat="60.8786204701" lon="15.1200016188">
        <ele>211.4</ele>
        <time>2011-06-22T11:40:37Z</time>
        <extensions><gpxtpx:TrackPointExtension><gpxtpx:hr>124</gpxtpx:hr></gpxtpx:TrackPointExtension></extensions>
      </trkpt>
      <trkpt lat="60.8787518144" lon="15.120058029">
        <ele>210</ele>
        <time>2011-06-22T11:40:41Z</time>
        <extensions><gpxtpx:TrackPointExtension><gpxtpx:hr>120</gpxtpx:hr></gpxtpx:TrackPointExtension></extensions>
      </trkpt>
      <trkpt lat="60.8789105676" lon="15.1201545046">
        <ele>208.4</ele>
        <time>2011-06-22T11:40:46Z</time>
        <extensions><gpxtpx:TrackPointExtension><gpxtpx:hr>125</gpxtpx:hr></gpxtpx:TrackPointExtension></extensions>
      </trkpt>
      <trkpt lat="60.8789412454" lon="15.1201724419">
        <ele>208.2</ele>
        <time>2011-06-22T11:40:47Z</time>
        <extensions><gpxtpx:TrackPointExtension><gpxtpx:hr>125</gpxtpx:hr></gpxtpx:TrackPointExtension></extensions>
      </trkpt>
      <trkpt lat="60.8790925387" lon="15.1202695043">
        <ele>206.8</ele>
        <time>2011-06-22T11:40:52Z</time>
        <extensions><gpxtpx:TrackPointExtension><gpxtpx:hr>119</gpxtpx:hr></gpxtpx:TrackPointExtension></extensions>
      </trkpt>
      <trkpt lat="60.8792760185" lon="15.120371512">
        <ele>205.2</ele>
        <time>2011-06-22T11:40:58Z</time>
        <extensions><gpxtpx:TrackPointExtension><gpxtpx:hr>116</gpxtpx:hr></gpxtpx:TrackPointExtension></extensions>
      </trkpt>
      <trkpt lat="60.8794732446" lon="15.1204402436">
        <ele>203.6</ele>
        <time>2011-06-22T11:41:04Z</time>
        <extensions><gpxtpx:TrackPointExtension><gpxtpx:hr>116</gpxtpx:hr></gpxtpx:TrackPointExtension></extensions>
      </trkpt>
      <trkpt lat="60.8796657768" lon="15.1205244817">
        <ele>201.8</ele>
        <time>2011-06-22T11:41:10Z</time>
        <extensions><gpxtpx:TrackPointExtension><gpxtpx:hr>113</gpxtpx:hr></gpxtpx:TrackPointExtension></extensions>
      </trkpt>
      <trkpt lat="60.8798565488" lon="15.1205867592">
        <ele>199.8</ele>
        <time>2011-06-22T11:41:16Z</time>
        <extensions><gpxtpx:TrackPointExtension><gpxtpx:hr>113</gpxtpx:hr></gpxtpx:TrackPointExtension></extensions>
      </trkpt>
      <trkpt lat="60.8799929224" lon="15.1206287525">
        <ele>198</ele>
        <time>2011-06-22T11:41:21Z</time>
        <extensions><gpxtpx:TrackPointExtension><gpxtpx:hr>114</gpxtpx:hr></gpxtpx:TrackPointExtension></extensions>
      </trkpt>
      <trkpt lat="60.8801177288" lon="15.1206393975">
        <ele>196</ele>
        <time>2011-06-22T11:41:26Z</time>
        <extensions><gpxtpx:TrackPointExtension><gpxtpx:hr>113</gpxtpx:hr></gpxtpx:TrackPointExtension></extensions>
      </trkpt>
      <trkpt lat="60.880192663" lon="15.1206331949">
        <ele>194.2</ele>
        <time>2011-06-22T11:41:31Z</time>
        <extensions><gpxtpx:TrackPointExtension><gpxtpx:hr>110</gpxtpx:hr></gpxtpx:TrackPointExtension></extensions>
      </trkpt>
      <trkpt lat="60.8802725425" lon="15.120547029">
        <ele>192.8</ele>
        <time>2011-06-22T11:41:35Z</time>
        <extensions><gpxtpx:TrackPointExtension><gpxtpx:hr>109</gpxtpx:hr></gpxtpx:TrackPointExtension></extensions>
      </trkpt>
      <trkpt lat="60.8803449622" lon="15.1202310314">
        <ele>190.8</ele>
        <time>2011-06-22T11:41:41Z</time>
        <extensions><gpxtpx:TrackPointExtension><gpxtpx:hr>107</gpxtpx:hr></gpxtpx:TrackPointExtension></extensions>
      </trkpt>
      <trkpt lat="60.8803960917" lon="15.1200062288">
        <ele>189.6</ele>
        <time>2011-06-22T11:41:46Z</time>
        <extensions><gpxtpx:TrackPointExtension><gpxtpx:hr>107</gpxtpx:hr></gpxtpx:TrackPointExtension></extensions>
      </trkpt>
      <trkpt lat="60.8804190582" lon="15.1199771436">
        <ele>188.8</ele>
        <time>2011-06-22T11:41:48Z</time>
        <extensions><gpxtpx:TrackPointExtension><gpxtpx:hr>107</gpxtpx:hr></gpxtpx:TrackPointExtension></extensions>
      </trkpt>
      <trkpt lat="60.8804553518" lon="15.1199773113">
        <ele>187.8</ele>
        <time>2011-06-22T11:41:52Z</time>
        <extensions><gpxtpx:TrackPointExtension><gpxtpx:hr>104</gpxtpx:hr></gpxtpx:TrackPointExtension></extensions>
      </trkpt>
      <trkpt lat="60.8804944953" lon="15.1201212285">
        <ele>186.4</ele>
        <time>2011-06-22T11:41:58Z</time>
        <extensions><gpxtpx:TrackPointExtension><gpxtpx:hr>104</gpxtpx:hr></gpxtpx:TrackPointExtension></extensions>
      </trkpt>
      <trkpt lat="60.8805355666" lon="15.1202134294">
        <ele>186</ele>
        <time>2011-06-22T11:42:00Z</time>
        <extensions><gpxtpx:TrackPointExtension><gpxtpx:hr>105</gpxtpx:hr></gpxtpx:TrackPointExtension></extensions>
      </trkpt>
      <trkpt lat="60.880643274" lon="15.1204529003">
        <ele>185</ele>
        <time>2011-06-22T11:42:06Z</time>
        <extensions><gpxtpx:TrackPointExtension><gpxtpx:hr>109</gpxtpx:hr></gpxtpx:TrackPointExtension></extensions>
      </trkpt>
      <trkpt lat="60.8807194655" lon="15.1205906987">
        <ele>184.6</ele>
        <time>2011-06-22T11:42:10Z</time>
        <extensions><gpxtpx:TrackPointExtension><gpxtpx:hr>112</gpxtpx:hr></gpxtpx:TrackPointExtension></extensions>
      </trkpt>
      <trkpt lat="60.8807855148" lon="15.1204844162">
        <ele>183.8</ele>
        <time>2011-06-22T11:42:14Z</time>
        <extensions><gpxtpx:TrackPointExtension><gpxtpx:hr>112</gpxtpx:hr></gpxtpx:TrackPointExtension></extensions>
      </trkpt>
      <trkpt lat="60.8807406717" lon="15.1202678279">
        <ele>183.2</ele>
        <time>2011-06-22T11:42:18Z</time>
        <extensions><gpxtpx:TrackPointExtension><gpxtpx:hr>112</gpxtpx:hr></gpxtpx:TrackPointExtension></extensions>
      </trkpt>
      <trkpt lat="60.8807089881" lon="15.1201727772">
        <ele>182.8</ele>
        <time>2011-06-22T11:42:20Z</time>
        <extensions><gpxtpx:TrackPointExtension><gpxtpx:hr>111</gpxtpx:hr></gpxtpx:TrackPointExtension></extensions>
      </trkpt>
    </trkseg>
  </trk>
</gpx>